[[{"header":{"parameterUnit":"m.s-1","parameterCategory":1,"la1":31.0,"la2":29.5877,"lo1":-88.7671,"lo2":-86.6584,"dy":0.0162,"dx":0.0185,"nx":115,"ny":88,"refTime":"2024-07-16T18:00:00:Z","depth":0,"parameterNumber":2,"parameterNumberName":"U-component_of_WINDS"},"data":[0.0,0.0,0.0,0.0,0.0,0.0,0.0,0.0,0.0,0.0,0.0,0.0,0.0,0.0,0.0,0.0,0.0,0.0,0.0,0.0,0.0,0.0,0.0,0.0,0.0,0.0,0.0,0.0,0.0,0.0,0.0,0.0,0.0,0.0,0.0,0.0,0.0,0.0,0.0,0.0,0.0,0.0,0.0,0.0,0.0,0.0,0.0,0.0,0.0,0.0,0.0,0.0,0.0,0.0,0.0,0.0,0.0,0.0,0.0,0.0,0.0,0.0,0.0,0.0,0.0,0.0,0.0,0.0,0.0,0.0,0.0,0.0,0.0,0.0,0.0,0.0,0.0,0.0,0.0,0.0,0.0,0.0,0.0,0.0,0.0,0.0,0.0,0.0,0.0,0.0,0.0,0.0,0.0,0.0,0.0,0.0,0.0,0.0,0.0,0.0,0.0,0.0,0.0,0.0,0.0,0.0,0.0,0.0,0.0,0.0,0.0,0.0,0.0,0.0,0.0,0.0,0.0,0.0,0.0,0.0,0.0,0.0,0.0,0.0,0.0,0.0,0.0,0.0,0.0,0.0,0.0,0.0,0.0,0.0,0.0,0.0,0.0,0.0,0.0,0.0,0.0,0.0,0.0,0.0,0.0,0.0,0.0,0.0,0.0,0.0,0.0,0.0,0.0,0.0,0.0,0.0,0.0,0.0,0.0,0.0,0.0,0.0,0.0,0.0,0.0,0.0,0.0,0.0,0.0,0.0,0.0,0.0,0.0,0.0,0.0,0.0,0.0,0.0,0.0,0.0,0.0,0.0,0.0,0.0,0.0,0.0,0.0,0.0,0.0,0.0,0.0,0.0,0.0,0.0,0.0,0.0,0.0,0.0,0.0,0.0,0.0,0.0,0.0,0.0,0.0,0.0,0.0,0.0,0.0,0.0,0.0,0.0,0.0,0.0,0.0,0.0,0.0,0.0,0.0,0.0,0.0,0.0,0.0,0.0,0.0,0.0,0.0,0.0,0.0,0.0,0.0,0.0,0.0,0.0,0.0,0.0,0.0,0.0,0.0,0.0,0.0,0.0,0.0,0.0,0.0,0.0,0.0,0.0,0.0,0.0,0.0,0.0,0.0,0.0,0.0,0.0,0.0,0.0,0.0,0.0,0.0,0.0,0.0,0.0,0.0,0.0,0.0,0.0,0.0,0.0,0.0,0.0,0.0,0.0,0.0,0.0,0.0,0.0,0.0,0.0,0.0,0.0,0.0,0.0,0.0,0.0,0.0,0.0,0.0,0.0,0.0,0.0,0.0,0.0,0.0,0.0,0.0,0.0,0.0,0.0,0.0,0.0,0.0,0.0,0.0,0.0,0.0,0.0,0.0,0.0,0.0,0.0,0.0,0.0,0.0,0.0,0.0,0.0,0.0,0.0,0.0,0.0,0.0,0.0,0.0,0.0,0.0,0.0,0.0,0.0,0.0,0.0,0.0,0.0,0.0,0.0,0.0,0.0,0.0,0.0,0.0,0.0,0.0,0.0,0.0,0.0,0.0,0.0,0.0,0.0,0.0,0.0,0.0,0.0,0.0,0.0,0.0,0.0,0.0,0.0,0.0,0.0,0.0,0.0,0.0,0.0,0.0,0.0,0.0,0.0,0.0,0.0,0.0,0.0,0.0,0.0,0.0,0.0,0.0,0.0,0.0,0.0,0.0,0.0,0.0,0.0,0.0,0.0,0.0,0.0,0.0,0.0,0.0,0.0,0.0,0.0,0.0,0.0,0.0,0.0,0.0,0.0,0.0,0.0,0.0,0.0,0.0,0.0,0.0,0.0,0.0,0.0,0.0,0.0,0.0,0.0,0.0,0.0,0.0,0.0,0.0,0.0,0.0,0.0,0.0,0.0,0.0,0.0,0.0,0.0,0.0,0.0,0.0,0.0,0.0,0.0,0.0,0.0,0.0,0.0,0.0,0.0,0.0,0.0,0.0,0.0,0.0,0.0,0.0,0.0,0.0,0.0,0.0,0.0,0.0,0.0,0.0,0.0,0.0,0.0,0.0,0.0,0.0,0.0,0.0,0.0,0.0,0.0,0.0,0.0,0.0,0.0,0.0,0.0,0.0,0.0,0.0,0.0,0.0,0.0,0.0,0.0,0.0,0.0,0.0,0.0,0.0,0.0,0.0,0.0,0.0,0.0,0.0,0.0,0.0,0.0,0.0,0.0,0.0,0.0,0.0,0.0,0.0,0.0,0.0,0.0,0.0,0.0,0.0,0.0,0.0,0.0,0.0,0.0,0.0,0.0,0.0,0.0,0.0,0.0,0.0,0.0,0.0,0.0,0.0,0.0,0.0,0.0,0.0,0.0,0.0,0.0,0.0,0.0,0.0,0.0,0.0,0.0,0.0,0.0,0.0,0.0,0.0,0.0,0.0,0.0,0.0,0.0,0.0,0.0,0.0,0.0,0.0,0.0,0.0,0.0,0.0,0.0,0.0,0.0,0.0,0.0,0.0,0.0,0.0,0.0,0.0,0.0,0.0,0.0,0.0,0.0,0.0,0.0,0.0,0.0,0.0,0.0,0.0,0.0,0.0,0.0,0.0,0.0,0.0,0.0,0.0,0.0,0.0,0.0,0.0,0.0,0.0,0.0,0.0,0.0,0.0,0.0,0.0,0.0,0.0,0.0,0.0,0.0,0.0,0.0,0.0,0.0,0.0,0.0,0.0,0.0,0.0,0.0,0.0,0.0,0.0,0.0,0.0,0.0,0.0,0.0,0.0,0.0,0.0,0.0,0.0,0.0,0.0,0.0,0.0,0.0,0.0,0.0,0.0,0.0,0.0,0.0,0.0,0.0,0.0,0.0,0.0,0.0,0.0,0.0,0.0,0.0,0.0,0.0,0.0,0.0,0.0,0.0,0.0,0.0,0.0,0.0,0.0,0.0,0.0,0.0,0.0,0.0,0.0,0.0,0.0,0.0,0.0,0.0,0.0,0.0,0.0,0.0,0.0,0.0,0.0,0.0,0.0,0.0,0.0,0.0,0.0,0.0,0.0,0.0,0.0,0.0,0.0,0.0,0.0,0.0,0.0,0.0,0.0,0.0,0.0,0.0,0.0,0.0,0.0,0.0,0.0,0.0,0.0,0.0,0.0,0.0,0.0,0.0,0.0,0.0,0.0,0.0,0.0,0.0,0.0,0.0,0.0,0.0,0.0,0.0,0.0,0.0,0.0,0.0,0.0,0.0,0.0,0.0,0.0,0.0,0.0,0.0,0.0,0.0,0.0,0.0,0.0,0.0,0.0,0.0,0.0,0.0,0.0,0.0,0.0,0.0,0.0,0.0,0.0,0.0,0.0,0.0,0.0,0.0,0.0,0.0,0.0,0.0,0.0,0.0,0.0,0.0,0.0,0.0,0.0,0.0,0.0,0.0,0.0,0.0,0.0,0.0,0.0,0.0,0.0,0.0,0.0,0.0,0.0,0.0,0.0,0.0,0.0,0.0,0.0,0.0,0.0,0.0,0.0,0.0,0.0,0.0,0.0,0.0,0.0,0.0,0.0,0.0,0.0,0.0,0.0,0.0,0.0,0.0,0.0,0.0,0.0,0.0,0.0,0.0,0.0,0.0,0.0,0.0,0.0,0.0,0.0,0.0,0.0,0.0,0.0,0.0,0.0,0.0,0.0,0.0,0.0,0.0,0.0,0.0,0.0,0.0,0.0,0.0,0.0,0.0,0.0,0.0,0.0,0.0,0.0,0.0,0.0,0.0,0.0,0.0,0.0,0.0,0.0,0.0,0.0,0.0,0.0,0.0,0.0,0.0,0.0,0.0,0.0,0.0,0.0,0.0,0.0,0.0,0.0,0.0,0.0,0.0,0.0,0.0,0.0,0.0,0.0,0.0,0.0,0.0,0.0,0.0,0.0,0.0,0.0,0.0,0.0,0.0,0.0,0.0,0.0,0.0,0.0,0.0,0.0,0.0,0.0,0.0,0.0,0.0,0.0,0.0,0.0,0.0,0.0,0.0,0.0,0.0,0.0,0.0,0.0,0.0,0.0,0.0,0.0,0.0,0.0,0.0,0.0,0.0,0.0,0.0,0.0,0.0,0.0,0.0,0.0,0.0,0.0,0.0,0.0,0.0,0.0,0.0,0.0,0.0,0.0,0.0,0.0,0.0,0.0,0.0,0.0,0.0,0.0,0.0,0.0,0.0,0.0,0.0,0.0,0.0,0.0,0.0,0.0,0.0,0.0,0.0,0.0,0.0,0.0,0.0,0.0,0.0,0.0,0.0,0.0,0.0,-0.5092,0.0,0.0,0.0,0.0,0.0,0.0,0.0,0.0,0.0,0.0,0.0,0.0,0.0,0.0,0.0,0.0,0.0,0.0,0.0,0.0,0.0,0.0,0.0,0.0,0.0,0.0,0.0,0.0,0.0,0.0,0.0,0.0,0.0,0.0,0.0,0.0,0.0,0.0,0.0,0.0,0.0,0.0,0.0,0.0,0.0,0.0,0.0,0.0,0.0,0.0,0.0,0.0,0.0,0.0,0.0,0.0,0.0,0.0,0.0,0.0,0.0,0.0,0.0,0.0,0.0,0.0,0.0,0.0,0.0,0.0,0.0,0.0,0.0,0.0,0.0,0.0,0.0,0.0,0.0,0.0,0.0,0.0,0.0,0.0,0.0,0.0,0.0,0.0,0.0,0.0,0.0,0.0,0.0,0.0,0.0,0.0,0.0,0.0,0.0,0.0,0.0,0.0,0.0,0.0,0.0,0.0,0.0,0.0,0.0,0.0,-0.5091,-0.5102,-0.5091,-0.5096,-0.5097,0.0,0.0,0.0,0.0,0.0,0.0,0.0,0.0,0.0,0.0,0.0,0.0,0.0,0.0,0.0,0.0,0.0,0.0,0.0,0.0,0.0,0.0,0.0,0.0,0.0,0.0,0.0,0.0,0.0,0.0,0.0,0.0,0.0,0.0,0.0,0.0,0.0,0.0,0.0,0.0,0.0,0.0,0.0,0.0,0.0,0.0,0.0,0.0,0.0,0.0,0.0,0.0,0.0,0.0,0.0,0.0,0.0,0.0,0.0,0.0,0.0,0.0,0.0,0.0,0.0,0.0,0.0,0.0,0.0,0.0,0.0,0.0,0.0,0.0,0.0,0.0,0.0,0.0,0.0,0.0,0.0,0.0,0.0,0.0,0.0,0.0,0.0,0.0,0.0,0.0,0.0,0.0,0.0,0.0,0.0,0.0,0.0,0.0,0.0,0.0,0.0,0.0,0.0,0.0,0.0,0.0,0.0,0.0,0.0,0.0,0.0,0.0,-0.5104,-0.5091,-0.5105,0.0,0.0,0.0,0.0,0.0,0.0,0.0,0.0,0.0,0.0,0.0,0.0,0.0,0.0,0.0,0.0,0.0,0.0,0.0,0.0,0.0,0.0,0.0,0.0,0.0,0.0,0.0,0.0,0.0,0.0,0.0,0.0,0.0,0.0,0.0,0.0,0.0,0.0,0.0,0.0,0.0,0.0,0.0,0.0,0.0,0.0,0.0,0.0,0.0,0.0,0.0,0.0,0.0,0.0,0.0,0.0,0.0,0.0,0.0,0.0,0.0,0.0,0.0,0.0,0.0,0.0,0.0,0.0,0.0,0.0,0.0,0.0,0.0,0.0,0.0,0.0,0.0,0.0,0.0,0.0,0.0,0.0,0.0,0.0,0.0,0.0,0.0,0.0,0.0,0.0,0.0,0.0,0.0,0.0,0.0,0.0,0.0,0.0,0.0,0.0,0.0,0.0,0.0,0.0,0.0,0.0,0.0,0.0,0.0,0.0,-0.5096,-0.5098,-0.5095,0.0,-0.5099,0.0,0.0,0.0,0.0,0.0,0.0,0.0,0.0,0.0,0.0,0.0,0.0,0.0,0.0,0.0,0.0,0.0,0.0,0.0,0.0,0.0,0.0,0.0,0.0,0.0,0.0,0.0,0.0,0.0,0.0,0.0,0.0,0.0,0.0,0.0,0.0,0.0,0.0,0.0,0.0,0.0,0.0,0.0,0.0,0.0,0.0,0.0,0.0,0.0,0.0,0.0,0.0,0.0,0.0,0.0,0.0,0.0,0.0,0.0,0.0,0.0,0.0,0.0,0.0,0.0,0.0,0.0,0.0,0.0,0.0,0.0,0.0,0.0,0.0,0.0,0.0,0.0,0.0,0.0,0.0,0.0,0.0,0.0,0.0,0.0,0.0,0.0,0.0,0.0,0.0,0.0,0.0,0.0,0.0,0.0,0.0,0.0,0.0,0.0,0.0,0.0,0.0,0.0,0.0,0.0,0.0,0.0,0.0,0.0,0.0,-0.5091,-0.5096,-0.5096,-0.5102,0.0,0.0,0.0,0.0,0.0,0.0,0.0,0.0,0.0,0.0,0.0,0.0,0.0,0.0,0.0,0.0,0.0,0.0,0.0,0.0,0.0,0.0,0.0,0.0,0.0,0.0,0.0,0.0,0.0,0.0,0.0,0.0,0.0,0.0,0.0,0.0,0.0,0.0,0.0,0.0,0.0,0.0,0.0,0.0,0.0,0.0,0.0,0.0,0.0,0.0,0.0,0.0,0.0,0.0,0.0,0.0,0.0,0.0,0.0,0.0,0.0,0.0,0.0,0.0,0.0,0.0,0.0,0.0,0.0,0.0,0.0,0.0,0.0,0.0,0.0,0.0,0.0,0.0,0.0,0.0,0.0,0.0,0.0,0.0,0.0,0.0,0.0,0.0,0.0,0.0,0.0,0.0,0.0,0.0,0.0,0.0,0.0,0.0,0.0,0.0,0.0,0.0,0.0,0.0,0.0,0.0,0.0,0.0,0.0,0.0,-0.509,0.0,-0.5094,-0.5097,-0.5105,-0.5089,0.0,0.0,0.0,0.0,0.0,0.0,0.0,0.0,0.0,0.0,0.0,0.0,0.0,0.0,0.0,0.0,0.0,0.0,0.0,0.0,0.0,0.0,0.0,0.0,0.0,0.0,0.0,0.0,0.0,0.0,0.0,0.0,0.0,0.0,0.0,0.0,0.0,0.0,0.0,0.0,0.0,0.0,0.0,0.0,0.0,0.0,0.0,0.0,0.0,0.0,0.0,0.0,0.0,0.0,0.0,0.0,0.0,0.0,0.0,0.0,0.0,0.0,0.0,0.0,0.0,0.0,0.0,0.0,0.0,0.0,0.0,0.0,0.0,0.0,0.0,0.0,0.0,0.0,0.0,0.0,0.0,0.0,0.0,0.0,0.0,0.0,0.0,0.0,0.0,0.0,0.0,0.0,0.0,0.0,0.0,0.0,0.0,0.0,0.0,0.0,0.0,0.0,0.0,0.0,0.0,0.0,0.0,0.0,0.0,-0.5132,-0.5117,-0.5152,-0.5117,-0.5113,0.0,0.0,0.0,0.0,0.0,0.0,0.0,0.0,0.0,0.0,0.0,0.0,0.0,0.0,0.0,0.0,0.0,0.0,0.0,0.0,0.0,0.0,0.0,0.0,0.0,0.0,0.0,0.0,0.0,0.0,0.0,0.0,0.0,0.0,0.0,0.0,0.0,0.0,0.0,0.0,0.0,0.0,0.0,0.0,0.0,0.0,0.0,0.0,0.0,0.0,0.0,0.0,0.0,0.0,0.0,0.0,0.0,0.0,0.0,0.0,0.0,0.0,0.0,0.0,0.0,0.0,0.0,0.0,0.0,0.0,0.0,0.0,0.0,0.0,0.0,0.0,0.0,0.0,0.0,0.0,0.0,0.0,0.0,0.0,0.0,0.0,0.0,0.0,0.0,0.0,0.0,0.0,0.0,0.0,0.0,0.0,0.0,0.0,0.0,0.0,0.0,0.0,0.0,0.0,0.0,0.0,0.0,0.0,0.0,-0.5851,-0.6413,-0.6713,-0.6772,-0.6772,-0.6504,0.0,0.0,0.0,0.0,0.0,0.0,0.0,0.0,0.0,0.0,0.0,0.0,0.0,0.0,0.0,0.0,0.0,0.0,0.0,0.0,0.0,0.0,0.0,0.0,0.0,0.0,0.0,0.0,0.0,0.0,0.0,0.0,0.0,0.0,0.0,0.0,0.0,0.0,0.0,0.0,0.0,0.0,0.0,0.0,0.0,0.0,0.0,0.0,0.0,0.0,0.0,0.0,0.0,0.0,0.0,0.0,0.0,0.0,0.0,0.0,0.0,0.0,0.0,0.0,0.0,0.0,0.0,0.0,0.0,0.0,0.0,0.0,0.0,0.0,0.0,0.0,0.0,0.0,0.0,0.0,0.0,0.0,0.0,0.0,0.0,0.0,0.0,0.0,0.0,0.0,0.0,0.0,0.0,0.0,0.0,0.0,0.0,0.0,0.0,0.0,0.0,0.0,0.0,0.0,0.0,0.0,0.0,0.0,0.0,-0.6674,0.0,-0.7627,0.0,-0.7699,-0.7419,0.0,0.0,0.0,0.0,0.0,0.0,0.0,0.0,0.0,0.0,0.0,0.0,0.0,0.0,0.0,0.0,0.0,0.0,0.0,0.0,0.0,0.0,0.0,0.0,0.0,0.0,0.0,0.0,0.0,0.0,0.0,0.0,0.0,0.0,0.0,0.0,0.0,0.0,0.0,0.0,0.0,0.0,0.0,0.0,0.0,0.0,0.0,0.0,0.0,0.0,0.0,0.0,0.0,0.0,0.0,0.0,0.0,0.0,0.0,0.0,0.0,0.0,0.0,0.0,0.0,0.0,0.0,0.0,0.0,0.0,0.0,0.0,0.0,0.0,0.0,0.0,0.0,0.0,0.0,0.0,0.0,0.0,0.0,0.0,0.0,0.0,0.0,0.0,0.0,0.0,0.0,0.0,0.0,0.0,0.0,0.0,0.0,0.0,0.0,0.0,0.0,0.0,0.0,0.0,0.0,0.0,0.0,0.0,-0.6688,-0.7503,-0.7661,-0.7877,-0.7758,-0.7864,-0.7785,0.0,0.0,0.0,0.0,0.0,0.0,0.0,0.0,0.0,0.0,0.0,0.0,0.0,0.0,0.0,0.0,0.0,0.0,0.0,0.0,0.0,0.0,0.0,0.0,0.0,0.0,0.0,0.0,0.0,0.0,0.0,0.0,0.0,0.0,0.0,0.0,0.0,0.0,0.0,0.0,0.0,0.0,0.0,0.0,0.0,0.0,0.0,0.0,0.0,0.0,0.0,0.0,0.0,0.0,0.0,0.0,0.0,0.0,0.0,0.0,0.0,0.0,0.0,0.0,0.0,0.0,0.0,0.0,0.0,0.0,0.0,0.0,0.0,0.0,0.0,0.0,0.0,0.0,0.0,0.0,0.0,0.0,0.0,0.0,0.0,0.0,0.0,0.0,0.0,0.0,0.0,0.0,0.0,0.0,0.0,0.0,0.0,0.0,0.0,0.0,0.0,0.0,0.0,0.0,0.0,0.0,0.0,0.0,0.0,-0.9223,-1.0425,-1.1098,-1.1128,-1.0614,-1.0059,0.0,0.0,0.0,0.0,0.0,0.0,0.0,0.0,0.0,0.0,0.0,0.0,0.0,0.0,0.0,0.0,0.0,0.0,0.0,0.0,0.0,0.0,0.0,0.0,0.0,0.0,0.0,0.0,0.0,0.0,0.0,0.0,0.0,0.0,0.0,0.0,0.0,0.0,0.0,0.0,0.0,0.0,0.0,0.0,0.0,0.0,0.0,0.0,0.0,0.0,0.0,0.0,0.0,0.0,0.0,0.0,0.0,0.0,0.0,0.0,0.0,0.0,0.0,0.0,0.0,0.0,0.0,0.0,0.0,0.0,0.0,0.0,0.0,0.0,0.0,0.0,0.0,0.0,0.0,0.0,0.0,0.0,0.0,0.0,0.0,0.0,0.0,0.0,0.0,0.0,0.0,0.0,0.0,0.0,0.0,0.0,0.0,0.0,0.0,0.0,0.0,0.0,0.0,0.0,0.0,0.0,0.0,0.0,0.0,-1.1829,-1.2612,-1.3082,-1.3173,-1.2696,-1.1897,-1.0791,0.0,0.0,0.0,0.0,0.0,0.0,0.0,0.0,0.0,0.0,0.0,0.0,0.0,0.0,0.0,0.0,0.0,0.0,0.0,0.0,0.0,0.0,0.0,0.0,0.0,0.0,0.0,0.0,0.0,0.0,0.0,0.0,0.0,0.0,0.0,0.0,0.0,0.0,0.0,0.0,0.0,0.0,0.0,0.0,0.0,0.0,0.0,0.0,0.0,0.0,0.0,0.0,0.0,0.0,0.0,0.0,0.0,0.0,0.0,0.0,0.0,0.0,0.0,0.0,0.0,0.0,0.0,0.0,0.0,0.0,0.0,0.0,0.0,0.0,0.0,0.0,0.0,0.0,0.0,0.0,0.0,0.0,0.0,0.0,0.0,0.0,0.0,0.0,0.0,0.0,0.0,0.0,0.0,0.0,0.0,0.0,0.0,0.0,0.0,0.0,0.0,0.0,0.0,0.0,0.0,0.0,0.0,0.0,-1.5083,-1.4493,-1.4202,-1.4237,-1.413,-1.3316,0.0,0.0,0.0,0.0,0.0,0.0,0.0,0.0,0.0,0.0,0.0,0.0,0.0,0.0,0.0,0.0,0.0,0.0,0.0,0.0,0.0,0.0,0.0,0.0,0.0,0.0,0.0,0.0,0.0,0.0,0.0,0.0,0.0,0.0,0.0,0.0,0.0,0.0,0.0,0.0,0.0,0.0,0.0,0.0,0.0,0.0,0.0,0.0,0.0,0.0,0.0,0.0,0.0,0.0,0.0,0.0,0.0,0.0,0.0,0.0,0.0,0.0,0.0,0.0,0.0,0.0,0.0,0.0,0.0,0.0,0.0,0.0,0.0,0.0,0.0,0.0,0.0,0.0,0.0,0.0,0.0,0.0,0.0,0.0,0.0,0.0,0.0,0.0,0.0,0.0,0.0,0.0,0.0,0.0,0.0,0.0,0.0,0.0,0.0,0.0,0.0,0.0,0.0,0.0,0.0,0.0,0.0,0.0,0.0,-1.7596,-1.8089,-1.7805,-1.6768,-1.5577,-1.4464,0.0,0.0,0.0,0.0,0.0,0.0,0.0,0.0,0.0,0.0,0.0,0.0,0.0,0.0,0.0,0.0,0.0,0.0,0.0,0.0,0.0,0.0,0.0,0.0,0.0,0.0,0.0,0.0,0.0,0.0,0.0,0.0,0.0,0.0,0.0,0.0,0.0,0.0,0.0,0.0,0.0,0.0,0.0,0.0,0.0,0.0,0.0,0.0,0.0,0.0,0.0,0.0,0.0,0.0,0.0,0.0,0.0,0.0,0.0,0.0,0.0,0.0,0.0,0.0,0.0,0.0,0.0,0.0,0.0,0.0,0.0,0.0,0.0,0.0,0.0,0.0,0.0,0.0,0.0,0.0,0.0,0.0,0.0,0.0,0.0,0.0,0.0,0.0,0.0,0.0,0.0,0.0,0.0,0.0,0.0,0.0,0.0,0.0,0.0,0.0,0.0,0.0,0.0,0.0,0.0,0.0,0.0,0.0,-1.6776,-1.9166,-2.0404,-2.0652,-1.9858,-1.7929,-1.6153,0.0,0.0,0.0,0.0,0.0,0.0,0.0,0.0,0.0,0.0,0.0,0.0,0.0,0.0,0.0,0.0,0.0,0.0,0.0,0.0,0.0,0.0,0.0,0.0,0.0,0.0,0.0,0.0,0.0,0.0,0.0,0.0,0.0,0.0,0.0,0.0,0.0,0.0,0.0,0.0,0.0,0.0,0.0,0.0,0.0,0.0,0.0,0.0,0.0,0.0,0.0,0.0,0.0,0.0,0.0,0.0,0.0,0.0,0.0,0.0,0.0,0.0,0.0,0.0,0.0,0.0,0.0,0.0,0.0,0.0,0.0,0.0,0.0,0.0,0.0,0.0,0.0,0.0,0.0,0.0,0.0,0.0,0.0,0.0,0.0,0.0,0.0,0.0,0.0,0.0,0.0,0.0,0.0,0.0,0.0,0.0,0.0,0.0,0.0,0.0,0.0,0.0,0.0,0.0,0.0,0.0,0.0,0.0,-1.8149,-1.998,-2.1798,-2.2776,-2.2851,-2.0517,-1.8069,0.0,0.0,0.0,0.0,0.0,0.0,0.0,0.0,0.0,0.0,0.0,0.0,0.0,0.0,0.0,0.0,0.0,0.0,0.0,0.0,0.0,0.0,0.0,0.0,0.0,0.0,0.0,0.0,0.0,0.0,0.0,0.0,0.0,0.0,0.0,0.0,0.0,0.0,0.0,0.0,0.0,0.0,0.0,0.0,0.0,0.0,0.0,0.0,0.0,0.0,0.0,0.0,0.0,0.0,0.0,0.0,0.0,0.0,0.0,0.0,0.0,0.0,0.0,0.0,0.0,0.0,0.0,0.0,0.0,0.0,0.0,0.0,0.0,0.0,0.0,0.0,0.0,0.0,0.0,0.0,0.0,0.0,0.0,0.0,0.0,0.0,0.0,0.0,0.0,0.0,0.0,0.0,0.0,0.0,0.0,0.0,0.0,0.0,0.0,0.0,0.0,0.0,0.0,0.0,0.0,0.0,0.0,0.0,-1.8951,-2.0822,-2.2612,-2.3623,-2.3817,-2.137,-1.9177,0.0,0.0,0.0,0.0,0.0,0.0,0.0,0.0,0.0,0.0,0.0,0.0,0.0,0.0,0.0,0.0,0.0,0.0,0.0,0.0,0.0,0.0,0.0,0.0,0.0,0.0,0.0,0.0,0.0,0.0,0.0,0.0,0.0,0.0,0.0,0.0,0.0,0.0,0.0,0.0,0.0,0.0,0.0,0.0,0.0,0.0,0.0,0.0,-0.9718,0.0,0.0,0.0,0.0,0.0,0.0,0.0,0.0,0.0,0.0,0.0,0.0,0.0,0.0,0.0,0.0,0.0,0.0,0.0,0.0,0.0,0.0,0.0,0.0,0.0,0.0,0.0,0.0,0.0,0.0,0.0,0.0,0.0,0.0,0.0,0.0,0.0,0.0,0.0,0.0,0.0,0.0,0.0,0.0,0.0,0.0,0.0,0.0,0.0,0.0,0.0,0.0,0.0,0.0,0.0,0.0,0.0,0.0,0.0,-1.9788,-2.1687,-2.3444,-2.446,-2.4577,-2.26,-2.0508,0.0,0.0,0.0,0.0,0.0,0.0,0.0,0.0,0.0,0.0,0.0,0.0,0.0,0.0,0.0,0.0,0.0,0.0,0.0,0.0,0.0,0.0,0.0,0.0,0.0,0.0,0.0,0.0,0.0,0.0,0.0,0.0,0.0,0.0,0.0,0.0,0.0,0.0,0.0,0.0,0.0,0.0,0.0,0.0,0.0,0.0,0.0,0.0,0.0,0.0,0.0,0.0,0.0,0.0,0.0,0.0,0.0,0.0,0.0,0.0,0.0,0.0,0.0,0.0,0.0,0.0,0.0,0.0,0.0,0.0,0.0,0.0,0.0,0.0,0.0,0.0,0.0,0.0,0.0,0.0,0.0,0.0,0.0,0.0,0.0,0.0,0.0,0.0,0.0,0.0,0.0,0.0,0.0,0.0,0.0,0.0,0.0,0.0,0.0,0.0,0.0,0.0,0.0,0.0,0.0,0.0,0.0,-1.828,-2.055,-2.2363,-2.4099,-2.5094,-2.5264,-2.3662,-2.1706,-1.9333,0.0,0.0,0.0,0.0,0.0,0.0,0.0,0.0,0.0,0.0,0.0,0.0,0.0,0.0,0.0,0.0,0.0,0.0,0.0,0.0,0.0,0.0,0.0,0.0,0.0,0.0,0.0,0.0,0.0,0.0,0.0,0.0,0.0,0.0,0.0,0.0,0.0,0.0,-1.0145,-0.9195,0.0,0.0,0.0,0.0,0.0,0.0,0.0,0.0,-1.332,0.0,0.0,0.0,0.0,0.0,0.0,0.0,0.0,0.0,0.0,0.0,0.0,0.0,0.0,0.0,0.0,0.0,0.0,0.0,0.0,0.0,0.0,0.0,0.0,0.0,0.0,0.0,0.0,0.0,0.0,0.0,0.0,0.0,0.0,0.0,0.0,0.0,0.0,0.0,0.0,0.0,0.0,0.0,0.0,0.0,0.0,0.0,0.0,0.0,0.0,0.0,0.0,0.0,0.0,0.0,0.0,-1.5514,-1.8814,-2.1078,-2.2306,-2.4068,-2.5094,-2.5245,-2.3681,-2.1937,-2.0095,0.0,0.0,0.0,0.0,0.0,0.0,0.0,0.0,0.0,0.0,0.0,0.0,0.0,0.0,0.0,0.0,0.0,0.0,0.0,0.0,0.0,0.0,0.0,0.0,0.0,0.0,0.0,0.0,0.0,0.0,0.0,0.0,0.0,0.0,0.0,0.0,0.0,0.0,0.0,-1.1642,-1.204,0.0,0.0,0.0,0.0,0.0,0.0,0.0,0.0,-1.508,0.0,0.0,0.0,0.0,0.0,0.0,0.0,0.0,0.0,0.0,0.0,0.0,0.0,0.0,0.0,0.0,0.0,0.0,0.0,0.0,0.0,0.0,0.0,0.0,0.0,0.0,0.0,0.0,0.0,0.0,0.0,0.0,0.0,0.0,0.0,0.0,0.0,0.0,0.0,0.0,0.0,0.0,0.0,0.0,0.0,0.0,0.0,0.0,0.0,0.0,0.0,0.0,0.0,0.0,0.0,-1.6729,-1.9286,-2.1351,-2.2885,-2.4213,-2.5011,-2.5259,-2.3667,-2.1999,0.0,0.0,0.0,0.0,0.0,0.0,0.0,0.0,0.0,0.0,0.0,0.0,0.0,0.0,0.0,0.0,0.0,0.0,0.0,0.0,0.0,0.0,0.0,0.0,0.0,0.0,0.0,0.0,0.0,0.0,0.0,0.0,0.0,0.0,0.0,0.0,0.0,0.0,0.0,0.0,-1.2532,-1.3132,-1.4019,0.0,0.0,0.0,0.0,0.0,0.0,-1.6201,-1.7238,0.0,0.0,0.0,0.0,0.0,0.0,0.0,0.0,0.0,0.0,0.0,0.0,0.0,0.0,0.0,0.0,0.0,0.0,0.0,0.0,0.0,0.0,0.0,0.0,0.0,0.0,0.0,0.0,0.0,0.0,0.0,0.0,0.0,0.0,0.0,0.0,0.0,0.0,0.0,0.0,0.0,0.0,0.0,0.0,0.0,0.0,0.0,0.0,0.0,0.0,0.0,0.0,0.0,0.0,0.0,-1.7856,-1.978,-2.1641,-2.3431,-2.4351,-2.4968,-2.5259,-2.3663,-2.201,0.0,0.0,0.0,0.0,0.0,0.0,0.0,0.0,0.0,0.0,0.0,0.0,0.0,0.0,0.0,0.0,0.0,0.0,0.0,0.0,0.0,0.0,0.0,0.0,0.0,0.0,0.0,0.0,0.0,0.0,0.0,0.0,0.0,0.0,0.0,0.0,0.0,0.0,0.0,0.0,0.0,-1.3945,-1.5649,-1.7295,0.0,0.0,0.0,0.0,-1.5804,-1.8339,0.0,0.0,0.0,0.0,0.0,0.0,0.0,0.0,0.0,0.0,0.0,0.0,0.0,0.0,0.0,0.0,0.0,0.0,0.0,0.0,0.0,0.0,0.0,0.0,0.0,0.0,0.0,0.0,0.0,0.0,0.0,0.0,0.0,0.0,0.0,0.0,0.0,0.0,0.0,0.0,0.0,0.0,0.0,0.0,0.0,0.0,0.0,0.0,0.0,0.0,0.0,0.0,0.0,0.0,0.0,0.0,-1.7959,-2.0355,-2.2208,-2.3469,-2.4351,-2.4968,-2.5259,-2.3676,-2.2018,0.0,0.0,0.0,0.0,0.0,0.0,0.0,0.0,0.0,0.0,0.0,0.0,0.0,0.0,0.0,0.0,0.0,0.0,0.0,0.0,0.0,0.0,0.0,0.0,0.0,0.0,0.0,0.0,0.0,0.0,0.0,0.0,0.0,0.0,0.0,0.0,0.0,0.0,0.0,0.0,0.0,-1.5683,-1.729,-1.8863,-1.986,0.0,0.0,-1.7517,-1.7506,-1.9084,0.0,0.0,0.0,0.0,0.0,0.0,0.0,0.0,0.0,0.0,0.0,0.0,0.0,0.0,0.0,0.0,0.0,0.0,0.0,0.0,0.0,0.0,0.0,0.0,0.0,0.0,0.0,0.0,0.0,0.0,0.0,0.0,0.0,0.0,0.0,0.0,0.0,0.0,0.0,0.0,0.0,0.0,0.0,0.0,0.0,0.0,0.0,0.0,0.0,0.0,0.0,0.0,0.0,0.0,0.0,-1.5696,-1.8638,-2.0718,-2.2518,-2.4016,-2.4557,-2.4903,-2.5111,-2.3631,-2.2025,0.0,0.0,0.0,0.0,0.0,0.0,0.0,0.0,0.0,0.0,0.0,0.0,0.0,0.0,0.0,0.0,0.0,0.0,0.0,0.0,0.0,0.0,0.0,0.0,0.0,0.0,0.0,0.0,0.0,0.0,0.0,0.0,0.0,0.0,0.0,0.0,0.0,0.0,0.0,0.0,0.0,0.0,-1.8988,-2.0521,0.0,0.0,0.0,-1.9495,-2.0484,0.0,0.0,0.0,0.0,0.0,0.0,0.0,0.0,0.0,0.0,0.0,0.0,0.0,0.0,0.0,0.0,0.0,0.0,0.0,0.0,0.0,0.0,0.0,0.0,0.0,0.0,0.0,0.0,0.0,0.0,0.0,0.0,0.0,0.0,0.0,0.0,0.0,0.0,0.0,0.0,0.0,0.0,0.0,0.0,0.0,0.0,0.0,0.0,0.0,0.0,0.0,0.0,0.0,0.0,0.0,0.0,0.0,-1.9164,-2.0908,-2.2669,-2.442,-2.4647,-2.4802,-2.496,-2.3518,0.0,0.0,0.0,0.0,0.0,0.0,0.0,0.0,0.0,0.0,0.0,0.0,0.0,0.0,0.0,0.0,0.0,0.0,0.0,0.0,0.0,0.0,0.0,0.0,0.0,0.0,0.0,-0.5769,0.0,0.0,0.0,0.0,0.0,0.0,0.0,0.0,0.0,0.0,0.0,0.0,0.0,0.0,-1.8509,-2.0629,-2.207,-2.2914,0.0,0.0,-2.1168,-2.2425,-2.3973,-2.4314,0.0,0.0,0.0,0.0,0.0,0.0,0.0,0.0,0.0,0.0,0.0,0.0,0.0,0.0,0.0,0.0,0.0,0.0,0.0,0.0,0.0,0.0,0.0,0.0,0.0,0.0,0.0,0.0,0.0,0.0,0.0,0.0,0.0,0.0,0.0,0.0,0.0,0.0,0.0,0.0,0.0,0.0,0.0,0.0,0.0,0.0,0.0,0.0,0.0,0.0,0.0,0.0,0.0,0.0,0.0,-1.9151,-2.0908,-2.2688,-2.442,-2.452,-2.4682,-2.4973,-2.3391,-2.1779,0.0,0.0,0.0,0.0,0.0,0.0,0.0,0.0,0.0,0.0,0.0,0.0,0.0,0.0,0.0,0.0,0.0,0.0,0.0,0.0,0.0,0.0,0.0,0.0,0.0,0.0,0.0,0.0,0.0,0.0,0.0,0.0,0.0,0.0,0.0,0.0,0.0,0.0,0.0,0.0,0.0,-1.8826,-2.2177,-2.3467,-2.4118,0.0,-2.3052,-2.216,-2.214,-2.3353,-2.3224,-2.0219,0.0,0.0,0.0,0.0,0.0,0.0,0.0,0.0,0.0,0.0,0.0,0.0,0.0,0.0,0.0,0.0,0.0,0.0,0.0,0.0,0.0,0.0,0.0,0.0,0.0,0.0,0.0,0.0,0.0,0.0,0.0,0.0,0.0,0.0,0.0,0.0,0.0,0.0,0.0,0.0,0.0,0.0,0.0,0.0,0.0,0.0,0.0,0.0,0.0,0.0,0.0,0.0,0.0,-1.6726,-1.9188,-2.0908,-2.2609,-2.4229,-2.4426,-2.4567,-2.4685,-2.3201,-2.1862,0.0,0.0,0.0,0.0,0.0,0.0,0.0,0.0,0.0,0.0,0.0,0.0,0.0,0.0,0.0,0.0,0.0,0.0,0.0,0.0,0.0,0.0,0.0,0.0,0.0,0.0,0.0,0.0,-0.8156,-0.8713,-0.9172,0.0,0.0,0.0,0.0,0.0,0.0,0.0,0.0,0.0,0.0,-1.8657,-2.1916,-2.3411,0.0,0.0,-2.3905,-2.3582,-2.352,-2.3896,-2.3777,-2.2601,-2.0828,0.0,0.0,0.0,0.0,0.0,0.0,0.0,0.0,0.0,0.0,0.0,0.0,0.0,0.0,0.0,0.0,0.0,0.0,0.0,0.0,0.0,0.0,0.0,0.0,0.0,0.0,0.0,0.0,0.0,0.0,0.0,0.0,0.0,0.0,0.0,0.0,0.0,0.0,0.0,0.0,0.0,0.0,0.0,0.0,0.0,0.0,0.0,0.0,0.0,0.0,0.0,0.0,-1.7104,-1.9527,-2.1044,-2.2584,-2.4171,-2.433,-2.4445,-2.4466,-2.324,-2.2082,0.0,0.0,0.0,0.0,0.0,0.0,0.0,0.0,0.0,0.0,0.0,0.0,0.0,0.0,0.0,0.0,0.0,0.0,0.0,0.0,0.0,0.0,0.0,0.0,0.0,0.0,0.0,0.0,-0.8672,-0.9088,-0.9838,0.0,0.0,0.0,0.0,0.0,0.0,0.0,0.0,0.0,0.0,-1.9556,-2.1775,-2.3287,-2.4199,-2.4199,-2.4284,-2.4338,-2.4347,-2.4266,-2.4199,-2.4199,0.0,0.0,0.0,0.0,0.0,0.0,0.0,0.0,0.0,0.0,0.0,0.0,0.0,0.0,0.0,0.0,0.0,0.0,0.0,0.0,0.0,0.0,0.0,0.0,0.0,0.0,0.0,-0.6457,0.0,0.0,-0.7145,0.0,0.0,0.0,0.0,0.0,0.0,0.0,0.0,0.0,0.0,0.0,0.0,0.0,0.0,0.0,0.0,0.0,0.0,0.0,0.0,0.0,0.0,-1.7971,-2.0348,-2.1329,-2.2584,-2.4144,-2.4199,-2.4303,-2.4468,-2.3632,-2.2469,-2.1009,0.0,0.0,0.0,0.0,0.0,0.0,0.0,0.0,0.0,0.0,0.0,0.0,0.0,0.0,0.0,0.0,0.0,0.0,0.0,0.0,0.0,0.0,0.0,0.0,0.0,0.0,-0.8515,-0.9058,-0.9798,0.0,0.0,0.0,0.0,0.0,0.0,0.0,0.0,0.0,-2.1831,-2.1789,-2.1834,-2.2017,-2.3279,-2.4199,-2.4199,-2.4199,-2.4209,-2.4209,-2.4199,-2.4199,0.0,0.0,0.0,0.0,0.0,0.0,0.0,0.0,0.0,0.0,0.0,0.0,0.0,0.0,0.0,0.0,0.0,0.0,0.0,0.0,0.0,0.0,0.0,0.0,0.0,0.0,0.0,-0.8563,-0.8849,0.0,0.0,0.0,0.0,0.0,0.0,0.0,0.0,0.0,0.0,0.0,-1.5707,-1.5872,0.0,0.0,0.0,0.0,0.0,0.0,0.0,0.0,0.0,0.0,0.0,0.0,-1.9073,-2.0445,-2.1869,-2.3125,-2.4163,-2.4199,-2.4228,-2.4294,-2.3501,-2.2087,-1.9984,0.0,0.0,0.0,0.0,0.0,0.0,0.0,0.0,0.0,0.0,0.0,0.0,0.0,0.0,0.0,0.0,0.0,0.0,0.0,0.0,0.0,0.0,0.0,0.0,0.0,-0.956,0.0,0.0,0.0,0.0,0.0,0.0,0.0,0.0,0.0,0.0,0.0,-2.2008,-2.3114,-2.2437,-2.2223,-2.3317,-2.3888,-2.4199,0.0,0.0,0.0,0.0,0.0,0.0,0.0,0.0,0.0,0.0,0.0,0.0,0.0,0.0,-1.9979,-1.6836,-1.7082,-1.7755,-1.7755,0.0,0.0,0.0,0.0,0.0,0.0,0.0,0.0,0.0,0.0,0.0,0.0,0.0,0.0,-1.0794,-1.1136,-1.1339,0.0,0.0,0.0,0.0,0.0,0.0,0.0,0.0,-1.7418,-1.8063,-1.8156,-1.8311,-1.854,-1.8841,-1.8653,-1.7256,0.0,0.0,0.0,0.0,0.0,0.0,0.0,0.0,-1.991,-2.1312,-2.2419,-2.3373,-2.4163,-2.4199,-2.4199,-2.4171,-2.3428,-2.2125,-2.0281,-1.822,-1.659,0.0,0.0,0.0,0.0,0.0,0.0,0.0,0.0,0.0,0.0,0.0,0.0,0.0,0.0,0.0,0.0,0.0,0.0,0.0,0.0,0.0,0.0,0.0,-1.0072,0.0,0.0,0.0,0.0,0.0,0.0,0.0,0.0,0.0,-2.0733,-2.1532,-2.2457,-2.3718,-2.313,-2.2951,-2.3995,0.0,0.0,0.0,0.0,0.0,0.0,0.0,-2.4094,-2.4198,-2.4667,-2.485,-2.43,-2.2518,-2.1633,-2.3189,0.0,0.0,-1.9258,-1.9467,-2.0344,-2.0894,-2.1877,-2.262,-2.262,-2.1335,-1.9866,0.0,0.0,0.0,0.0,-1.1926,0.0,0.0,0.0,-1.2633,-1.2887,0.0,-1.3607,0.0,0.0,0.0,0.0,-1.531,-1.6458,0.0,0.0,-1.9834,-2.0645,-2.0827,-2.0323,-2.0462,-2.1156,-2.0437,-1.9891,-1.9454,-1.8056,0.0,0.0,0.0,0.0,0.0,0.0,-2.0491,-2.2777,-2.2988,-2.341,-2.4171,-2.4199,-2.4199,-2.4171,-2.3419,-2.263,-2.1831,-2.0239,-1.8665,-1.7034,-1.5489,0.0,0.0,0.0,0.0,0.0,0.0,0.0,0.0,0.0,0.0,0.0,0.0,0.0,0.0,0.0,0.0,0.0,0.0,0.0,0.0,-1.029,0.0,0.0,0.0,0.0,0.0,0.0,0.0,0.0,0.0,0.0,-2.358,-2.3452,-2.3184,-2.3712,0.0,0.0,0.0,0.0,-2.4313,-2.5751,-2.5049,-2.4315,-2.4105,-2.4021,-2.4104,-2.4353,0.0,0.0,-2.4557,-2.4281,-2.473,-2.6313,-2.6562,-2.5676,-2.2537,-2.1894,-2.2345,-2.374,-2.4052,-2.4181,-2.408,-2.2877,-2.1849,-1.6642,0.0,0.0,0.0,0.0,-1.4439,-1.4612,-1.5127,-1.5146,-1.5293,-1.559,-1.6082,0.0,0.0,0.0,0.0,0.0,0.0,-1.8489,-1.9217,-2.0366,-2.1104,-2.1389,-2.1569,-2.1772,-2.1972,-2.1755,-2.1528,-2.1268,-2.0861,-1.9852,-1.8389,0.0,0.0,0.0,0.0,-2.2209,-2.296,-2.3556,-2.3951,-2.4199,-2.4199,-2.4199,-2.4199,-2.341,-2.2896,-2.2648,-2.1051,-1.9701,-1.8636,-1.7082,0.0,0.0,0.0,0.0,0.0,0.0,0.0,0.0,0.0,0.0,0.0,0.0,0.0,0.0,0.0,0.0,0.0,0.0,0.0,-1.1132,-1.0922,-1.1286,0.0,0.0,0.0,0.0,0.0,0.0,0.0,0.0,0.0,-2.3294,-2.4432,-2.5102,0.0,0.0,-2.3831,-2.3986,-2.3886,-2.4197,-2.5335,-2.6376,0.0,-2.5588,-2.6266,-2.709,-2.7544,-2.8014,-2.7776,-2.619,-2.5915,-2.6261,-2.7325,-2.7949,-2.7629,-2.5666,-2.4263,-2.3777,-2.4116,-2.4199,-2.4199,-2.4153,-2.3795,-2.3502,-1.9491,-1.8397,-1.7699,-1.7394,-1.7365,-1.7087,-1.7269,-1.7746,-1.7746,-1.7747,-1.7763,-1.8193,-1.801,-1.7343,-1.7459,0.0,0.0,0.0,-1.9917,-2.0885,-2.1564,-2.2199,-2.2731,-2.2736,-2.2733,-2.2733,-2.2446,-2.2295,-2.2276,-2.2276,-2.1823,-2.0943,0.0,-2.1104,-2.1477,-2.241,-2.3088,-2.3474,-2.3951,-2.4199,-2.4199,-2.4199,-2.4199,-2.4199,-2.3731,-2.3465,-2.3456,-2.2063,-2.1141,-2.0768,-1.8915,-1.7128,0.0,0.0,0.0,0.0,0.0,0.0,0.0,0.0,0.0,0.0,0.0,-1.1908,-1.2332,0.0,0.0,0.0,-1.085,-1.1547,-1.2669,-1.2574,0.0,0.0,0.0,0.0,0.0,0.0,0.0,-1.77,-2.0773,-2.3415,-2.4599,-2.5638,-2.6269,-2.6244,-2.5202,-2.4491,-2.4629,0.0,-2.5572,-2.6235,-2.7058,-2.737,-2.6698,-2.7162,-2.7915,-2.8858,-2.8743,-2.8427,-2.7743,-2.7328,-2.7324,-2.7798,-2.8255,-2.8342,-2.7676,-2.673,-2.6098,-2.608,-2.5566,-2.5162,-2.5144,-2.5162,-2.4997,-2.1454,-2.1734,-2.0191,-1.9594,-1.9666,-1.964,-1.9802,-2.0159,-2.0123,-2.0,-1.9717,-1.9938,-1.9498,-1.8584,-1.8694,0.0,-2.0686,-2.0744,-2.1565,-2.3101,-2.3154,-2.3636,-2.4441,-2.3797,-2.3477,-2.3477,-2.2801,-2.2624,-2.289,-2.2816,-2.3121,-2.3696,-2.2543,-2.2301,-2.295,-2.2996,-2.34,-2.4162,-2.4208,-2.4208,-2.4199,-2.4199,-2.4199,-2.4199,-2.4199,-2.419,-2.4171,-2.3196,-2.2722,-2.2832,-2.0849,-1.8889,-1.7109,0.0,0.0,0.0,0.0,0.0,0.0,0.0,0.0,0.0,0.0,0.0,0.0,0.0,0.0,0.0,-1.3176,0.0,-1.454,-1.4995,0.0,0.0,0.0,-1.7766,-1.9241,-2.0428,-2.0977,-2.0598,0.0,0.0,-2.6888,-2.6924,-2.6808,-2.7117,-2.633,-2.5716,-2.5729,-2.6732,-2.7669,-2.7634,-2.7161,-2.6891,-2.7217,-2.7192,-2.7512,-2.8596,-2.8352,-2.817,-2.8628,-2.8422,-2.802,-2.802,-2.7996,-2.8143,-2.8803,-2.8734,-2.8987,-2.8822,-2.7758,-2.6785,-2.6796,-2.6602,-2.6062,-2.3501,-2.3155,-2.3263,-2.2494,-2.1163,-2.0735,-2.0637,-2.0704,-2.0704,-2.0674,-2.0612,-2.1068,-2.1139,-2.0895,-2.0934,-2.1117,-2.1455,-2.1801,-2.2368,-2.3103,-2.3517,-2.3983,-2.4458,-2.4321,-2.4254,-2.422,-2.4068,-2.4142,-2.442,-2.388,-2.3845,-2.4284,-2.41,-2.3937,-2.3819,-2.3811,-2.393,-2.4113,-2.4113,-2.4151,-2.419,-2.4199,-2.4199,-2.4199,-2.4199,-2.4199,-2.4199,-2.3948,-2.3271,-2.2171,-2.2694,-2.1571,-1.8342,-1.5268,0.0,0.0,0.0,0.0,0.0,0.0,0.0,0.0,0.0,-1.5013,-1.5564,0.0,-1.6461,0.0,-1.5688,-1.7484,-1.8611,-1.7423,0.0,0.0,-1.8259,-1.8957,-2.1665,-2.2044,-2.2453,-2.3514,-2.4868,-2.6027,-2.674,-2.6758,-2.6725,-2.6825,-2.6795,-2.6757,-2.6818,-2.6842,-2.6939,-2.6988,-2.6858,-2.6741,-2.6939,-2.7805,-2.8303,-2.817,-2.7996,-2.7968,-2.8134,-2.8495,-2.8743,-2.8743,-2.8743,-2.8596,-2.8255,-2.8601,-2.8964,-2.8987,-2.8675,-2.8436,-2.8418,-2.7482,-2.6492,-2.4814,-2.4522,-2.4874,-2.441,-2.3364,-2.2477,-2.2085,-2.2106,-2.2106,-2.1959,-2.1695,-2.1694,-2.1879,-2.2149,-2.2149,-2.2298,-2.2574,-2.2793,-2.3316,-2.4031,-2.4337,-2.4827,-2.5455,-2.5135,-2.4982,-2.4966,-2.466,-2.4581,-2.4758,-2.4362,-2.4351,-2.4725,-2.4795,-2.4842,-2.4886,-2.4634,-2.4309,-2.3927,-2.3986,-2.4006,-2.3968,-2.4113,-2.4162,-2.4142,-2.4113,-2.4094,-2.4074,-2.3933,-2.3456,-2.2709,-2.2674,-2.1782,-1.9743,-1.6947,-1.539,0.0,0.0,0.0,0.0,0.0,0.0,0.0,0.0,0.0,0.0,0.0,-1.825,-1.6181,-1.839,-2.0556,-2.1983,-2.0474,-1.9934,-2.1286,-2.0601,-2.1054,-2.3602,-2.3738,-2.3903,-2.4532,-2.5843,-2.6708,-2.6725,-2.7635,-2.8308,-2.8308,-2.8421,-2.8131,-2.7174,-2.6791,-2.6708,-2.6708,-2.6708,-2.6708,-2.6708,-2.7407,-2.7848,-2.747,-2.7363,-2.747,-2.784,-2.8215,-2.8507,-2.8507,-2.8507,-2.8525,-2.8417,-2.8706,-2.8994,-2.8987,-2.8987,-2.8987,-2.8987,-2.8308,-2.7666,-2.5674,-2.5591,-2.5704,-2.5689,-2.5525,-2.4343,-2.3849,-2.3849,-2.3849,-2.355,-2.3047,-2.2478,-2.2517,-2.3062,-2.3062,-2.3295,-2.3729,-2.3801,-2.4317,-2.5182,-2.5278,-2.5801,-2.6657,-2.6048,-2.5744,-2.571,-2.5083,-2.4778,-2.4778,-2.4677,-2.4795,-2.5103,-2.5118,-2.5341,-2.5754,-2.5368,-2.4719,-2.3829,-2.3828,-2.3785,-2.3671,-2.3976,-2.4094,-2.4026,-2.3986,-2.3917,-2.3847,-2.3569,-2.3437,-2.3451,-2.2014,-2.1033,-2.0698,-1.8864,-1.7884,0.0,-1.6917,0.0,0.0,0.0,0.0,0.0,0.0,0.0,0.0,-1.8953,-1.9003,-1.8752,-2.0905,-2.2902,-2.4388,-2.3507,-2.313,-2.373,-2.3192,-2.3426,-2.507,-2.5525,-2.5454,-2.4843,-2.5912,-2.6708,-2.6775,-2.8699,-3.0156,-3.0397,-3.0076,-2.9278,-2.7652,-2.6978,-2.6776,-2.6894,-2.6826,-2.6708,-2.6708,-2.6725,-2.6876,-2.6962,-2.6894,-2.6955,-2.7607,-2.7722,-2.7783,-2.7915,-2.8198,-2.8419,-2.8828,-2.8815,-2.881,-2.862,-2.857,-2.867,-2.8929,-2.8932,-2.8987,-2.6093,-2.5674,-2.6183,-2.6108,-2.5585,-2.533,-2.5226,-2.5226,-2.5241,-2.5166,-2.5046,-2.4926,-2.4926,-2.5061,-2.5046,-2.4799,-2.4433,-2.4865,-2.5118,-2.5205,-2.5652,-2.6139,-2.6674,-2.6556,-2.6488,-2.6471,-2.6352,-2.6285,-2.6251,-2.5693,-2.5484,-2.5639,-2.5747,-2.5604,-2.5216,0.0,0.0,0.0,-2.3777,-2.3471,-2.3459,-2.361,-2.3703,-2.3692,-2.3682,0.0,-2.366,-2.3551,-2.3202,-2.2622,-2.2884,0.0,0.0,0.0,0.0,0.0,0.0,0.0,0.0,0.0,0.0,0.0,-2.0445,-2.0604,-2.0102,-2.0102,-2.0504,-2.144,-2.2003,-2.2902,-2.4354,-2.5013,-2.5272,-2.5121,-2.4528,-2.4722,-2.6205,-2.7476,-2.7786,-2.6465,-2.6539,-2.6725,-2.7012,-2.8185,-2.9989,-3.1608,-3.0455,-2.9454,-2.9628,-2.7973,-2.7233,-2.8197,-2.7622,-2.6776,-2.6708,-2.6826,-2.7419,-2.8028,-2.7436,-2.6911,-2.694,-2.6971,-2.7225,-2.78,-2.8968,-2.9387,-2.836,-2.8106,-2.8049,-2.7301,-2.7208,-2.7512,-2.8725,-2.8987,-2.8987,-2.6911,-2.6641,-2.6956,-2.6911,0.0,-2.6587,-2.6572,-2.6551,-2.5884,-2.56,-2.56,-2.56,-2.5763,-2.6039,-2.6054,-2.6036,-2.5988,-2.6251,-2.6497,-2.6675,-2.6578,-2.7011,-2.7808,-2.7063,-2.6894,-2.7198,-2.6894,-2.6708,-2.6674,-2.6319,-2.6166,-2.6247,-2.6312,-2.6266,-2.6132,-2.6209,-2.5533,-2.4126,-2.3872,-2.3529,-2.3087,-2.3288,-2.338,-2.3357,-2.337,0.0,0.0,0.0,0.0,0.0,0.0,0.0,0.0,0.0,0.0,-2.1401,-2.1293,-2.0743,-1.9888,-2.0025,-2.0301,-2.0675,-2.1389,-2.1714,-2.1434,-2.1366,-2.1598,-2.226,-2.3581,-2.4763,-2.5489,-2.6049,-2.6359,-2.6379,-2.6275,-2.6702,-2.7954,-2.9017,-2.9148,-2.8056,-2.7497,-2.7927,-2.9981,-3.0827,-3.1563,-3.234,-3.1911,-3.1298,-3.116,-2.9349,-2.8418,-2.9771,-2.8807,-2.8147,-2.8755,-2.8924,-2.9096,-2.9788,-2.945,-2.8349,-2.6928,-2.6708,-2.7067,-2.8227,-2.9415,-2.9578,-2.7877,-2.8213,-2.8829,-2.8074,-2.783,-2.8029,-2.8863,-2.8987,-2.8987,-2.7585,-2.7585,-2.7585,-2.7585,-2.76,-2.771,-2.7835,-2.7843,-2.6639,0.0,0.0,-2.6281,-2.6566,-2.7029,-2.7014,-2.7219,-2.7559,-2.758,-2.7802,-2.816,-2.7583,-2.7894,-2.8907,-2.7689,-2.7334,-2.7756,-2.7182,-2.681,-2.6708,-2.6708,-2.6708,-2.6708,-2.6708,-2.6857,-2.7126,-2.659,-2.5547,-2.4127,-2.4144,-2.3792,-2.2898,-2.3145,-2.3216,-2.3026,-2.3012,-2.2998,-2.294,-2.2893,-2.2829,-2.2777,-2.2919,-2.2944,-2.2742,-2.014,-1.9909,-2.272,-2.2673,-2.1983,-2.098,-2.1199,-2.1393,-2.1393,-2.2194,-2.2607,-2.2491,-2.2366,-2.2533,-2.3023,-2.5287,-2.6741,-2.689,-2.6758,-2.6941,-2.7521,-2.7879,-2.851,-2.9561,-3.0471,-3.0556,-2.9414,-2.8684,-2.9493,-3.2556,-3.3395,-3.3546,-3.2965,-3.2921,-3.3266,-3.2472,-3.1042,-3.0404,-3.1357,-3.0559,-3.0121,-3.1245,-3.1596,-3.1618,-3.1372,-3.1247,-3.026,-2.8247,-2.7283,-2.7726,-2.9205,-3.0006,-2.9534,-2.7873,-2.909,-3.0255,-2.9565,-2.9655,-2.9831,-2.9812,-2.9372,-2.9023,-2.7585,-2.7585,-2.7585,-2.7585,-2.765,-2.8165,-2.8662,-2.9057,-2.8389,-2.8366,-2.8856,-2.8871,-2.8901,-2.8991,-2.9007,-2.8706,-2.826,-2.8244,-2.8248,-2.8213,-2.8114,-2.8379,-2.8975,-2.8773,-2.8366,-2.7824,-2.7705,-2.73,-2.6759,-2.6708,-2.6708,-2.6708,-2.6708,-2.6725,-2.6774,-2.669,-2.6198,-2.5352,-2.4861,-2.4235,-2.3497,-2.3629,-2.34,-2.2795,-2.276,-2.2734,-2.2751,-2.2689,-2.2632,-2.2619,-2.2548,-2.2508,-2.2521,-2.1936,-2.1912,-2.2392,-2.2837,-2.2854,-2.2426,-2.2245,-2.2127,-2.2203,-2.3354,-2.3615,-2.2445,-2.231,-2.3342,-2.5744,-2.6487,-2.7004,-2.756,-2.7214,-2.741,-2.8551,-2.8801,-2.9194,-3.0104,-3.197,-3.2419,-3.0492,-2.994,-3.0147,-3.1638,-3.2963,-3.378,-3.349,-3.2885,-3.223,-3.2531,-3.2895,-3.3164,-3.3274,-3.263,-3.2481,-3.2816,-3.3372,-3.2885,-3.24,-3.1694,-3.1118,-3.0362,-2.9347,-2.9222,-3.0583,-3.1462,-3.1148,-2.9278,-3.0585,-3.1495,-3.1096,-3.1861,-3.2776,-3.2687,-3.084,-2.9078,-2.7585,-2.7585,-2.7585,-2.7785,-2.8116,-2.8367,-2.885,-2.9361,-2.9111,-2.9134,-2.9384,-2.9406,-2.9601,-2.987,-2.9892,-2.9922,-2.9922,-2.9906,-2.9882,-2.98,-2.9432,-2.958,-3.0074,-2.9399,-2.9008,-2.9007,-2.8636,-2.8061,-2.735,-2.73,-2.7097,-2.6725,-2.6708,-2.6708,-2.6708,-2.6708,-2.6539,-2.6184,-2.5537,-2.4839,-2.4105,-2.3755,-2.3426,-2.3084,-2.2726,-2.2487,-2.2474,-2.246,-2.2449,-2.2432,-2.236,-2.2363,-2.2377,-2.2338,-2.2313,-2.231,-2.2561,-2.2781,-2.2972,-2.3253,-2.3419,-2.3467,-2.4443,-2.4802,-2.416,-2.3736,-2.4389,-2.6504,-2.7422,-2.8455,-2.9651,-2.9464,-2.9465,-2.9959,-2.9438,-2.9704,-3.1307,-3.2803,-3.3355,-3.2385,-3.2141,-3.2232,-3.2556,-3.3314,-3.3807,-3.3707,-3.2838,-3.2298,-3.2501,-3.324,-3.3807,-3.3753,-3.309,-3.2466,-3.2466,-3.2383,-3.2383,-3.2434,-3.2196,-3.1731,-3.1351,-3.0516,-3.0567,-3.1104,-3.2247,-3.2701,-3.1603,-3.1977,-3.244,-3.2822,-3.3133,-3.378,-3.344,-3.1243,-2.9207,-2.772,-2.76,-2.7936,-2.848,-2.9162,-2.9171,-2.9497,-3.0052,-3.0069,-3.0032,-3.0054,-2.9886,-3.0064,-3.0477,-3.0497,-3.076,-3.1151,-3.119,-3.119,-3.114,-3.0615,-3.0649,-3.1038,-3.0008,-2.9702,-3.0023,-2.9499,-2.8839,-2.8128,-2.7908,-2.7418,-2.6776,-2.6708,-2.6708,-2.6708,-2.6708,-2.6708,-2.6657,-2.6133,-2.549,-2.4762,-2.4203,-2.3816,-2.3613,-2.3105,-2.2801,-2.2801,-2.2801,-2.2733,-2.2564,-2.255,-2.2465,-2.2313,-2.2313,-2.2366,-2.2501,-2.2846,-2.3257,-2.3731,-2.445,-2.4825,-2.469,-2.5563,-2.5963,-2.5638,-2.5579,-2.5957,-2.7152,-2.829,-2.9605,-3.1011,-3.1708,-3.1733,-3.1209,-3.0055,-3.0284,-3.2351,-3.3368,-3.3807,-3.3807,-3.3807,-3.3757,-3.3807,-3.3807,-3.3766,-3.3564,-3.3133,-3.2777,-3.2647,-3.324,-3.3766,-3.3662,-3.3211,-3.2713,-3.1896,-3.1897,-3.2213,-3.2711,-3.2791,-3.2416,-3.1842,-3.1524,-3.164,-3.1932,-3.2854,-3.3529,-3.3698,-3.3277,-3.3118,-3.3504,-3.3734,-3.3807,-3.3697,-3.2082,-2.9812,-2.8169,-2.7821,-2.8882,-3.012,-3.1063,-3.1095,-3.1456,-3.1999,-3.2047,-3.2032,-3.19,-3.1338,-3.1032,-3.1112,-3.1095,-3.1114,-3.119,-3.119,-3.119,-3.119,-3.1123,-3.114,-3.119,-3.1021,-3.0683,-3.0192,-3.0023,-2.96,-2.8874,-2.8179,-2.7452,-2.6776,-2.6708,-2.6708,-2.6708,-2.6708,-2.6708,-2.6708,-2.6623,-2.6234,-2.5558,-2.5456,-2.5084,-2.4406,-2.4321,-2.4305,-2.4203,-2.4288,-2.3983,-2.3359,-2.3306,-2.2987,-2.2398,-2.2296,-2.2548,-2.3163,-2.4479,-2.5321,-2.5392,-2.6005,-2.6116,-2.5676,-2.6777,-2.7035,-2.5956,-2.7423,-2.8585,-2.8749,-2.8863,-2.9702,-3.1256,-3.2651,-3.2976,-3.2057,-3.099,-3.0968,-3.2759,-3.3542,-3.3807,-3.3807,-3.3807,-3.3807,-3.3807,-3.3807,-3.3666,-3.3422,-3.3508,-3.3332,-3.2822,-3.3252,-3.3807,-3.3807,-3.368,-3.362,-3.3386,-3.3518,-3.324,-3.3462,-3.3634,-3.3207,-3.2631,-3.2384,-3.2567,-3.2996,-3.349,-3.378,-3.3807,-3.3707,-3.368,-3.3707,-3.3807,-3.3807,-3.3788,-3.3348,-3.2124,-2.9052,-2.8824,-2.9368,-3.014,-3.1009,-3.1743,-3.2193,-3.2446,-3.242,-3.2622,-3.2895,-3.2628,-3.2019,-3.1207,-3.119,-3.119,-3.119,-3.119,-3.119,-3.119,-3.119,-3.119,-3.119,-3.119,-3.1021,-3.0768,-3.0751,-3.0362,-2.9634,-2.889,-2.8112,-2.7418,-2.7334,-2.7131,-2.6742,-2.6708,-2.6708,-2.6708,-2.6708,-2.6539,-2.6251,-2.5828,-2.5473,-2.5135,-2.4745,-2.4508,-2.4508,-2.4508,-2.446,-2.4405,-2.4431,-2.377,-2.2392,-2.2638,-2.3564,-2.5043,-2.5631,-2.5907,-2.5907,-2.677,-2.7185,-2.6903,-2.7901,-2.8205,-2.7707,-2.8486,-2.8987,-2.8987,-2.9005,-2.9996,-3.2412,-3.3421,-3.3593,-3.309,-3.2637,-3.27,-3.3409,-3.3694,-3.3807,-3.3807,-3.3807,-3.3807,-3.3807,-3.3807,-3.3734,-3.3578,-3.3721,-3.3592,-3.3328,-3.3574,-3.3766,-3.3807,-3.3807,-3.3807,-3.3734,-3.2838,-3.2663,-3.2981,-3.3476,-3.3564,-3.3361,-3.2761,-3.2793,-3.3666,-3.378,-3.3807,-3.3807,-3.3807,-3.3807,-3.3807,-3.3807,-3.3807,-3.3807,-3.3807,-3.3054,-2.9729,-2.9648,-2.978,-3.0462,-3.1498,-3.238,-3.2885,-3.3063,-3.305,-3.3294,-3.3656,-3.3491,-3.2831,-3.1884,-3.1616,-3.1393,-3.1207,-3.119,-3.119,-3.119,-3.119,-3.119,-3.119,-3.119,-3.119,-3.119,-3.1173,-3.0801,-3.0125,-2.9583,-2.889,-2.823,-2.7925,-2.7519,-2.7046,-2.6826,-2.6708,-2.6708,-2.6708,-2.6708,-2.6623,-2.6184,-2.5896,-2.5862,-2.5372,-2.51,-2.51,-2.51,-2.5122,-2.5215,-2.5348,-2.4742,-2.3364,-2.3638,-2.4878,-2.69,-2.6822,-2.666,-2.6872,-2.7657,-2.8136,-2.8172,-2.8712,-2.8987,-2.8987,-2.8987,-2.9445,-3.0381,-3.0326,-3.15,-3.3275,-3.3807,-3.3807,-3.3807,-3.3807,-3.3807,-3.3807,-3.3807,-3.3807,-3.3807,-3.3807,-3.3807,-3.3807,-3.3807,-3.3793,-3.3793,-3.3793,-3.3807,-3.3935,-3.416,-3.4541,-3.4449,-3.4174,-3.3807,-3.3707,-3.3039,-3.2349,-3.2648,-3.3508,-3.3793,-3.3807,-3.3178,-3.2919,-3.3734,-3.3793,-3.3807,-3.3807,-3.3807,-3.3807,-3.3807,-3.3807,-3.3807,-3.3807,-3.3807,-3.3807,-3.0118,-2.9759,-3.0225,-3.1663,-3.3447,-3.3492,-3.3874,-3.4414,-3.4404,-3.4416,-3.4353,-3.3778,-3.3389,-3.322,-3.2598,-3.1887,-3.1275,-3.1207,-3.119,-3.119,-3.119,-3.119,-3.119,-3.119,-3.119,-3.119,-3.119,-3.0852,-3.0176,-3.0091,-2.9668,-2.8976,-2.8298,-2.7841,-2.7672,-2.7097,-2.6725,-2.686,-2.6759,-2.6725,-2.6725,-2.6657,-2.659,-2.6573,-2.6573,-2.6488,-2.6522,-2.6556,-2.6284,-2.5623,-2.5993,-2.5946,-2.5495,-2.5491,-2.6549,-2.8429,-2.8132,-2.804,-2.8622,-2.8828,-2.8877,-2.8913,-2.8932,-2.8987,-2.8987,-2.8987,-3.0234,-3.3183,-3.3183,-3.3476,-3.3715,-3.3807,-3.3807,-3.3807,-3.3807,-3.3807,-3.3807,-3.3807,-3.3807,-3.3807,-3.3807,-3.3807,-3.3807,-3.3807,-3.3844,-3.3862,-3.3844,-3.3807,-3.4045,-3.5092,-3.6046,-3.5862,-3.5018,-3.3844,-3.383,-3.3447,-3.3476,-3.3611,-3.3611,-3.3807,-3.3788,-3.3762,-3.3762,-3.3766,-3.3793,-3.3807,-3.3807,-3.3807,-3.3807,-3.3807,-3.3807,-3.3807,-3.3807,-3.3807,-3.3807,-3.1298,-3.1578,-3.2222,-3.3185,-3.4235,-3.4675,-3.4996,-3.5237,-3.5223,-3.5216,-3.5165,-3.4906,-3.4556,-3.4083,-3.3833,-3.3055,-3.1921,-3.1427,-3.119,-3.119,-3.119,-3.119,-3.119,-3.119,-3.119,-3.119,-3.119,-3.1072,-3.0852,-3.0801,-3.0429,-2.9786,-2.943,-2.9059,-2.8518,-2.7807,-2.7638,-2.801,-2.725,-2.6928,-2.7317,-2.6945,-2.6708,-2.6708,-2.6708,-2.6708,-2.6708,-2.6708,-2.6802,-2.7056,-2.7201,-2.7445,-2.7743,-2.7791,-2.8099,-2.8842,-2.873,-2.8693,-2.895,-2.8987,-2.8987,-2.8987,-2.8987,-2.9005,-2.8987,-2.9078,-3.0326,-3.2981,-3.3807,-3.3807,-3.3807,-3.3807,-3.3807,-3.3807,-3.3807,-3.3807,-3.3807,-3.3807,-3.3807,-3.3807,-3.3807,-3.3807,-3.3807,-3.3825,-3.4009,-3.4399,-3.4156,-3.3917,-3.4266,-3.6046,-3.7734,-3.7569,-3.6486,-3.5385,-3.5404,-3.4376,-3.3793,-3.3793,-3.3807,-3.3807,-3.3807,-3.3807,-3.3793,-3.3793,-3.3807,-3.3807,-3.3807,-3.3807,-3.3807,-3.3807,-3.3807,-3.3807,-3.3807,-3.3807,-3.3807,-3.2272,-3.2933,-3.3417,-3.3987,-3.464,-3.5075,-3.5424,-3.5577,-3.5616,-3.5616,-3.5616,-3.56,-3.5312,-3.4861,-3.4607,-3.402,-3.2953,-3.2039,-3.1427,-3.1207,-3.119,-3.119,-3.119,-3.119,-3.119,-3.119,-3.119,-3.119,-3.119,-3.119,-3.092,-3.048,-3.0224,-2.9871,-2.9279,-2.8586,-2.8484,-2.8688,-2.7943,-2.7621,-2.7773,-2.7571,-2.7165,-2.6843,-2.6928,-2.6928,-2.6725,-2.6808,-2.7115,-2.7634,-2.7922,-2.8347,-2.8917,-2.8987,-2.8987,-2.8987,-2.8987,-2.8987,-2.8987,-2.8987,-2.9115,-2.9354,-2.939,-2.9317,-2.9078,-2.9445,-3.1109,-3.3073,-3.3807,-3.3807,-3.3807,-3.3807,-3.3807,-3.3807,-3.3807,-3.3807,-3.3807,-3.3807,-3.3807,-3.3807,-3.3807,-3.3807,-3.3899,-3.4339,-3.4743,-3.5169,-3.4798,-3.4633,-3.4981,-3.6798,-3.8707,-3.8615,-3.779,-3.7165,-3.7055,-3.6376,-3.4688,-3.4376,-3.3844,-3.3807,-3.3807,-3.3807,-3.3807,-3.3807,-3.3807,-3.3807,-3.3807,-3.3807,-3.3807,-3.3807,-3.3807,-3.3807,-3.3807,-3.3807,-3.3807,-3.2975,-3.3505,-3.3608,-3.4062,-3.4648,-3.4759,-3.5052,-3.5554,-3.5616,-3.5616,-3.5616,-3.5616,-3.5566,-3.5414,-3.4895,-3.4489,-3.4083,-3.2987,-3.2073,-3.1478,-3.1326,-3.1275,-3.1292,-3.1224,-3.119,-3.119,-3.119,-3.119,-3.119,-3.119,-3.114,-3.1038,-3.0497,-3.0209,-3.0108,-2.9397,-2.9027,-2.9094,-2.8925,-2.8535,-2.801,-2.8484,-2.818,-2.7097,-2.7418,-2.7418,-2.6809,-2.7101,-2.7301,-2.7452,-2.8012,-2.8565,-2.8929,-2.8987,-2.8987,-2.8987,-2.8987,-2.8987,-2.8987,-2.906,-2.9445,-2.9934,-3.0161,-2.9971,-2.9739,-3.0485,-3.1911,-3.3385,-3.3807,-3.3807,-3.3807,-3.399,-3.3972,-3.3807,-3.3807,-3.3807,-3.3807,-3.3807,-3.3807,-3.3862,-3.4082,-3.3954,-3.4266,-3.5367,-3.6156,-3.5826,-3.5826,-3.6101,-3.6303,-3.7716,-3.8542,-3.8707,-3.8432,-3.8138,-3.8395,-3.845,-3.656,-3.4981,-3.4229,-3.3807,-3.3807,-3.3807,-3.3807,-3.3807,-3.3807,-3.3807,-3.3807,-3.3807,-3.3807,-3.3807,-3.3807,-3.3825,-3.3807,-3.3807,-3.3807,-3.2986,-3.3633,-3.4096,-3.4688,-3.527,-3.5276,-3.5447,-3.56,-3.5616,-3.5616,-3.5616,-3.5616,-3.5616,-3.5566,-3.5329,-3.4979,-3.4489,-3.3986,-3.3406,-3.273,-3.2205,-3.1972,-3.187,-3.1427,-3.119,-3.119,-3.119,-3.119,-3.119,-3.119,-3.119,-3.1123,-3.0954,-3.0852,-3.0784,-3.0159,-2.9956,-3.0328,-2.9501,-2.9076,-2.9277,-2.9128,-2.8739,-2.8333,-2.7993,-2.7672,-2.747,-2.7375,-2.7545,-2.8002,-2.8272,-2.8577,-2.8899,-2.8987,-2.8987,-2.8987,-2.8987,-2.8987,-2.9078,-2.95,-2.9886,-3.0265,-3.0705,-3.1091,-3.1146,-3.1292,-3.2173,-3.3532,-3.3807,-3.3807,-3.3972,-3.489,-3.4945,-3.3949,-3.3807,-3.3862,-3.3899,-3.388,-3.3807,-3.4119,-3.5771,-3.7019,-3.7165,-3.779,-3.7441,-3.6725,-3.6505,-3.6652,-3.7734,-3.8248,-3.8689,-3.8707,-3.8707,-3.8707,-3.8707,-3.8707,-3.7753,-3.6395,-3.5495,-3.4523,-3.4321,-3.3807,-3.3807,-3.3807,-3.3807,-3.3807,-3.3807,-3.3807,-3.3825,-3.3862,-3.3899,-3.388,-3.3825,-3.3807,-3.3825,-3.3365,-3.4037,-3.4704,-3.5207,-3.56,-3.5616,-3.5616,-3.5616,-3.5616,-3.5616,-3.5616,-3.5616,-3.5616,-3.5616,-3.5616,-3.5346,-3.4928,-3.4912,-3.4675,-3.41,-3.3119,-3.2733,-3.2594,-3.1972,-3.1616,-3.1529,-3.1326,-3.119,-3.119,-3.119,-3.119,-3.119,-3.119,-3.1173,-3.1173,-3.0784,-3.0784,-3.0987,-3.033,-2.9924,-3.004,-2.9905,-2.9551,-2.9079,-2.89,-2.8819,-2.8714,-2.8646,-2.8493,-2.8367,-2.8464,-2.8749,-2.8964,-2.8987,-2.8987,-2.8987,-2.9023,-2.9115,-2.9427,-2.9904,-3.054,-3.1035,-3.1568,-3.2118,-3.2559,-3.243,-3.2871,-3.3587,-3.3807,-3.3807,-3.4027,-3.5293,-3.555,-3.4417,-3.427,-3.4252,-3.4284,-3.4559,-3.4743,-3.5312,-3.7019,-3.8377,-3.8707,-3.867,-3.8469,-3.7771,-3.7422,-3.7349,-3.8432,-3.8652,-3.8707,-3.8707,-3.8707,-3.8707,-3.8707,-3.8707,-3.8707,-3.79,-3.7074,-3.6046,-3.5385,-3.4302,-3.3807,-3.3807,-3.3807,-3.3807,-3.3807,-3.3825,-3.3844,-3.3899,-3.4412,-3.41,-3.4082,-3.388,-3.3844,-3.4012,-3.4664,-3.5299,-3.5577,-3.5616,-3.5616,-3.5616,-3.5616,-3.5616,-3.5616,-3.5616,-3.5616,-3.5616,-3.5616,-3.5616,-3.5549,-3.5583,-3.5498,-3.5464,-3.5076,-3.4235,-3.3558,-3.3203,-3.2513,-3.2158,-3.209,-3.1532,-3.1207,-3.119,-3.119,-3.119,-3.119,-3.119,-3.119,-3.1173,-3.1157,-3.1123,-3.114,-3.1106,-3.0768,-3.0294,-3.0768,-3.0548,-2.9333,-3.0039,-3.0333,-3.012,-3.0315,-2.9861,-2.8526,-2.899,-2.9245,-2.906,-2.8987,-2.9005,-2.9244,-2.9152,-2.9574,-3.0069,-3.0509,-3.1072,-3.2197,-3.2528,-3.2949,-3.3476,-3.3532,-3.355,-3.3788,-3.3807,-3.3899,-3.4302,-3.5367,-3.5826,-3.5353,-3.5151,-3.5133,-3.5224,-3.5807,-3.6046,-3.656,-3.7771,-3.8707,-3.8707,-3.8707,-3.8652,-3.8579,-3.8469,-3.8524,-3.8597,-3.8707,-3.8707,-3.8707,-3.8707,-3.8707,-3.8707,-3.8707,-3.8707,-3.8487,-3.7863,-3.7184,-3.6303,-3.5202,-3.4835,-3.4706,-3.4082,-3.4009,-3.4119,-3.4357,-3.5073,-3.5954,-3.5771,-3.4871,-3.4449,-3.4394,-3.4119,-3.4431,-3.4688,-3.5339,-3.5616,-3.5616,-3.5616,-3.5616,-3.5616,-3.5616,-3.5616,-3.5616,-3.5616,-3.5616,-3.5616,-3.5616,-3.5616,-3.5616,-3.5616,-3.5616,-3.5549,-3.5261,-3.4349,-3.344,-3.2682,-3.2344,-3.2259,-3.1684,-3.119,-3.119,-3.119,-3.119,-3.119,-3.119,-3.119,-3.119,-3.119,-3.119,-3.119,-3.119,-3.1123,-3.097,-3.1038,-3.1021,-3.0741,-3.0693,-3.0716,-3.0605,-3.0776,-3.0867,-3.0576,-3.063,-3.0173,-2.9317,-2.9207,-2.9721,-3.054,-3.0442,-3.0442,-3.1054,-3.1604,-3.2142,-3.2564,-3.3115,-3.3568,-3.3752,-3.3807,-3.3807,-3.3807,-3.3825,-3.4321,-3.5349,-3.6028,-3.6376,-3.6743,-3.6358,-3.6193,-3.6541,-3.6505,-3.6707,-3.7863,-3.845,-3.8652,-3.8707,-3.8707,-3.8707,-3.8707,-3.8707,-3.8707,-3.8707,-3.8707,-3.8707,-3.8707,-3.8707,-3.8707,-3.8707,-3.8707,-3.8707,-3.8707,-3.8377,-3.8065,-3.7257,-3.6395,-3.6707,-3.7165,-3.5404,-3.4871,-3.5257,-3.5605,-3.6707,-3.7661,-3.7496,-3.6762,-3.5789,-3.5367,-3.4835,-3.4616,-3.4664,-3.5339,-3.5616,-3.5616,-3.5616,-3.5616,-3.5616,-3.5616,-3.5616,-3.5616,-3.5616,-3.5616,-3.5616,-3.5616,-3.5616,-3.5616,-3.5616,-3.5616,-3.5616,-3.5566,-3.5092,-3.4281,-3.3575,-3.3224,-3.3089,-3.2138,-3.1735,-3.1596,-3.1343,-3.1207,-3.119,-3.119,-3.119,-3.119,-3.119,-3.119,-3.119,-3.119,-3.119,-3.119,-3.119,-3.119,-3.1261,-3.1303,-3.1562,-3.1945,-3.2105,-3.2082,-3.1878,-3.1586,-3.125,-3.1115,-3.1005,-3.1476,-3.2357,-3.2113,-3.2003,-3.1935,-3.2362,-3.2748,-3.3078,-3.3605,-3.3752,-3.3807,-3.3807,-3.3807,-3.3807,-3.3807,-3.4651,-3.5936,-3.6578,-3.7162,-3.7749,-3.7569,-3.7367,-3.7529,-3.7386,-3.7716,-3.8414,-3.8707,-3.8707,-3.8707,-3.8707,-3.8707,-3.8707,-3.8707,-3.8707,-3.8707,-3.8707,-3.8707,-3.8707,-3.8707,-3.8707,-3.8707,-3.8707,-3.8707,-3.8707,-3.8652,-3.8414,-3.8065,-3.7404,-3.7771,-3.7863,-3.6578,-3.5862,-3.6211,-3.6743,-3.7698,-3.8395,-3.867,-3.8395,-3.7294,-3.6303,-3.5752,-3.4671,-3.4776,-3.5362,-3.5616,-3.5616,-3.5616,-3.5616,-3.5616,-3.5616,-3.5616,-3.5616,-3.5616,-3.5616,-3.5616,-3.5616,-3.5616,-3.5616,-3.5616,-3.5616,-3.5616,-3.5616,-3.5447,-3.5295,-3.4556,-3.4252,-3.4049,-3.297,-3.2344,-3.2005,-3.1512,-3.1207,-3.119,-3.119,-3.119,-3.119,-3.119,-3.119,-3.119,-3.119,-3.119,-3.119,-3.119,-3.1249,-3.1432,-3.2126,-3.2775,-3.3338,-3.3597,-3.3385,-3.2748,-3.2027,-3.2394,-3.3476,-3.3697,-3.3678,-3.3587,-3.3476,-3.3256,-3.2871,-3.2784,-3.3023,-3.3587,-3.3752,-3.3807,-3.3807,-3.3807,-3.3807,-3.3807,-3.3807,-3.478,-3.6468,-3.7276,-3.7826,-3.8414,-3.8579,-3.8303,-3.797,-3.8248,-3.8707,-3.8707,-3.8707,-3.8707,-3.8707,-3.8707,-3.8707,-3.8707,-3.8707,-3.8707,-3.8707,-3.8707,-3.8707,-3.8707,-3.8707,-3.8707,-3.8707,-3.8707,-3.8707,-3.8707,-3.8707,-3.8597,-3.8597,-3.8303,-3.8469,-3.8212,-3.7441,-3.6982,-3.6927,-3.7661,-3.8487,-3.8707,-3.8707,-3.8707,-3.8432,-3.7514,-3.6798,-3.5385,-3.5407,-3.5538,-3.5616,-3.5616,-3.5616,-3.5616,-3.5616,-3.5616,-3.5616,-3.5616,-3.5616,-3.5616,-3.5616,-3.5616,-3.5616,-3.5616,-3.5616,-3.5616,-3.5616,-3.5616,-3.5616,-3.5464,-3.4878,-3.4539,-3.4201,-3.3021,-3.2361,-3.2158,-3.1647,-3.119,-3.119,-3.119,-3.119,-3.119,-3.119,-3.119,-3.119,-3.119,-3.119,-3.119,-3.121,-3.1351,-3.1715,-3.2533,-3.324,-3.368,-3.3807,-3.3715,-3.3532,-3.3366,-3.3348,-3.3715,-3.3807,-3.3807,-3.3807,-3.3807,-3.3715,-3.3568,-3.3495,-3.3568,-3.3733,-3.3807,-3.3807,-3.3807,-3.3807,-3.3807,-3.3807,-3.388,-3.5349,-3.7533,-3.8285,-3.8469,-3.8652,-3.8689,-3.8634,-3.8505,-3.8579,-3.8689,-3.8707,-3.8707,-3.8707,-3.8707,-3.8707,-3.8707,-3.8707,-3.8707,-3.8707,-3.8707,-3.8707,-3.8707,-3.8707,-3.8707,-3.8707,-3.8707,-3.8707,-3.8707,-3.8707,-3.8707,-3.8707,-3.8707,-3.8707,-3.8707,-3.8707,-3.8579,-3.8193,-3.7734,-3.7991,-3.8707,-3.8707,-3.8707,-3.8707,-3.856,-3.8046,-3.7881,-3.5616,-3.5616,-3.5616,-3.5616,-3.5616,-3.5616,-3.5616,-3.5616,-3.5616,-3.5616,-3.5616,-3.5616,-3.5616,-3.5616,-3.5616,-3.5616,-3.5616,-3.5616,-3.5616,-3.5616,-3.5616,-3.5616,-3.5583,-3.5267,-3.4996,-3.4776,-3.3525,-3.2882,-3.256,-3.1799,-3.119,-3.119,-3.119,-3.119,-3.119,-3.119,-3.119,-3.119,-3.119,-3.119,-3.119,-3.121,-3.1526,-3.2092,-3.2825,-3.339,-3.3766,-3.3807,-3.3807,-3.3807,-3.3807,-3.3807,-3.3807,-3.3807,-3.3807,-3.3807,-3.3807,-3.3807,-3.3807,-3.3807,-3.3788,-3.3807,-3.3807,-3.3807,-3.3807,-3.3807,-3.3807,-3.4174,-3.522,-3.7,-3.8469,-3.8689,-3.8707,-3.8707,-3.8707,-3.8707,-3.8707,-3.8707,-3.8707,-3.8707,-3.8707,-3.8707,-3.8707,-3.8707,-3.8707,-3.8707,-3.8707,-3.8707,-3.8707,-3.8707,-3.8707,-3.8707,-3.8707,-3.8707,-3.8707,-3.8707,-3.8707,-3.8707,-3.8707,-3.8707,-3.8707,-3.8707,-3.8707,-3.8707,-3.8707,-3.8707,-3.8395,-3.8689,-3.8707,-3.8707,-3.8707,-3.8707,-3.8615,-3.8377,-3.834,-3.5616,-3.5616,-3.5616,-3.5616,-3.5616,-3.5616,-3.5616,-3.5616,-3.5616,-3.5616,-3.5616,-3.5616,-3.5616,-3.5616,-3.5616,-3.5616,-3.5616,-3.5616,-3.5616,-3.5616,-3.5616,-3.5616,-3.5583,-3.5532,-3.5464,-3.5414,-3.4235,-3.3592,-3.3017,-3.2104,-3.141,-3.1241,-3.119,-3.119,-3.119,-3.1207,-3.1309,-3.1444,-3.1292,-3.1424,-3.1502,-3.1489,-3.1769,-3.2534,-3.3057,-3.348,-3.3753,-3.3807,-3.3807,-3.3807,-3.3807,-3.3807,-3.3807,-3.3807,-3.3807,-3.3807,-3.3807,-3.3807,-3.3807,-3.3807,-3.3807,-3.3807,-3.399,-3.4027,-3.4064,-3.3972,-3.4082,-3.5147,-3.6486,-3.8322,-3.8707,-3.8707,-3.8707,-3.8707,-3.8707,-3.8707,-3.8707,-3.8707,-3.8707,-3.8707,-3.8707,-3.8707,-3.8707,-3.8707,-3.8707,-3.8707,-3.8707,-3.8707,-3.8707,-3.8707,-3.8707,-3.8707,-3.8707,-3.8707,-3.8707,-3.8707,-3.8707,-3.8707,-3.8707,-3.8707,-3.8707,-3.8707,-3.8707,-3.8707,-3.8707,-3.8707,-3.8707,-3.8707,-3.8707,-3.8707,-3.8707,-3.8707,-3.8707,-3.8707,-3.8707,-3.5616,-3.5616,-3.5616,-3.5616,-3.5616,-3.5616,-3.5616,-3.5616,-3.5616,-3.5616,-3.5616,-3.5616,-3.5616,-3.5616,-3.5616,-3.5616,-3.5616,-3.5616,-3.5616,-3.5616,-3.5616,-3.5616,-3.5616,-3.5616,-3.5616,-3.5397,-3.4709,-3.4083,-3.3406,-3.2564,-3.1921,-3.1376,-3.1326,-3.1343,-3.1376,-3.1241,-3.1636,-3.2038,-3.1732,-3.1803,-3.2256,-3.2062,-3.2109,-3.2952,-3.3404,-3.368,-3.3766,-3.3807,-3.3807,-3.3807,-3.3807,-3.3807,-3.3807,-3.3807,-3.3807,-3.3807,-3.3807,-3.3807,-3.3807,-3.3807,-3.3807,-3.3954,-3.4344,-3.4766,-3.4656,-3.4362,-3.4743,-3.6009,-3.7367,-3.8707,-3.8707,-3.8707,-3.8707,-3.8707,-3.8707,-3.8707,-3.8707,-3.8707,-3.8707,-3.8707,-3.8707,-3.8707,-3.8707,-3.8707,-3.8707,-3.8707,-3.8707,-3.8707,-3.8707,-3.8707,-3.8707,-3.8707,-3.8707,-3.8707,-3.8707,-3.8707,-3.8707,-3.8707,-3.8707,-3.8707,-3.8707,-3.8707,-3.8707,-3.8707,-3.8707,-3.8707,-3.8707,-3.8707,-3.8707,-3.8707,-3.8707,-3.8707,-3.8707,-3.8707,-3.8707,-3.5616,-3.5616,-3.5616,-3.5616,-3.5616,-3.5616,-3.5616,-3.5616,-3.5616,-3.5616,-3.5616,-3.5616,-3.5616,-3.5616,-3.5616,-3.5616,-3.5616,-3.5616,-3.5616,-3.5616,-3.5616,-3.5616,-3.5616,-3.5616,-3.5616,-3.5515,-3.5216,-3.4675,-3.3964,-3.3237,-3.2662,-3.2476,-3.2341,-3.2341,-3.2222,-3.2002,-3.2406,-3.2835,-3.2593,-3.2399,-3.2973,-3.2458,-3.2636,-3.3105,-3.3564,-3.3793,-3.3807,-3.3807,-3.3807,-3.3807,-3.3807,-3.3807,-3.3807,-3.3807,-3.3825,-3.3862,-3.3825,-3.3825,-3.3825,-3.3825,-3.399,-3.4417,-3.4857,-3.5243,-3.5477,-3.5514,-3.5826,-3.7184,-3.7936,-3.8707,-3.8707,-3.8707,-3.8707,-3.8707,-3.8707,-3.8707,-3.8707,-3.8707,-3.8735,-3.875,-3.8707,-3.8707,-3.8707,-3.8707,-3.8707,-3.8707,-3.8707,-3.8707,-3.8707,-3.8707,-3.8707,-3.8707,-3.8707,-3.8707,-3.8707,-3.8707,-3.8707,-3.8707,-3.8707,-3.8707,-3.8707,-3.8707,-3.8707,-3.8707,-3.8707,-3.8707,-3.8707,-3.8707,-3.8707,-3.8707,-3.8707,-3.8707,-3.8707,-3.8707,-3.8707,-3.5616,-3.5616,-3.5616,-3.5616,-3.5616,-3.5616,-3.5616,-3.5616,-3.5616,-3.5616,-3.5616,-3.5616,-3.5616,-3.5616,-3.5616,-3.5616,-3.5616,-3.5616,-3.5616,-3.5616,-3.5616,-3.5616,-3.5616,-3.5616,-3.5616,-3.56,-3.5532,-3.5233,-3.4438,-3.388,-3.3575,-3.3254,-3.3322,-3.3389,-3.3169,-3.273,-3.3351,-3.3753,-3.351,-3.3115,-3.302,-3.2921,-3.2937,-3.3288,-3.3638,-3.3807,-3.3807,-3.3807,-3.3807,-3.3807,-3.3807,-3.3807,-3.3807,-3.3807,-3.3954,-3.4174,-3.4009,-3.3899,-3.4064,-3.4119,-3.4412,-3.4839,-3.5316,-3.5881,-3.6358,-3.6762,-3.7276,-3.8414,-3.8707,-3.8707,-3.8707,-3.8707,-3.8707,-3.8707,-3.8707,-3.8719,-3.8803,-3.8888,-3.9013,-3.896,-3.8777,-3.8735,-3.8777,-3.8707,-3.8707,-3.8707,-3.8707,-3.8707,-3.8707,-3.8707,-3.8707,-3.8707,-3.8707,-3.8707,-3.8707,-3.8707,-3.8707,-3.8707,-3.8707,-3.8707,-3.8707,-3.8707,-3.8707,-3.8707,-3.8707,-3.8707,-3.8707,-3.8707,-3.8707,-3.8707,-3.8707,-3.8707,-3.8707,-3.8707,-3.8707,-3.5616,-3.5616,-3.5616,-3.5616,-3.5616,-3.5616,-3.5616,-3.5616,-3.5616,-3.5616,-3.5616,-3.5616,-3.5616,-3.5616,-3.5616,-3.5616,-3.5616,-3.5616,-3.5616,-3.5616,-3.5616,-3.5616,-3.5616,-3.5616,-3.5616,-3.5616,-3.5616,-3.5182,-3.4726,-3.4455,-3.4066,-3.3694,-3.366,-3.3478,-3.3803,-3.3552,-3.3939,-3.473,-3.3859,-3.3248,-3.3402,-3.3633,-3.3733,-3.384,-3.3931,-3.4045,-3.4119,-3.4137,-3.4064,-3.3972,-3.3862,-3.3807,-3.3807,-3.3807,-3.4669,-3.5055,-3.4853,-3.4119,-3.4766,-3.4876,-3.5004,-3.5518,-3.6266,-3.7052,-3.7437,-3.7845,-3.8285,-3.856,-3.8707,-3.8707,-3.8707,-3.8707,-3.8707,-3.8704,-3.8719,-3.875,-3.8837,-3.921,-3.9327,-3.9127,-3.8989,-3.8917,-3.8917,-3.8792,-3.8707,-3.8707,-3.8707,-3.8707,-3.8707,-3.8707,-3.8707,-3.8707,-3.8707,-3.8707,-3.8707,-3.8707,-3.8707,-3.8707,-3.8707,-3.8707,-3.8707,-3.8707,-3.8707,-3.8707,-3.8707,-3.8707,-3.8707,-3.8707,-3.8707,-3.8707,-3.8707,-3.8707,-3.8707,-3.8707,-3.8707,-3.5616,-3.5616,-3.5616,-3.5616,-3.5616,-3.5616,-3.5616,-3.5616,-3.5616,-3.5616,-3.5616,-3.5616,-3.5616,-3.5616,-3.5616,-3.5616,-3.5616,-3.5616,-3.5616,-3.5616,-3.5616,-3.5616,-3.5616,-3.5616,-3.5616,-3.5616,-3.56,-3.5515,-3.5143,-3.5098,-3.4912,-3.467,-3.4646,-3.4925,-3.4826,-3.4651,-3.5453,-3.6054,-3.5829,-3.5388,-3.5423,-3.5144,-3.4947,-3.5169,-3.5165,-3.5147,-3.5147,-3.522,-3.5202,-3.5018,-3.4486,-3.3807,-3.3807,-3.4009,-3.4816,-3.7367,-3.7074,-3.6413,-3.5899,-3.5789,-3.5936,-3.634,-3.7107,-3.7603,-3.8098,-3.845,-3.8707,-3.8707,-3.8707,-3.8707,-3.8707,-3.8707,-3.8785,-3.8811,-3.8815,-3.9013,-3.9141,-3.9457,-3.9656,-3.9402,-3.9248,-3.932,-3.9294,-3.9105,-3.8917,-3.8707,-3.8723,-3.8719,-3.8723,-3.8707,-3.8707,-3.8707,-3.8707,-3.8707,-3.8707,-3.8707,-3.8707,-3.8707,-3.8707,-3.8707,-3.8707,-3.8707,-3.8707,-3.8707,-3.8707,-3.8707,-3.8707,-3.8707,-3.8707,-3.8707,-3.8707,-3.8707,-3.8707,-3.8707,-3.8707,-3.5616,-3.5616,-3.5616,-3.5616,-3.5616,-3.5616,-3.5616,-3.5616,-3.5616,-3.5616,-3.5616,-3.5616,-3.5616,-3.5616,-3.5616,-3.5616,-3.5616,-3.5616,-3.5616,-3.5616,-3.5616,-3.5616,-3.5616,-3.5616,-3.5616,-3.5616,-3.5616,-3.5549,-3.5566,-3.5549,-3.5515,-3.5622,-3.5589,-3.5869,-3.6122,-3.6043,-3.6387,-3.7038,-3.6949,-3.6825,-3.675,-3.6125,-3.6002,-3.612,-3.6285,-3.6285,-3.6285,-3.6211,-3.6193,-3.5936,-3.5238,-3.4688,-3.4651,-3.533,-3.6266,-3.8102,-3.8212,-3.7881,-3.7165,-3.6853,-3.6997,-3.7327,-3.7786,-3.8135,-3.8505,-3.8707,-3.8707,-3.8707,-3.8707,-3.8707,-3.8719,-3.8795,-3.8923,-3.9017,-3.9031,-3.9275,-3.9529,-3.9821,-3.9894,-3.9634,-3.9622,-3.9994,-3.9874,-3.9548,-3.9208,-3.8837,-3.8738,-3.8765,-3.8765,-3.8735,-3.8707,-3.8707,-3.8707,-3.8707,-3.8707,-3.8707,-3.8707,-3.8707,-3.8707,-3.8707,-3.8707,-3.8707,-3.8707,-3.8707,-3.8707,-3.8707,-3.8707,-3.8707,-3.8707,-3.8707,-3.8707,-3.8707,-3.8707,-3.8707,-3.8707,-3.5616,-3.5616,-3.5616,-3.5616,-3.5616,-3.5616,-3.5616,-3.5616,-3.5616,-3.5616,-3.5616,-3.5616,-3.5616,-3.5616,-3.5616,-3.5616,-3.5616,-3.5616,-3.5616,-3.5616,-3.5616,-3.5616,-3.5616,-3.5616,-3.5616,-3.5616,-3.5616,-3.5616,-3.5616,-3.5616,-3.5616,-3.5667,-3.6032,-3.627,-3.6609,-3.692,-3.6934,-3.7416,-3.7385,-3.7189,-3.6912,-3.652,-3.6479,-3.6421,-3.6376,-3.6303,-3.6321,-3.6505,-3.6597,-3.6615,-3.6303,-3.6119,-3.6266,-3.7019,-3.8083,-3.845,-3.8707,-3.8469,-3.812,-3.7713,-3.7492,-3.7713,-3.808,-3.8505,-3.867,-3.8707,-3.8707,-3.8707,-3.8707,-3.8747,-3.8848,-3.9003,-3.9136,-3.9288,-3.9371,-3.951,-3.981,-4.0148,-4.0138,-3.9844,-3.9935,-4.0266,-4.037,-4.0004,-3.9735,-3.9377,-3.8833,-3.8833,-3.8848,-3.8837,-3.8735,-3.8707,-3.8707,-3.8707,-3.8707,-3.8707,-3.8707,-3.8707,-3.8707,-3.8707,-3.8707,-3.8707,-3.8707,-3.8707,-3.8707,-3.8707,-3.8707,-3.8707,-3.8707,-3.8707,-3.8707,-3.8707,-3.8707,-3.8707,-3.8707,-3.5616,-3.5616,-3.5616,-3.5616,-3.5616,-3.5616,-3.5616,-3.5616,-3.5616,-3.5616,-3.5616,-3.5616,-3.5616,-3.5616,-3.5616,-3.5616,-3.5616,-3.5616,-3.5616,-3.5616,-3.5616,-3.5616,-3.5616,-3.5616,-3.5616,-3.5616,-3.5616,-3.5616,-3.5616,-3.5616,-3.5871,-3.6075,-3.6354,-3.6827,-3.723,-3.772,-3.7899,-3.7972,-3.8086,-3.801,-3.7918,-3.779,-3.779,-3.779,-3.779,-3.7771,-3.7808,-3.779,-3.779,-3.7734,-3.7698,-3.7643,-3.7588,-3.8395,-3.8634,-3.8707,-3.8707,-3.8707,-3.8707,-3.8395,-3.8267,-3.8285,-3.8542,-3.8707,-3.8707,-3.8707,-3.8707,-3.8707,-3.8707,-3.8762,-3.9236,-3.9307,-3.9339,-3.9583,-3.9735,-3.9842,-4.0043,-4.0353,-4.0414,-4.011,-4.0193,-4.043,-4.0473,-4.0438,-4.0193,-3.9915,-3.9358,-3.8927,-3.897,-3.8877,-3.8765,-3.8707,-3.8707,-3.8707,-3.8707,-3.8707,-3.8707,-3.8891,-3.8964,-3.8707,-3.8707,-3.8707,-3.8707,-3.8707,-3.8707,-3.8707,-3.8707,-3.8707,-3.8707,-3.8707,-3.8707,-3.8707,-3.8707,-3.8707,-3.8707,-3.5616,-3.5616,-3.5616,-3.5616,-3.5616,-3.5616,-3.5616,-3.5616,-3.5616,-3.5616,-3.5616,-3.5616,-3.5616,-3.5616,-3.5616,-3.5616,-3.5616,-3.5616,-3.5616,-3.5616,-3.5616,-3.5616,-3.5616,-3.5616,-3.5616,-3.5616,-3.5616,-3.5616,-3.5616,-3.5616,-3.6032,-3.6437,-3.6701,-3.7155,-3.7755,-3.8417,-3.8692,-3.8707,-3.8707,-3.8707,-3.8652,-3.8634,-3.8615,-3.8579,-3.8542,-3.8542,-3.8505,-3.8469,-3.8505,-3.8524,-3.856,-3.8634,-3.867,-3.8707,-3.8707,-3.8707,-3.8707,-3.8707,-3.8707,-3.8707,-3.8707,-3.8615,-3.8652,-3.8707,-3.8707,-3.8707,-3.8707,-3.8707,-3.8738,-3.8974,-3.9571,-3.9656,-3.9731,-3.9963,-4.0014,-4.011,-4.0257,-4.0481,-4.0489,-4.0406,-4.0496,-4.0496,-4.0496,-4.0481,-4.0377,-4.0091,-3.9634,-3.9262,-3.9268,-3.9091,-3.8735,-3.8707,-3.8707,-3.8707,-3.8707,-3.8707,-3.8964,-4.0487,-4.023,-3.8927,-3.8707,-3.8762,-3.8744,-3.8707,-3.8707,-3.8707,-3.8707,-3.8707,-3.8707,-3.8707,-3.8707,-3.8707,-3.8707,-3.8707,-3.8707,-3.5616,-3.5616,-3.5616,-3.5616,-3.5616,-3.5616,-3.5616,-3.5616,-3.5616,-3.5616,-3.5616,-3.5616,-3.5616,-3.5616,-3.5616,-3.5616,-3.5616,-3.5616,-3.5616,-3.5616,-3.5616,-3.5616,-3.5616,-3.5616,-3.5616,-3.5616,-3.5622,-3.5622,-3.5689,-3.5739,-3.627,-3.6962,-3.7285,-3.7506,-3.7946,-3.8433,-3.8692,-3.8707,-3.8707,-3.8707,-3.8707,-3.8707,-3.8707,-3.8707,-3.8707,-3.8707,-3.8707,-3.8707,-3.8707,-3.8707,-3.8707,-3.8707,-3.8707,-3.8707,-3.8707,-3.8707,-3.8707,-3.8707,-3.8707,-3.8707,-3.8707,-3.8707,-3.8707,-3.8707,-3.8707,-3.8707,-3.8707,-3.8707,-3.8892,-3.9234,-3.9667,-4.0081,-4.0196,-4.0538,-4.0638,-4.049,-4.063,-4.1085,-4.12,-4.0669,-4.0496,-4.0496,-4.0496,-4.0492,-4.0432,-4.0196,-3.9819,-3.9645,-3.9634,-3.9726,-3.9497,-3.8964,-3.8982,-3.8946,-3.8946,-3.8762,-3.9313,-4.1056,-4.1497,-4.0194,-3.9258,-3.9148,-3.9056,-3.8817,-3.8707,-3.8707,-3.8707,-3.8707,-3.8707,-3.8707,-3.8707,-3.8707,-3.8707,-3.8707,-3.8707,-3.5616,-3.5616,-3.5616,-3.5616,-3.5616,-3.5616,-3.5616,-3.5616,-3.5616,-3.5616,-3.5616,-3.5616,-3.5616,-3.5616,-3.5616,-3.5616,-3.5616,-3.5616,-3.5616,-3.5616,-3.5616,-3.5616,-3.5616,-3.5616,-3.5616,-3.5616,-3.5622,-3.5827,-3.6161,-3.6075,-3.6689,-3.7452,-3.7912,-3.8251,-3.8433,-3.8643,-3.8707,-3.8707,-3.8707,-3.8707,-3.8707,-3.8707,-3.8707,-3.8707,-3.8707,-3.8707,-3.8707,-3.8707,-3.8707,-3.8707,-3.8707,-3.8707,-3.8707,-3.8707,-3.8707,-3.8707,-3.8707,-3.8707,-3.8707,-3.8707,-3.8707,-3.8707,-3.8707,-3.8707,-3.8707,-3.8707,-3.8707,-3.8942,-3.9432,-4.0228,-4.1683,-4.0854,-4.0839,-4.1684,-4.1775,-4.1198,-4.1239,-4.197,-4.22,-4.1046,-4.0496,-4.0535,-4.0554,-4.0977,-4.1012,-4.0929,-4.0683,-4.0282,-4.0167,-4.0714,-4.0811,-3.9788,-3.9386,-3.9313,-3.9276,-3.9625,-4.0432,-4.2103,-4.2341,-4.1479,-4.0689,-3.9992,-3.9294,-3.9001,-3.8836,-3.8707,-3.8707,-3.8707,-3.8707,-3.8707,-3.8707,-3.8707,-3.8707,-3.8707,-3.8707,-3.5616,-3.5616,-3.5616,-3.5616,-3.5616,-3.5616,-3.5616,-3.5616,-3.5616,-3.5616,-3.5616,-3.5616,-3.5616,-3.5616,-3.5616,-3.5616,-3.5616,-3.5616,-3.5616,-3.5616,-3.5616,-3.5616,-3.5616,-3.5616,-3.5616,-3.5616,-3.5667,-3.5871,-3.6312,-3.6392,-3.6943,-3.7737,-3.8433,-3.8562,-3.8676,-3.8692,-3.8707,-3.8707,-3.8707,-3.8707,-3.8707,-3.8707,-3.8707,-3.8707,-3.8707,-3.8707,-3.8707,-3.8707,-3.8707,-3.8707,-3.8707,-3.8707,-3.8707,-3.8707,-3.8707,-3.8707,-3.8707,-3.8707,-3.8707,-3.8707,-3.8707,-3.8707,-3.8707,-3.8707,-3.8707,-3.8707,-3.9078,-3.9457,-4.0091,-4.1383,-4.2453,-4.1477,-4.2247,-4.3124,-4.2316,-4.1758,-4.1797,-4.2489,-4.2854,-4.1662,-4.1085,-4.0977,-4.0823,-4.1324,-4.1723,-4.1665,-4.1588,-4.1181,-4.0938,-4.1673,-4.2077,-4.1163,-4.0249,-4.0084,-4.0469,-4.1075,-4.2029,-4.3259,-4.2947,-4.2323,-4.1827,-4.1075,-4.0139,-3.9368,-3.9625,-3.9591,-3.8909,-3.8707,-3.8707,-3.8707,-3.8707,-3.8707,-3.8707,-3.8707,-3.8707,-3.5616,-3.5616,-3.5616,-3.5616,-3.5616,-3.5616,-3.5616,-3.5616,-3.5616,-3.5616,-3.5616,-3.5616,-3.5616,-3.5616,-3.5616,-3.5616,-3.5616,-3.5616,-3.5616,-3.5616,-3.5616,-3.5616,-3.5616,-3.5616,-3.5616,-3.5616,-3.5689,-3.5941,-3.6412,-3.6862,-3.736,-3.7895,-3.8499,-3.8643,-3.8707,-3.8707,-3.8707,-3.8707,-3.8707,-3.8707,-3.8707,-3.8707,-3.8707,-3.8707,-3.8707,-3.8707,-3.8707,-3.8707,-3.8707,-3.8707,-3.8707,-3.8707,-3.8707,-3.8707,-3.8707,-3.8707,-3.8707,-3.8707,-3.8707,-3.8707,-3.8707,-3.8707,-3.875,-3.8719,-3.8735,-3.8833,-3.9327,-3.9853,-4.0463,-4.1756,-4.2739,-4.3431,-4.4152,-4.3643,-4.2662,-4.2374,-4.2316,-4.2701,-4.3124,-4.2758,-4.2335,-4.2027,-4.1535,-4.1805,-4.247,-4.2527,-4.2527,-4.247,-4.2415,-4.3178,-4.3356,-4.2661,-4.1791,-4.1056,-4.146,-4.2156,-4.258,-4.3479,-4.3479,-4.3002,-4.2561,-4.2158,-4.1423,-4.091,-4.0893,-4.0435,-3.9221,-3.8744,-3.8707,-3.8707,-3.8744,-3.8707,-3.8707,-3.8707,-3.8707,-3.5616,-3.5616,-3.5616,-3.5616,-3.5616,-3.5616,-3.5616,-3.5616,-3.5616,-3.5616,-3.5616,-3.5616,-3.5616,-3.5616,-3.5616,-3.5616,-3.5616,-3.5616,-3.5616,-3.5616,-3.5616,-3.5616,-3.5616,-3.5616,-3.5616,-3.5622,-3.5717,-3.6118,-3.698,-3.7487,-3.7982,-3.8515,-3.8611,-3.8692,-3.8707,-3.8707,-3.8707,-3.8707,-3.8707,-3.8707,-3.8707,-3.8707,-3.8707,-3.8707,-3.8707,-3.8707,-3.8707,-3.8707,-3.8707,-3.8707,-3.8707,-3.8707,-3.8707,-3.8707,-3.8707,-3.8707,-3.8707,-3.8707,-3.8707,-3.8707,-3.8704,-3.8758,-3.8869,-3.8862,-3.8888,-3.9141,-3.9637,-4.0166,-4.1143,-4.2508,-4.3778,-4.4671,-4.496,-4.4297,-4.3355,-4.2835,-4.297,-4.3758,-4.4085,-4.3528,-4.3124,-4.2893,-4.2401,-4.2651,-4.3258,-4.3374,-4.347,-4.3489,-4.3661,-4.4347,-4.4139,-4.3432,-4.3002,-4.2158,-4.2396,-4.302,-4.3222,-4.3479,-4.3479,-4.3479,-4.3185,-4.28,-4.2525,-4.2323,-4.2158,-4.0818,-3.9056,-3.9056,-3.9735,-3.8946,-3.8836,-3.8762,-3.8707,-3.8762,-3.8744,-3.5616,-3.5616,-3.5616,-3.5616,-3.5616,-3.5616,-3.5616,-3.5616,-3.5616,-3.5616,-3.5616,-3.5616,-3.5616,-3.5616,-3.5616,-3.5616,-3.5616,-3.5616,-3.5616,-3.5616,-3.5616,-3.5616,-3.5616,-3.5616,-3.5616,-3.5644,-3.592,-3.6395,-3.7303,-3.8135,-3.8692,-3.8676,-3.8707,-3.8707,-3.8707,-3.8707,-3.8707,-3.8707,-3.8707,-3.8707,-3.8707,-3.8707,-3.8707,-3.8707,-3.8707,-3.8707,-3.8707,-3.8707,-3.8707,-3.8707,-3.8707,-3.8707,-3.8707,-3.8707,-3.8707,-3.8707,-3.8707,-3.8707,-3.8707,-3.8707,-3.8747,-3.8855,-3.8994,-3.9082,-3.9203,-3.9427,-3.9884,-4.046,-4.1909,-4.3324,-4.4556,-4.5556,-4.5306,-4.5009,-4.4143,-4.3286,-4.4036,-4.4979,-4.4767,-4.4162,-4.3855,-4.3701,-4.3662,-4.3893,-4.4008,-4.4047,-4.4316,-4.4633,-4.4684,-4.4959,-4.444,-4.3584,-4.3456,-4.3185,-4.3479,-4.3479,-4.3479,-4.3479,-4.3479,-4.3479,-4.3479,-4.3369,-4.302,-4.3112,-4.3296,-4.1901,-4.0543,-4.0763,-4.1111,-4.0359,-3.9808,-3.9824,-3.9622,-3.9038,-3.8946,-3.5616,-3.5616,-3.5616,-3.5616,-3.5616,-3.5616,-3.5616,-3.5616,-3.5616,-3.5616,-3.5616,-3.5616,-3.5616,-3.5616,-3.5616,-3.5616,-3.5616,-3.5616,-3.5616,-3.5616,-3.5616,-3.5616,-3.5616,-3.5622,-3.5711,-3.5832,-3.6161,-3.6623,-3.736,-3.8152,-3.8707,-3.8707,-3.8707,-3.8707,-3.8707,-3.8707,-3.8707,-3.8707,-3.8707,-3.8707,-3.8707,-3.8707,-3.8707,-3.8707,-3.8707,-3.8707,-3.8707,-3.8707,-3.8707,-3.8707,-3.8707,-3.8707,-3.8707,-3.8707,-3.8707,-3.8707,-3.8707,-3.8707,-3.8707,-3.8707,-3.8859,-3.899,-3.912,-3.9282,-3.9432,-3.9505,-3.9913,-4.1899,-4.3577,-4.4267,-4.5306,-4.5575,-4.5402,-4.5287,-4.4786,-4.4306,-4.4652,-4.5306,-4.5248,-4.4825,-4.4786,-4.4633,-4.4671,-4.4844,-4.471,-4.472,-4.4874,-4.5344,-4.5266,-4.5333,-4.4669,-4.371,-4.3614,-4.3531,-4.3479,-4.3479,-4.3479,-4.3479,-4.3479,-4.3479,-4.3479,-4.3479,-4.3479,-4.3479,-4.3479,-4.3479,-4.2818,-4.2616,-4.2378,-4.2378,-4.1862,-4.1364,-4.0774,-4.0075,-3.9212,-3.5616,-3.5616,-3.5616,-3.5616,-3.5616,-3.5616,-3.5616,-3.5616,-3.5616,-3.5616,-3.5616,-3.5616,-3.5616,-3.5616,-3.5616,-3.5616,-3.5616,-3.5616,-3.5616,-3.5616,-3.5616,-3.5616,-3.5622,-3.5672,-3.5832,-3.6139,-3.646,-3.6925,-3.7738,-3.835,-3.8707,-3.8707,-3.8707,-3.8707,-3.8707,-3.8707,-3.8707,-3.8707,-3.8707,-3.8707,-3.8707,-3.8707,-3.8707,-3.8707,-3.8707,-3.8707,-3.8707,-3.8707,-3.8707,-3.8707,-3.8707,-3.8707,-3.8707,-3.8707,-3.8707,-3.8707,-3.8707,-3.8707,-3.8704,-3.8732,-3.8898,-3.9131,-3.9302,-3.9462,-3.9557,-3.9599,-4.0781,-4.3244,-4.4825,-4.5306,-4.5594,-4.5556,-4.5537,-4.5479,-4.5421,-4.5325,-4.5229,-4.5402,-4.5575,-4.5594,-4.5594,-4.5594,-4.5594,-4.5556,-4.5479,-4.5421,-4.5402,-4.5446,-4.5044,-4.4905,-4.4581,-4.3852,-4.3679,-4.358,-4.3531,-4.3479,-4.3479,-4.3479,-4.3479,-4.3479,-4.3479,-4.3479,-4.3479,-4.3479,-4.3479,-4.3479,-4.3479,-4.3369,-4.3277,-4.3351,-4.3383,-4.2665,-4.2385,-4.1814,-4.0419,-3.5616,-3.5616,-3.5616,-3.5616,-3.5616,-3.5616,-3.5616,-3.5616,-3.5616,-3.5616,-3.5616,-3.5616,-3.5616,-3.5616,-3.5616,-3.5616,-3.5616,-3.5616,-3.5616,-3.5616,-3.5616,-3.5616,-3.5667,-3.581,-3.6075,-3.6395,-3.6944,-3.7524,-3.8183,-3.8465,-3.8707,-3.8707,-3.8707,-3.8707,-3.8707,-3.8707,-3.8707,-3.8707,-3.8707,-3.8707,-3.8707,-3.8707,-3.8707,-3.8707,-3.8707,-3.8707,-3.8707,-3.8707,-3.8707,-3.8707,-3.8707,-3.8707,-3.8707,-3.8707,-3.8707,-3.8707,-3.8707,-3.8707,-3.8735,-3.8815,-3.9008,-3.9295,-3.9603,-3.9819,-4.0053,-4.0282,-4.1724,-4.3989,-4.5037,-4.5594,-4.5594,-4.5575,-4.5575,-4.5537,-4.5518,-4.5479,-4.5441,-4.5518,-4.5594,-4.5594,-4.5594,-4.5594,-4.5594,-4.5594,-4.5537,-4.5537,-4.5594,-4.5594,-4.5173,-4.4594,-4.4233,-4.3943,-4.3758,-4.3614,-4.3513,-4.3479,-4.3479,-4.3479,-4.3479,-4.3479,-4.3479,-4.3479,-4.3479,-4.3479,-4.3479,-4.3479,-4.3479,-4.3479,-4.3479,-4.3442,-4.3682,-4.3815,-4.3582,-4.334,-4.2522,-3.5616,-3.5616,-3.5616,-3.5616,-3.5616,-3.5616,-3.5616,-3.5616,-3.5616,-3.5616,-3.5616,-3.5616,-3.5616,-3.5616,-3.5616,-3.5616,-3.5616,-3.5616,-3.5616,-3.5616,-3.5616,-3.5616,-3.5805,-3.6092,-3.6437,-3.6943,-3.756,-3.8048,-3.8578,-3.8707,-3.8707,-3.8707,-3.8707,-3.8707,-3.8707,-3.8707,-3.8707,-3.8707,-3.8707,-3.8707,-3.8707,-3.8707,-3.8707,-3.8707,-3.8707,-3.8707,-3.8707,-3.8707,-3.8707,-3.8707,-3.8707,-3.8707,-3.8707,-3.8707,-3.8707,-3.8707,-3.8707,-3.8735,-3.8803,-3.8961,-3.9269,-3.9611,-3.9932,-4.0243,-4.0485,-4.1511,-4.2923,-4.4162,-4.521,-4.5594,-4.5594,-4.5594,-4.5594,-4.5594,-4.5594,-4.5594,-4.5594,-4.5594,-4.5594,-4.5594,-4.5594,-4.5594,-4.5594,-4.5594,-4.5594,-4.5594,-4.5594,-4.5594,-4.5391,-4.4694,-4.415,-4.3927,-4.3775,-4.3647,-4.3513,-4.3479,-4.3479,-4.3479,-4.3479,-4.3479,-4.3479,-4.3479,-4.3479,-4.3479,-4.3479,-4.3479,-4.3479,-4.3479,-4.3479,-4.3531,-4.3924,-4.4233,-4.4255,-4.4133,-4.4535,-3.5616,-3.5616,-3.5616,-3.5616,-3.5616,-3.5616,-3.5616,-3.5616,-3.5616,-3.5616,-3.5616,-3.5616,-3.5616,-3.5616,-3.5616,-3.5616,-3.5616,-3.5616,-3.5616,-3.5616,-3.5711,-3.5667,-3.5854,-3.6399,-3.6906,-3.7542,-3.8133,-3.8515,-3.8707,-3.8707,-3.8707,-3.8707,-3.8707,-3.8707,-3.8707,-3.8707,-3.8707,-3.8707,-3.8707,-3.8707,-3.8707,-3.8707,-3.8707,-3.8707,-3.8707,-3.8707,-3.8707,-3.8707,-3.8707,-3.8707,-3.8707,-3.8707,-3.8707,-3.8707,-3.8707,-3.875,-3.875,-3.8873,-3.899,-3.9152,-3.9493,-3.9861,-4.0225,-4.0681,-4.1223,-4.2181,-4.3547,-4.4836,-4.5594,-4.5594,-4.5594,-4.5594,-4.5594,-4.5594,-4.5594,-4.5594,-4.5594,-4.5594,-4.5594,-4.5594,-4.5594,-4.5594,-4.5594,-4.5594,-4.5594,-4.5594,-4.5594,-4.5586,-4.5568,-4.4858,-4.4165,-4.3915,-4.3758,-4.3631,-4.3479,-4.3479,-4.3479,-4.3479,-4.3479,-4.3479,-4.3479,-4.3479,-4.3479,-4.3479,-4.3479,-4.3479,-4.3479,-4.3479,-4.3597,-4.3728,-4.4194,-4.4508,-4.4618,-4.4781,-4.5033]},{"header":{"parameterUnit":"m.s-1","parameterCategory":1,"la1":31.0,"la2":29.5877,"lo1":-88.7671,"lo2":-86.6584,"dy":0.0162,"dx":0.0185,"nx":115,"ny":88,"refTime":"2024-07-16T18:00:00:Z","depth":0,"parameterNumber":3,"parameterNumberName":"V-component_of_WINDS"},"data":[0.0,0.0,0.0,0.0,0.0,0.0,0.0,0.0,0.0,0.0,0.0,0.0,0.0,0.0,0.0,0.0,0.0,0.0,0.0,0.0,0.0,0.0,0.0,0.0,0.0,0.0,0.0,0.0,0.0,0.0,0.0,0.0,0.0,0.0,0.0,0.0,0.0,0.0,0.0,0.0,0.0,0.0,0.0,0.0,0.0,0.0,0.0,0.0,0.0,0.0,0.0,0.0,0.0,0.0,0.0,0.0,0.0,0.0,0.0,0.0,0.0,0.0,0.0,0.0,0.0,0.0,0.0,0.0,0.0,0.0,0.0,0.0,0.0,0.0,0.0,0.0,0.0,0.0,0.0,0.0,0.0,0.0,0.0,0.0,0.0,0.0,0.0,0.0,0.0,0.0,0.0,0.0,0.0,0.0,0.0,0.0,0.0,0.0,0.0,0.0,0.0,0.0,0.0,0.0,0.0,0.0,0.0,0.0,0.0,0.0,0.0,0.0,0.0,0.0,0.0,0.0,0.0,0.0,0.0,0.0,0.0,0.0,0.0,0.0,0.0,0.0,0.0,0.0,0.0,0.0,0.0,0.0,0.0,0.0,0.0,0.0,0.0,0.0,0.0,0.0,0.0,0.0,0.0,0.0,0.0,0.0,0.0,0.0,0.0,0.0,0.0,0.0,0.0,0.0,0.0,0.0,0.0,0.0,0.0,0.0,0.0,0.0,0.0,0.0,0.0,0.0,0.0,0.0,0.0,0.0,0.0,0.0,0.0,0.0,0.0,0.0,0.0,0.0,0.0,0.0,0.0,0.0,0.0,0.0,0.0,0.0,0.0,0.0,0.0,0.0,0.0,0.0,0.0,0.0,0.0,0.0,0.0,0.0,0.0,0.0,0.0,0.0,0.0,0.0,0.0,0.0,0.0,0.0,0.0,0.0,0.0,0.0,0.0,0.0,0.0,0.0,0.0,0.0,0.0,0.0,0.0,0.0,0.0,0.0,0.0,0.0,0.0,0.0,0.0,0.0,0.0,0.0,0.0,0.0,0.0,0.0,0.0,0.0,0.0,0.0,0.0,0.0,0.0,0.0,0.0,0.0,0.0,0.0,0.0,0.0,0.0,0.0,0.0,0.0,0.0,0.0,0.0,0.0,0.0,0.0,0.0,0.0,0.0,0.0,0.0,0.0,0.0,0.0,0.0,0.0,0.0,0.0,0.0,0.0,0.0,0.0,0.0,0.0,0.0,0.0,0.0,0.0,0.0,0.0,0.0,0.0,0.0,0.0,0.0,0.0,0.0,0.0,0.0,0.0,0.0,0.0,0.0,0.0,0.0,0.0,0.0,0.0,0.0,0.0,0.0,0.0,0.0,0.0,0.0,0.0,0.0,0.0,0.0,0.0,0.0,0.0,0.0,0.0,0.0,0.0,0.0,0.0,0.0,0.0,0.0,0.0,0.0,0.0,0.0,0.0,0.0,0.0,0.0,0.0,0.0,0.0,0.0,0.0,0.0,0.0,0.0,0.0,0.0,0.0,0.0,0.0,0.0,0.0,0.0,0.0,0.0,0.0,0.0,0.0,0.0,0.0,0.0,0.0,0.0,0.0,0.0,0.0,0.0,0.0,0.0,0.0,0.0,0.0,0.0,0.0,0.0,0.0,0.0,0.0,0.0,0.0,0.0,0.0,0.0,0.0,0.0,0.0,0.0,0.0,0.0,0.0,0.0,0.0,0.0,0.0,0.0,0.0,0.0,0.0,0.0,0.0,0.0,0.0,0.0,0.0,0.0,0.0,0.0,0.0,0.0,0.0,0.0,0.0,0.0,0.0,0.0,0.0,0.0,0.0,0.0,0.0,0.0,0.0,0.0,0.0,0.0,0.0,0.0,0.0,0.0,0.0,0.0,0.0,0.0,0.0,0.0,0.0,0.0,0.0,0.0,0.0,0.0,0.0,0.0,0.0,0.0,0.0,0.0,0.0,0.0,0.0,0.0,0.0,0.0,0.0,0.0,0.0,0.0,0.0,0.0,0.0,0.0,0.0,0.0,0.0,0.0,0.0,0.0,0.0,0.0,0.0,0.0,0.0,0.0,0.0,0.0,0.0,0.0,0.0,0.0,0.0,0.0,0.0,0.0,0.0,0.0,0.0,0.0,0.0,0.0,0.0,0.0,0.0,0.0,0.0,0.0,0.0,0.0,0.0,0.0,0.0,0.0,0.0,0.0,0.0,0.0,0.0,0.0,0.0,0.0,0.0,0.0,0.0,0.0,0.0,0.0,0.0,0.0,0.0,0.0,0.0,0.0,0.0,0.0,0.0,0.0,0.0,0.0,0.0,0.0,0.0,0.0,0.0,0.0,0.0,0.0,0.0,0.0,0.0,0.0,0.0,0.0,0.0,0.0,0.0,0.0,0.0,0.0,0.0,0.0,0.0,0.0,0.0,0.0,0.0,0.0,0.0,0.0,0.0,0.0,0.0,0.0,0.0,0.0,0.0,0.0,0.0,0.0,0.0,0.0,0.0,0.0,0.0,0.0,0.0,0.0,0.0,0.0,0.0,0.0,0.0,0.0,0.0,0.0,0.0,0.0,0.0,0.0,0.0,0.0,0.0,0.0,0.0,0.0,0.0,0.0,0.0,0.0,0.0,0.0,0.0,0.0,0.0,0.0,0.0,0.0,0.0,0.0,0.0,0.0,0.0,0.0,0.0,0.0,0.0,0.0,0.0,0.0,0.0,0.0,0.0,0.0,0.0,0.0,0.0,0.0,0.0,0.0,0.0,0.0,0.0,0.0,0.0,0.0,0.0,0.0,0.0,0.0,0.0,0.0,0.0,0.0,0.0,0.0,0.0,0.0,0.0,0.0,0.0,0.0,0.0,0.0,0.0,0.0,0.0,0.0,0.0,0.0,0.0,0.0,0.0,0.0,0.0,0.0,0.0,0.0,0.0,0.0,0.0,0.0,0.0,0.0,0.0,0.0,0.0,0.0,0.0,0.0,0.0,0.0,0.0,0.0,0.0,0.0,0.0,0.0,0.0,0.0,0.0,0.0,0.0,0.0,0.0,0.0,0.0,0.0,0.0,0.0,0.0,0.0,0.0,0.0,0.0,0.0,0.0,0.0,0.0,0.0,0.0,0.0,0.0,0.0,0.0,0.0,0.0,0.0,0.0,0.0,0.0,0.0,0.0,0.0,0.0,0.0,0.0,0.0,0.0,0.0,0.0,0.0,0.0,0.0,0.0,0.0,0.0,0.0,0.0,0.0,0.0,0.0,0.0,0.0,0.0,0.0,0.0,0.0,0.0,0.0,0.0,0.0,0.0,0.0,0.0,0.0,0.0,0.0,0.0,0.0,0.0,0.0,0.0,0.0,0.0,0.0,0.0,0.0,0.0,0.0,0.0,0.0,0.0,0.0,0.0,0.0,0.0,0.0,0.0,0.0,0.0,0.0,0.0,0.0,0.0,0.0,0.0,0.0,0.0,0.0,0.0,0.0,0.0,0.0,0.0,0.0,0.0,0.0,0.0,0.0,0.0,0.0,0.0,0.0,0.0,0.0,0.0,0.0,0.0,0.0,0.0,0.0,0.0,0.0,0.0,0.0,0.0,0.0,0.0,0.0,0.0,0.0,0.0,0.0,0.0,0.0,0.0,0.0,0.0,0.0,0.0,0.0,0.0,0.0,0.0,0.0,0.0,0.0,0.0,0.0,0.0,0.0,0.0,0.0,0.0,0.0,0.0,0.0,0.0,0.0,0.0,0.0,0.0,0.0,0.0,0.0,0.0,0.0,0.0,0.0,0.0,0.0,0.0,0.0,0.0,0.0,0.0,0.0,0.0,0.0,0.0,0.0,0.0,0.0,0.0,0.0,0.0,0.0,0.0,0.0,0.0,0.0,0.0,0.0,0.0,0.0,0.0,0.0,0.0,0.0,0.0,0.0,0.0,0.0,0.0,0.0,0.0,0.0,0.0,0.0,0.0,0.0,0.0,0.0,0.0,0.0,0.0,0.0,0.0,0.0,0.0,0.0,0.0,0.0,0.0,0.0,0.0,0.0,0.0,0.0,0.0,0.0,0.0,0.0,0.0,0.0,0.0,0.0,0.0,0.0,0.0,0.0,0.0,0.0,0.0,0.0,0.0,0.0,0.0,0.0,0.0,0.0,0.0,0.0,0.0,0.0,0.0,0.0,0.0,0.0,0.0,0.0,0.0,0.0,0.0,0.0,0.0,0.0,0.0,0.0,0.0,0.0,0.0,0.0,0.0,0.0,0.0,0.0,0.0,0.0,0.0,0.0,0.0,0.0927,0.0,0.0,0.0,0.0,0.0,0.0,0.0,0.0,0.0,0.0,0.0,0.0,0.0,0.0,0.0,0.0,0.0,0.0,0.0,0.0,0.0,0.0,0.0,0.0,0.0,0.0,0.0,0.0,0.0,0.0,0.0,0.0,0.0,0.0,0.0,0.0,0.0,0.0,0.0,0.0,0.0,0.0,0.0,0.0,0.0,0.0,0.0,0.0,0.0,0.0,0.0,0.0,0.0,0.0,0.0,0.0,0.0,0.0,0.0,0.0,0.0,0.0,0.0,0.0,0.0,0.0,0.0,0.0,0.0,0.0,0.0,0.0,0.0,0.0,0.0,0.0,0.0,0.0,0.0,0.0,0.0,0.0,0.0,0.0,0.0,0.0,0.0,0.0,0.0,0.0,0.0,0.0,0.0,0.0,0.0,0.0,0.0,0.0,0.0,0.0,0.0,0.0,0.0,0.0,0.0,0.0,0.0,0.0,0.0,0.0,0.0256,0.039,0.0513,0.0648,0.0779,0.0,0.0,0.0,0.0,0.0,0.0,0.0,0.0,0.0,0.0,0.0,0.0,0.0,0.0,0.0,0.0,0.0,0.0,0.0,0.0,0.0,0.0,0.0,0.0,0.0,0.0,0.0,0.0,0.0,0.0,0.0,0.0,0.0,0.0,0.0,0.0,0.0,0.0,0.0,0.0,0.0,0.0,0.0,0.0,0.0,0.0,0.0,0.0,0.0,0.0,0.0,0.0,0.0,0.0,0.0,0.0,0.0,0.0,0.0,0.0,0.0,0.0,0.0,0.0,0.0,0.0,0.0,0.0,0.0,0.0,0.0,0.0,0.0,0.0,0.0,0.0,0.0,0.0,0.0,0.0,0.0,0.0,0.0,0.0,0.0,0.0,0.0,0.0,0.0,0.0,0.0,0.0,0.0,0.0,0.0,0.0,0.0,0.0,0.0,0.0,0.0,0.0,0.0,0.0,0.0,0.0,0.0,0.0,0.0,0.0,0.0,0.0,0.0363,0.0518,0.0723,0.0,0.0,0.0,0.0,0.0,0.0,0.0,0.0,0.0,0.0,0.0,0.0,0.0,0.0,0.0,0.0,0.0,0.0,0.0,0.0,0.0,0.0,0.0,0.0,0.0,0.0,0.0,0.0,0.0,0.0,0.0,0.0,0.0,0.0,0.0,0.0,0.0,0.0,0.0,0.0,0.0,0.0,0.0,0.0,0.0,0.0,0.0,0.0,0.0,0.0,0.0,0.0,0.0,0.0,0.0,0.0,0.0,0.0,0.0,0.0,0.0,0.0,0.0,0.0,0.0,0.0,0.0,0.0,0.0,0.0,0.0,0.0,0.0,0.0,0.0,0.0,0.0,0.0,0.0,0.0,0.0,0.0,0.0,0.0,0.0,0.0,0.0,0.0,0.0,0.0,0.0,0.0,0.0,0.0,0.0,0.0,0.0,0.0,0.0,0.0,0.0,0.0,0.0,0.0,0.0,0.0,0.0,0.0,0.0,0.0,-0.0111,0.0017,0.0161,0.0,0.0768,0.0,0.0,0.0,0.0,0.0,0.0,0.0,0.0,0.0,0.0,0.0,0.0,0.0,0.0,0.0,0.0,0.0,0.0,0.0,0.0,0.0,0.0,0.0,0.0,0.0,0.0,0.0,0.0,0.0,0.0,0.0,0.0,0.0,0.0,0.0,0.0,0.0,0.0,0.0,0.0,0.0,0.0,0.0,0.0,0.0,0.0,0.0,0.0,0.0,0.0,0.0,0.0,0.0,0.0,0.0,0.0,0.0,0.0,0.0,0.0,0.0,0.0,0.0,0.0,0.0,0.0,0.0,0.0,0.0,0.0,0.0,0.0,0.0,0.0,0.0,0.0,0.0,0.0,0.0,0.0,0.0,0.0,0.0,0.0,0.0,0.0,0.0,0.0,0.0,0.0,0.0,0.0,0.0,0.0,0.0,0.0,0.0,0.0,0.0,0.0,0.0,0.0,0.0,0.0,0.0,0.0,0.0,0.0,0.0,0.0,-0.0256,-0.0111,0.0117,0.0396,0.0,0.0,0.0,0.0,0.0,0.0,0.0,0.0,0.0,0.0,0.0,0.0,0.0,0.0,0.0,0.0,0.0,0.0,0.0,0.0,0.0,0.0,0.0,0.0,0.0,0.0,0.0,0.0,0.0,0.0,0.0,0.0,0.0,0.0,0.0,0.0,0.0,0.0,0.0,0.0,0.0,0.0,0.0,0.0,0.0,0.0,0.0,0.0,0.0,0.0,0.0,0.0,0.0,0.0,0.0,0.0,0.0,0.0,0.0,0.0,0.0,0.0,0.0,0.0,0.0,0.0,0.0,0.0,0.0,0.0,0.0,0.0,0.0,0.0,0.0,0.0,0.0,0.0,0.0,0.0,0.0,0.0,0.0,0.0,0.0,0.0,0.0,0.0,0.0,0.0,0.0,0.0,0.0,0.0,0.0,0.0,0.0,0.0,0.0,0.0,0.0,0.0,0.0,0.0,0.0,0.0,0.0,0.0,0.0,0.0,-0.0524,0.0,-0.0195,0.0089,0.0346,0.0535,0.0,0.0,0.0,0.0,0.0,0.0,0.0,0.0,0.0,0.0,0.0,0.0,0.0,0.0,0.0,0.0,0.0,0.0,0.0,0.0,0.0,0.0,0.0,0.0,0.0,0.0,0.0,0.0,0.0,0.0,0.0,0.0,0.0,0.0,0.0,0.0,0.0,0.0,0.0,0.0,0.0,0.0,0.0,0.0,0.0,0.0,0.0,0.0,0.0,0.0,0.0,0.0,0.0,0.0,0.0,0.0,0.0,0.0,0.0,0.0,0.0,0.0,0.0,0.0,0.0,0.0,0.0,0.0,0.0,0.0,0.0,0.0,0.0,0.0,0.0,0.0,0.0,0.0,0.0,0.0,0.0,0.0,0.0,0.0,0.0,0.0,0.0,0.0,0.0,0.0,0.0,0.0,0.0,0.0,0.0,0.0,0.0,0.0,0.0,0.0,0.0,0.0,0.0,0.0,0.0,0.0,0.0,0.0,0.0,-0.067,-0.0453,-0.0208,-0.0006,0.0206,0.0,0.0,0.0,0.0,0.0,0.0,0.0,0.0,0.0,0.0,0.0,0.0,0.0,0.0,0.0,0.0,0.0,0.0,0.0,0.0,0.0,0.0,0.0,0.0,0.0,0.0,0.0,0.0,0.0,0.0,0.0,0.0,0.0,0.0,0.0,0.0,0.0,0.0,0.0,0.0,0.0,0.0,0.0,0.0,0.0,0.0,0.0,0.0,0.0,0.0,0.0,0.0,0.0,0.0,0.0,0.0,0.0,0.0,0.0,0.0,0.0,0.0,0.0,0.0,0.0,0.0,0.0,0.0,0.0,0.0,0.0,0.0,0.0,0.0,0.0,0.0,0.0,0.0,0.0,0.0,0.0,0.0,0.0,0.0,0.0,0.0,0.0,0.0,0.0,0.0,0.0,0.0,0.0,0.0,0.0,0.0,0.0,0.0,0.0,0.0,0.0,0.0,0.0,0.0,0.0,0.0,0.0,0.0,0.0,-0.1118,-0.0958,-0.078,-0.0585,-0.0266,0.0007,0.0,0.0,0.0,0.0,0.0,0.0,0.0,0.0,0.0,0.0,0.0,0.0,0.0,0.0,0.0,0.0,0.0,0.0,0.0,0.0,0.0,0.0,0.0,0.0,0.0,0.0,0.0,0.0,0.0,0.0,0.0,0.0,0.0,0.0,0.0,0.0,0.0,0.0,0.0,0.0,0.0,0.0,0.0,0.0,0.0,0.0,0.0,0.0,0.0,0.0,0.0,0.0,0.0,0.0,0.0,0.0,0.0,0.0,0.0,0.0,0.0,0.0,0.0,0.0,0.0,0.0,0.0,0.0,0.0,0.0,0.0,0.0,0.0,0.0,0.0,0.0,0.0,0.0,0.0,0.0,0.0,0.0,0.0,0.0,0.0,0.0,0.0,0.0,0.0,0.0,0.0,0.0,0.0,0.0,0.0,0.0,0.0,0.0,0.0,0.0,0.0,0.0,0.0,0.0,0.0,0.0,0.0,0.0,0.0,-0.1388,0.0,-0.1021,0.0,-0.0488,-0.0194,0.0,0.0,0.0,0.0,0.0,0.0,0.0,0.0,0.0,0.0,0.0,0.0,0.0,0.0,0.0,0.0,0.0,0.0,0.0,0.0,0.0,0.0,0.0,0.0,0.0,0.0,0.0,0.0,0.0,0.0,0.0,0.0,0.0,0.0,0.0,0.0,0.0,0.0,0.0,0.0,0.0,0.0,0.0,0.0,0.0,0.0,0.0,0.0,0.0,0.0,0.0,0.0,0.0,0.0,0.0,0.0,0.0,0.0,0.0,0.0,0.0,0.0,0.0,0.0,0.0,0.0,0.0,0.0,0.0,0.0,0.0,0.0,0.0,0.0,0.0,0.0,0.0,0.0,0.0,0.0,0.0,0.0,0.0,0.0,0.0,0.0,0.0,0.0,0.0,0.0,0.0,0.0,0.0,0.0,0.0,0.0,0.0,0.0,0.0,0.0,0.0,0.0,0.0,0.0,0.0,0.0,0.0,0.0,-0.1753,-0.162,-0.1429,-0.1204,-0.0918,-0.0653,-0.0357,0.0,0.0,0.0,0.0,0.0,0.0,0.0,0.0,0.0,0.0,0.0,0.0,0.0,0.0,0.0,0.0,0.0,0.0,0.0,0.0,0.0,0.0,0.0,0.0,0.0,0.0,0.0,0.0,0.0,0.0,0.0,0.0,0.0,0.0,0.0,0.0,0.0,0.0,0.0,0.0,0.0,0.0,0.0,0.0,0.0,0.0,0.0,0.0,0.0,0.0,0.0,0.0,0.0,0.0,0.0,0.0,0.0,0.0,0.0,0.0,0.0,0.0,0.0,0.0,0.0,0.0,0.0,0.0,0.0,0.0,0.0,0.0,0.0,0.0,0.0,0.0,0.0,0.0,0.0,0.0,0.0,0.0,0.0,0.0,0.0,0.0,0.0,0.0,0.0,0.0,0.0,0.0,0.0,0.0,0.0,0.0,0.0,0.0,0.0,0.0,0.0,0.0,0.0,0.0,0.0,0.0,0.0,0.0,0.0,-0.2161,-0.205,-0.1845,-0.1514,-0.1034,-0.0626,0.0,0.0,0.0,0.0,0.0,0.0,0.0,0.0,0.0,0.0,0.0,0.0,0.0,0.0,0.0,0.0,0.0,0.0,0.0,0.0,0.0,0.0,0.0,0.0,0.0,0.0,0.0,0.0,0.0,0.0,0.0,0.0,0.0,0.0,0.0,0.0,0.0,0.0,0.0,0.0,0.0,0.0,0.0,0.0,0.0,0.0,0.0,0.0,0.0,0.0,0.0,0.0,0.0,0.0,0.0,0.0,0.0,0.0,0.0,0.0,0.0,0.0,0.0,0.0,0.0,0.0,0.0,0.0,0.0,0.0,0.0,0.0,0.0,0.0,0.0,0.0,0.0,0.0,0.0,0.0,0.0,0.0,0.0,0.0,0.0,0.0,0.0,0.0,0.0,0.0,0.0,0.0,0.0,0.0,0.0,0.0,0.0,0.0,0.0,0.0,0.0,0.0,0.0,0.0,0.0,0.0,0.0,0.0,0.0,-0.2936,-0.2666,-0.2292,-0.1837,-0.1404,-0.0936,-0.0448,0.0,0.0,0.0,0.0,0.0,0.0,0.0,0.0,0.0,0.0,0.0,0.0,0.0,0.0,0.0,0.0,0.0,0.0,0.0,0.0,0.0,0.0,0.0,0.0,0.0,0.0,0.0,0.0,0.0,0.0,0.0,0.0,0.0,0.0,0.0,0.0,0.0,0.0,0.0,0.0,0.0,0.0,0.0,0.0,0.0,0.0,0.0,0.0,0.0,0.0,0.0,0.0,0.0,0.0,0.0,0.0,0.0,0.0,0.0,0.0,0.0,0.0,0.0,0.0,0.0,0.0,0.0,0.0,0.0,0.0,0.0,0.0,0.0,0.0,0.0,0.0,0.0,0.0,0.0,0.0,0.0,0.0,0.0,0.0,0.0,0.0,0.0,0.0,0.0,0.0,0.0,0.0,0.0,0.0,0.0,0.0,0.0,0.0,0.0,0.0,0.0,0.0,0.0,0.0,0.0,0.0,0.0,0.0,-0.3848,-0.3296,-0.268,-0.1985,-0.1751,-0.1297,0.0,0.0,0.0,0.0,0.0,0.0,0.0,0.0,0.0,0.0,0.0,0.0,0.0,0.0,0.0,0.0,0.0,0.0,0.0,0.0,0.0,0.0,0.0,0.0,0.0,0.0,0.0,0.0,0.0,0.0,0.0,0.0,0.0,0.0,0.0,0.0,0.0,0.0,0.0,0.0,0.0,0.0,0.0,0.0,0.0,0.0,0.0,0.0,0.0,0.0,0.0,0.0,0.0,0.0,0.0,0.0,0.0,0.0,0.0,0.0,0.0,0.0,0.0,0.0,0.0,0.0,0.0,0.0,0.0,0.0,0.0,0.0,0.0,0.0,0.0,0.0,0.0,0.0,0.0,0.0,0.0,0.0,0.0,0.0,0.0,0.0,0.0,0.0,0.0,0.0,0.0,0.0,0.0,0.0,0.0,0.0,0.0,0.0,0.0,0.0,0.0,0.0,0.0,0.0,0.0,0.0,0.0,0.0,0.0,-0.4346,-0.4301,-0.3785,-0.275,-0.2137,-0.1584,0.0,0.0,0.0,0.0,0.0,0.0,0.0,0.0,0.0,0.0,0.0,0.0,0.0,0.0,0.0,0.0,0.0,0.0,0.0,0.0,0.0,0.0,0.0,0.0,0.0,0.0,0.0,0.0,0.0,0.0,0.0,0.0,0.0,0.0,0.0,0.0,0.0,0.0,0.0,0.0,0.0,0.0,0.0,0.0,0.0,0.0,0.0,0.0,0.0,0.0,0.0,0.0,0.0,0.0,0.0,0.0,0.0,0.0,0.0,0.0,0.0,0.0,0.0,0.0,0.0,0.0,0.0,0.0,0.0,0.0,0.0,0.0,0.0,0.0,0.0,0.0,0.0,0.0,0.0,0.0,0.0,0.0,0.0,0.0,0.0,0.0,0.0,0.0,0.0,0.0,0.0,0.0,0.0,0.0,0.0,0.0,0.0,0.0,0.0,0.0,0.0,0.0,0.0,0.0,0.0,0.0,0.0,0.0,-0.5049,-0.4668,-0.4781,-0.439,-0.3457,-0.2659,-0.1948,0.0,0.0,0.0,0.0,0.0,0.0,0.0,0.0,0.0,0.0,0.0,0.0,0.0,0.0,0.0,0.0,0.0,0.0,0.0,0.0,0.0,0.0,0.0,0.0,0.0,0.0,0.0,0.0,0.0,0.0,0.0,0.0,0.0,0.0,0.0,0.0,0.0,0.0,0.0,0.0,0.0,0.0,0.0,0.0,0.0,0.0,0.0,0.0,0.0,0.0,0.0,0.0,0.0,0.0,0.0,0.0,0.0,0.0,0.0,0.0,0.0,0.0,0.0,0.0,0.0,0.0,0.0,0.0,0.0,0.0,0.0,0.0,0.0,0.0,0.0,0.0,0.0,0.0,0.0,0.0,0.0,0.0,0.0,0.0,0.0,0.0,0.0,0.0,0.0,0.0,0.0,0.0,0.0,0.0,0.0,0.0,0.0,0.0,0.0,0.0,0.0,0.0,0.0,0.0,0.0,0.0,0.0,0.0,-0.5226,-0.4958,-0.4907,-0.4634,-0.4029,-0.3181,-0.2359,0.0,0.0,0.0,0.0,0.0,0.0,0.0,0.0,0.0,0.0,0.0,0.0,0.0,0.0,0.0,0.0,0.0,0.0,0.0,0.0,0.0,0.0,0.0,0.0,0.0,0.0,0.0,0.0,0.0,0.0,0.0,0.0,0.0,0.0,0.0,0.0,0.0,0.0,0.0,0.0,0.0,0.0,0.0,0.0,0.0,0.0,0.0,0.0,0.0,0.0,0.0,0.0,0.0,0.0,0.0,0.0,0.0,0.0,0.0,0.0,0.0,0.0,0.0,0.0,0.0,0.0,0.0,0.0,0.0,0.0,0.0,0.0,0.0,0.0,0.0,0.0,0.0,0.0,0.0,0.0,0.0,0.0,0.0,0.0,0.0,0.0,0.0,0.0,0.0,0.0,0.0,0.0,0.0,0.0,0.0,0.0,0.0,0.0,0.0,0.0,0.0,0.0,0.0,0.0,0.0,0.0,0.0,0.0,-0.5546,-0.5216,-0.5117,-0.4779,-0.4173,-0.3409,-0.2759,0.0,0.0,0.0,0.0,0.0,0.0,0.0,0.0,0.0,0.0,0.0,0.0,0.0,0.0,0.0,0.0,0.0,0.0,0.0,0.0,0.0,0.0,0.0,0.0,0.0,0.0,0.0,0.0,0.0,0.0,0.0,0.0,0.0,0.0,0.0,0.0,0.0,0.0,0.0,0.0,0.0,0.0,0.0,0.0,0.0,0.0,0.0,0.0,0.1999,0.0,0.0,0.0,0.0,0.0,0.0,0.0,0.0,0.0,0.0,0.0,0.0,0.0,0.0,0.0,0.0,0.0,0.0,0.0,0.0,0.0,0.0,0.0,0.0,0.0,0.0,0.0,0.0,0.0,0.0,0.0,0.0,0.0,0.0,0.0,0.0,0.0,0.0,0.0,0.0,0.0,0.0,0.0,0.0,0.0,0.0,0.0,0.0,0.0,0.0,0.0,0.0,0.0,0.0,0.0,0.0,0.0,0.0,0.0,-0.5815,-0.5457,-0.5332,-0.4976,-0.4361,-0.3757,-0.3111,0.0,0.0,0.0,0.0,0.0,0.0,0.0,0.0,0.0,0.0,0.0,0.0,0.0,0.0,0.0,0.0,0.0,0.0,0.0,0.0,0.0,0.0,0.0,0.0,0.0,0.0,0.0,0.0,0.0,0.0,0.0,0.0,0.0,0.0,0.0,0.0,0.0,0.0,0.0,0.0,0.0,0.0,0.0,0.0,0.0,0.0,0.0,0.0,0.0,0.0,0.0,0.0,0.0,0.0,0.0,0.0,0.0,0.0,0.0,0.0,0.0,0.0,0.0,0.0,0.0,0.0,0.0,0.0,0.0,0.0,0.0,0.0,0.0,0.0,0.0,0.0,0.0,0.0,0.0,0.0,0.0,0.0,0.0,0.0,0.0,0.0,0.0,0.0,0.0,0.0,0.0,0.0,0.0,0.0,0.0,0.0,0.0,0.0,0.0,0.0,0.0,0.0,0.0,0.0,0.0,0.0,0.0,-0.6183,-0.6063,-0.5653,-0.5536,-0.5191,-0.4512,-0.4039,-0.3414,-0.2631,0.0,0.0,0.0,0.0,0.0,0.0,0.0,0.0,0.0,0.0,0.0,0.0,0.0,0.0,0.0,0.0,0.0,0.0,0.0,0.0,0.0,0.0,0.0,0.0,0.0,0.0,0.0,0.0,0.0,0.0,0.0,0.0,0.0,0.0,0.0,0.0,0.0,0.0,0.119,0.1374,0.0,0.0,0.0,0.0,0.0,0.0,0.0,0.0,-0.0102,0.0,0.0,0.0,0.0,0.0,0.0,0.0,0.0,0.0,0.0,0.0,0.0,0.0,0.0,0.0,0.0,0.0,0.0,0.0,0.0,0.0,0.0,0.0,0.0,0.0,0.0,0.0,0.0,0.0,0.0,0.0,0.0,0.0,0.0,0.0,0.0,0.0,0.0,0.0,0.0,0.0,0.0,0.0,0.0,0.0,0.0,0.0,0.0,0.0,0.0,0.0,0.0,0.0,0.0,0.0,0.0,-0.6072,-0.6432,-0.6344,-0.5795,-0.5584,-0.5191,-0.4508,-0.4043,-0.3573,-0.3093,0.0,0.0,0.0,0.0,0.0,0.0,0.0,0.0,0.0,0.0,0.0,0.0,0.0,0.0,0.0,0.0,0.0,0.0,0.0,0.0,0.0,0.0,0.0,0.0,0.0,0.0,0.0,0.0,0.0,0.0,0.0,0.0,0.0,0.0,0.0,0.0,0.0,0.0,0.0,0.0942,0.1093,0.0,0.0,0.0,0.0,0.0,0.0,0.0,0.0,-0.2019,0.0,0.0,0.0,0.0,0.0,0.0,0.0,0.0,0.0,0.0,0.0,0.0,0.0,0.0,0.0,0.0,0.0,0.0,0.0,0.0,0.0,0.0,0.0,0.0,0.0,0.0,0.0,0.0,0.0,0.0,0.0,0.0,0.0,0.0,0.0,0.0,0.0,0.0,0.0,0.0,0.0,0.0,0.0,0.0,0.0,0.0,0.0,0.0,0.0,0.0,0.0,0.0,0.0,0.0,0.0,-0.6611,-0.6972,-0.6783,-0.6052,-0.6065,-0.5574,-0.4539,-0.412,-0.3681,0.0,0.0,0.0,0.0,0.0,0.0,0.0,0.0,0.0,0.0,0.0,0.0,0.0,0.0,0.0,0.0,0.0,0.0,0.0,0.0,0.0,0.0,0.0,0.0,0.0,0.0,0.0,0.0,0.0,0.0,0.0,0.0,0.0,0.0,0.0,0.0,0.0,0.0,0.0,0.0,0.041,0.0573,0.0352,0.0,0.0,0.0,0.0,0.0,0.0,-0.2187,-0.2904,0.0,0.0,0.0,0.0,0.0,0.0,0.0,0.0,0.0,0.0,0.0,0.0,0.0,0.0,0.0,0.0,0.0,0.0,0.0,0.0,0.0,0.0,0.0,0.0,0.0,0.0,0.0,0.0,0.0,0.0,0.0,0.0,0.0,0.0,0.0,0.0,0.0,0.0,0.0,0.0,0.0,0.0,0.0,0.0,0.0,0.0,0.0,0.0,0.0,0.0,0.0,0.0,0.0,0.0,0.0,-0.7056,-0.7494,-0.7215,-0.6278,-0.6468,-0.5937,-0.4539,-0.4146,-0.3733,0.0,0.0,0.0,0.0,0.0,0.0,0.0,0.0,0.0,0.0,0.0,0.0,0.0,0.0,0.0,0.0,0.0,0.0,0.0,0.0,0.0,0.0,0.0,0.0,0.0,0.0,0.0,0.0,0.0,0.0,0.0,0.0,0.0,0.0,0.0,0.0,0.0,0.0,0.0,0.0,0.0,-0.0106,-0.0683,-0.1742,0.0,0.0,0.0,0.0,-0.1731,-0.2823,0.0,0.0,0.0,0.0,0.0,0.0,0.0,0.0,0.0,0.0,0.0,0.0,0.0,0.0,0.0,0.0,0.0,0.0,0.0,0.0,0.0,0.0,0.0,0.0,0.0,0.0,0.0,0.0,0.0,0.0,0.0,0.0,0.0,0.0,0.0,0.0,0.0,0.0,0.0,0.0,0.0,0.0,0.0,0.0,0.0,0.0,0.0,0.0,0.0,0.0,0.0,0.0,0.0,0.0,0.0,0.0,-0.7006,-0.7686,-0.7431,-0.6288,-0.6468,-0.5937,-0.4539,-0.4068,-0.3685,0.0,0.0,0.0,0.0,0.0,0.0,0.0,0.0,0.0,0.0,0.0,0.0,0.0,0.0,0.0,0.0,0.0,0.0,0.0,0.0,0.0,0.0,0.0,0.0,0.0,0.0,0.0,0.0,0.0,0.0,0.0,0.0,0.0,0.0,0.0,0.0,0.0,0.0,0.0,0.0,0.0,-0.1114,-0.1589,-0.3009,-0.3973,0.0,0.0,-0.2209,-0.2441,-0.3108,0.0,0.0,0.0,0.0,0.0,0.0,0.0,0.0,0.0,0.0,0.0,0.0,0.0,0.0,0.0,0.0,0.0,0.0,0.0,0.0,0.0,0.0,0.0,0.0,0.0,0.0,0.0,0.0,0.0,0.0,0.0,0.0,0.0,0.0,0.0,0.0,0.0,0.0,0.0,0.0,0.0,0.0,0.0,0.0,0.0,0.0,0.0,0.0,0.0,0.0,0.0,0.0,0.0,0.0,0.0,-0.6302,-0.7201,-0.772,-0.7671,-0.7085,-0.6753,-0.6122,-0.5109,-0.4326,-0.376,0.0,0.0,0.0,0.0,0.0,0.0,0.0,0.0,0.0,0.0,0.0,0.0,0.0,0.0,0.0,0.0,0.0,0.0,0.0,0.0,0.0,0.0,0.0,0.0,0.0,0.0,0.0,0.0,0.0,0.0,0.0,0.0,0.0,0.0,0.0,0.0,0.0,0.0,0.0,0.0,0.0,0.0,-0.2416,-0.385,0.0,0.0,0.0,-0.3262,-0.3382,0.0,0.0,0.0,0.0,0.0,0.0,0.0,0.0,0.0,0.0,0.0,0.0,0.0,0.0,0.0,0.0,0.0,0.0,0.0,0.0,0.0,0.0,0.0,0.0,0.0,0.0,0.0,0.0,0.0,0.0,0.0,0.0,0.0,0.0,0.0,0.0,0.0,0.0,0.0,0.0,0.0,0.0,0.0,0.0,0.0,0.0,0.0,0.0,0.0,0.0,0.0,0.0,0.0,0.0,0.0,0.0,0.0,-0.7356,-0.7713,-0.7833,-0.77,-0.7155,-0.6443,-0.5534,-0.4705,0.0,0.0,0.0,0.0,0.0,0.0,0.0,0.0,0.0,0.0,0.0,0.0,0.0,0.0,0.0,0.0,0.0,0.0,0.0,0.0,0.0,0.0,0.0,0.0,0.0,0.0,0.0,-0.1485,0.0,0.0,0.0,0.0,0.0,0.0,0.0,0.0,0.0,0.0,0.0,0.0,0.0,0.0,-0.2994,-0.3221,-0.4943,-0.6247,0.0,0.0,-0.4499,-0.469,-0.5205,-0.5558,0.0,0.0,0.0,0.0,0.0,0.0,0.0,0.0,0.0,0.0,0.0,0.0,0.0,0.0,0.0,0.0,0.0,0.0,0.0,0.0,0.0,0.0,0.0,0.0,0.0,0.0,0.0,0.0,0.0,0.0,0.0,0.0,0.0,0.0,0.0,0.0,0.0,0.0,0.0,0.0,0.0,0.0,0.0,0.0,0.0,0.0,0.0,0.0,0.0,0.0,0.0,0.0,0.0,0.0,0.0,-0.728,-0.7713,-0.784,-0.77,-0.7643,-0.6961,-0.5565,-0.5212,-0.4629,0.0,0.0,0.0,0.0,0.0,0.0,0.0,0.0,0.0,0.0,0.0,0.0,0.0,0.0,0.0,0.0,0.0,0.0,0.0,0.0,0.0,0.0,0.0,0.0,0.0,0.0,0.0,0.0,0.0,0.0,0.0,0.0,0.0,0.0,0.0,0.0,0.0,0.0,0.0,0.0,0.0,-0.3766,-0.391,-0.6591,-0.8364,0.0,-0.6692,-0.6041,-0.6611,-0.7701,-0.8082,-0.679,0.0,0.0,0.0,0.0,0.0,0.0,0.0,0.0,0.0,0.0,0.0,0.0,0.0,0.0,0.0,0.0,0.0,0.0,0.0,0.0,0.0,0.0,0.0,0.0,0.0,0.0,0.0,0.0,0.0,0.0,0.0,0.0,0.0,0.0,0.0,0.0,0.0,0.0,0.0,0.0,0.0,0.0,0.0,0.0,0.0,0.0,0.0,0.0,0.0,0.0,0.0,0.0,0.0,-0.6567,-0.7294,-0.7713,-0.8062,-0.8343,-0.7937,-0.7423,-0.6875,-0.6081,-0.54,0.0,0.0,0.0,0.0,0.0,0.0,0.0,0.0,0.0,0.0,0.0,0.0,0.0,0.0,0.0,0.0,0.0,0.0,0.0,0.0,0.0,0.0,0.0,0.0,0.0,0.0,0.0,0.0,-0.2769,-0.3011,-0.3237,0.0,0.0,0.0,0.0,0.0,0.0,0.0,0.0,0.0,0.0,-0.4695,-0.5668,-0.7522,0.0,0.0,-0.7709,-0.7238,-0.7501,-0.8228,-0.8625,-0.8087,-0.7121,0.0,0.0,0.0,0.0,0.0,0.0,0.0,0.0,0.0,0.0,0.0,0.0,0.0,0.0,0.0,0.0,0.0,0.0,0.0,0.0,0.0,0.0,0.0,0.0,0.0,0.0,0.0,0.0,0.0,0.0,0.0,0.0,0.0,0.0,0.0,0.0,0.0,0.0,0.0,0.0,0.0,0.0,0.0,0.0,0.0,0.0,0.0,0.0,0.0,0.0,0.0,0.0,-0.6673,-0.7447,-0.7738,-0.8192,-0.8798,-0.8289,-0.7943,-0.7685,-0.6884,-0.6176,0.0,0.0,0.0,0.0,0.0,0.0,0.0,0.0,0.0,0.0,0.0,0.0,0.0,0.0,0.0,0.0,0.0,0.0,0.0,0.0,0.0,0.0,0.0,0.0,0.0,0.0,0.0,0.0,-0.3242,-0.3466,-0.3801,0.0,0.0,0.0,0.0,0.0,0.0,0.0,0.0,0.0,0.0,-0.5909,-0.6866,-0.8018,-0.8778,-0.8778,-0.8421,-0.8143,-0.8176,-0.8533,-0.8778,-0.8778,0.0,0.0,0.0,0.0,0.0,0.0,0.0,0.0,0.0,0.0,0.0,0.0,0.0,0.0,0.0,0.0,0.0,0.0,0.0,0.0,0.0,0.0,0.0,0.0,0.0,0.0,0.0,-1.0908,0.0,0.0,-1.047,0.0,0.0,0.0,0.0,0.0,0.0,0.0,0.0,0.0,0.0,0.0,0.0,0.0,0.0,0.0,0.0,0.0,0.0,0.0,0.0,0.0,0.0,-0.6921,-0.776,-0.7869,-0.8192,-0.8758,-0.8778,-0.8427,-0.7744,-0.7536,-0.7004,-0.6024,0.0,0.0,0.0,0.0,0.0,0.0,0.0,0.0,0.0,0.0,0.0,0.0,0.0,0.0,0.0,0.0,0.0,0.0,0.0,0.0,0.0,0.0,0.0,0.0,0.0,0.0,-0.3376,-0.3648,-0.4008,0.0,0.0,0.0,0.0,0.0,0.0,0.0,0.0,0.0,-0.7919,-0.7689,-0.7438,-0.726,-0.8101,-0.8778,-0.8778,-0.8778,-0.8752,-0.8752,-0.8778,-0.8778,0.0,0.0,0.0,0.0,0.0,0.0,0.0,0.0,0.0,0.0,0.0,0.0,0.0,0.0,0.0,0.0,0.0,0.0,0.0,0.0,0.0,0.0,0.0,0.0,0.0,0.0,0.0,-1.2695,-1.2521,0.0,0.0,0.0,0.0,0.0,0.0,0.0,0.0,0.0,0.0,0.0,-1.1075,-1.0308,0.0,0.0,0.0,0.0,0.0,0.0,0.0,0.0,0.0,0.0,0.0,0.0,-0.7321,-0.7669,-0.8041,-0.8417,-0.8765,-0.8778,-0.8699,-0.8454,-0.8236,-0.7605,-0.6566,0.0,0.0,0.0,0.0,0.0,0.0,0.0,0.0,0.0,0.0,0.0,0.0,0.0,0.0,0.0,0.0,0.0,0.0,0.0,0.0,0.0,0.0,0.0,0.0,0.0,-0.412,0.0,0.0,0.0,0.0,0.0,0.0,0.0,0.0,0.0,0.0,0.0,-0.8503,-0.8728,-0.8194,-0.7924,-0.8228,-0.8547,-0.8778,0.0,0.0,0.0,0.0,0.0,0.0,0.0,0.0,0.0,0.0,0.0,0.0,0.0,0.0,-0.7124,-0.5695,-0.5882,-0.6266,-0.6266,0.0,0.0,0.0,0.0,0.0,0.0,0.0,0.0,0.0,0.0,0.0,0.0,0.0,0.0,-1.439,-1.4126,-1.394,0.0,0.0,0.0,0.0,0.0,0.0,0.0,0.0,-1.251,-1.227,-1.2131,-1.1386,-1.1085,-1.1153,-1.0933,-0.9838,0.0,0.0,0.0,0.0,0.0,0.0,0.0,0.0,-0.7593,-0.7915,-0.8243,-0.8536,-0.8765,-0.8778,-0.8778,-0.8798,-0.8556,-0.8025,-0.7207,-0.6296,-0.5631,0.0,0.0,0.0,0.0,0.0,0.0,0.0,0.0,0.0,0.0,0.0,0.0,0.0,0.0,0.0,0.0,0.0,0.0,0.0,0.0,0.0,0.0,0.0,-0.4314,0.0,0.0,0.0,0.0,0.0,0.0,0.0,0.0,0.0,-0.8063,-0.9057,-0.9677,-0.9492,-0.885,-0.8495,-0.8882,0.0,0.0,0.0,0.0,0.0,0.0,0.0,-0.9008,-0.8837,-0.8978,-0.9045,-0.8844,-0.8029,-0.7661,-0.8412,0.0,0.0,-0.682,-0.6989,-0.7379,-0.7579,-0.7963,-0.8205,-0.8205,-0.7739,-0.7206,0.0,0.0,0.0,0.0,-1.5196,0.0,0.0,0.0,-1.6353,-1.6128,0.0,-1.5448,0.0,0.0,0.0,0.0,-1.3907,-1.3749,0.0,0.0,-1.3347,-1.2995,-1.2701,-1.2061,-1.1903,-1.2184,-1.1829,-1.0969,-0.97,-0.9002,0.0,0.0,0.0,0.0,0.0,0.0,-0.7712,-0.8459,-0.8452,-0.8549,-0.8798,-0.8778,-0.8778,-0.8798,-0.8524,-0.8237,-0.7919,-0.7267,-0.6679,-0.6137,-0.5409,0.0,0.0,0.0,0.0,0.0,0.0,0.0,0.0,0.0,0.0,0.0,0.0,0.0,0.0,0.0,0.0,0.0,0.0,0.0,0.0,-0.4197,0.0,0.0,0.0,0.0,0.0,0.0,0.0,0.0,0.0,0.0,-0.8875,-1.0472,-1.1276,-1.0218,0.0,0.0,0.0,0.0,-0.9947,-1.0964,-0.9899,-0.903,-0.9253,-0.9523,-0.9525,-0.8984,0.0,0.0,-0.8938,-0.8838,-0.9032,-0.9707,-0.9766,-0.9345,-0.8147,-0.7915,-0.8105,-0.8611,-0.8725,-0.8771,-0.8764,-0.8298,-0.7925,-1.6752,0.0,0.0,0.0,0.0,-1.6537,-1.7033,-1.7594,-1.7578,-1.7476,-1.7238,-1.6726,0.0,0.0,0.0,0.0,0.0,0.0,-1.4938,-1.4514,-1.4228,-1.387,-1.3463,-1.2832,-1.2602,-1.2686,-1.2592,-1.1719,-1.0259,-0.9978,-0.9047,-0.7406,0.0,0.0,0.0,0.0,-0.8248,-0.8414,-0.8603,-0.8717,-0.8778,-0.8778,-0.8778,-0.8778,-0.8549,-0.8362,-0.8243,-0.7662,-0.7146,-0.676,-0.6175,0.0,0.0,0.0,0.0,0.0,0.0,0.0,0.0,0.0,0.0,0.0,0.0,0.0,0.0,0.0,0.0,0.0,0.0,0.0,-0.4512,-0.451,-0.4951,0.0,0.0,0.0,0.0,0.0,0.0,0.0,0.0,0.0,-1.0585,-1.1006,-1.1374,0.0,0.0,-0.9629,-0.9237,-0.9439,-1.0178,-1.1848,-1.1778,0.0,-1.0697,-1.1251,-1.136,-1.0264,-1.0231,-1.0144,-0.9532,-0.9432,-1.0015,-1.1705,-1.1115,-1.009,-0.9373,-0.8831,-0.8625,-0.8778,-0.8778,-0.8778,-0.8791,-0.8631,-0.8525,-1.8017,-1.7043,-1.6759,-1.6908,-1.7327,-1.7656,-1.8158,-1.8782,-1.8782,-1.8539,-1.8115,-1.7684,-1.6942,-1.5997,-1.5928,0.0,0.0,0.0,-1.6092,-1.5348,-1.524,-1.4728,-1.393,-1.3392,-1.3125,-1.3125,-1.2959,-1.2231,-1.0955,-1.0955,-1.009,-0.8435,0.0,-0.7969,-0.7976,-0.8323,-0.8518,-0.8544,-0.8717,-0.8778,-0.8778,-0.8778,-0.8778,-0.8778,-0.8637,-0.8569,-0.8537,-0.8359,-0.8036,-0.7584,-0.6908,-0.6277,0.0,0.0,0.0,0.0,0.0,0.0,0.0,0.0,0.0,0.0,0.0,-0.4781,-0.4983,0.0,0.0,0.0,-0.4873,-0.5323,-0.5443,-0.5516,0.0,0.0,0.0,0.0,0.0,0.0,0.0,-0.9436,-1.0727,-1.1866,-1.2467,-1.2748,-1.2883,-1.2978,-1.1718,-1.0681,-1.0359,0.0,-1.1519,-1.2549,-1.327,-1.3386,-1.2485,-1.3101,-1.3017,-1.0933,-1.1178,-1.1126,-1.0235,-1.0559,-1.1458,-1.2522,-1.2212,-1.1236,-1.0245,-0.9762,-0.9499,-0.9492,-0.9305,-0.9158,-0.9152,-0.9158,-0.9098,-1.8814,-1.8278,-1.7707,-1.7876,-1.846,-1.8516,-1.8998,-1.9724,-1.9732,-1.9271,-1.8548,-1.831,-1.7517,-1.637,-1.6214,0.0,-1.7551,-1.7483,-1.7001,-1.6213,-1.6137,-1.5386,-1.4111,-1.3704,-1.3555,-1.3555,-1.3164,-1.2605,-1.1947,-1.1877,-1.1183,-0.9906,-0.8852,-0.8393,-0.8552,-0.8541,-0.8633,-0.8824,-0.8811,-0.8811,-0.8778,-0.8778,-0.8778,-0.8778,-0.8778,-0.8804,-0.8798,-0.9166,-0.9036,-0.8367,-0.7589,-0.6922,-0.644,0.0,0.0,0.0,0.0,0.0,0.0,0.0,0.0,0.0,0.0,0.0,0.0,0.0,0.0,0.0,-0.6533,0.0,-0.6761,-0.7032,0.0,0.0,0.0,-0.9397,-1.0447,-1.1207,-1.1628,-1.1506,0.0,0.0,-1.4372,-1.504,-1.5206,-1.4647,-1.3199,-1.2231,-1.2203,-1.3002,-1.3532,-1.3292,-1.4442,-1.5059,-1.4168,-1.4382,-1.3717,-1.1445,-1.2035,-1.2358,-1.1205,-1.1664,-1.2696,-1.2696,-1.2795,-1.242,-1.1021,-1.0707,-1.0586,-1.0526,-1.0137,-0.9782,-0.9753,-0.9715,-0.9486,-1.9939,-1.9472,-1.9737,-1.9254,-1.8316,-1.8711,-1.8993,-1.918,-1.918,-1.9069,-1.8847,-1.8395,-1.8014,-1.7728,-1.7682,-1.7798,-1.8003,-1.7458,-1.6855,-1.6177,-1.5603,-1.4914,-1.4121,-1.4007,-1.3968,-1.3948,-1.386,-1.3451,-1.2814,-1.2498,-1.1792,-1.0812,-1.0354,-0.9732,-0.8906,-0.8873,-0.8888,-0.8956,-0.8956,-0.891,-0.8804,-0.8778,-0.8778,-0.8778,-0.8778,-0.8778,-0.8778,-0.8894,-0.8643,-0.807,-0.8232,-0.828,-0.8119,-0.7633,0.0,0.0,0.0,0.0,0.0,0.0,0.0,0.0,0.0,-0.6567,-0.6868,0.0,-0.6278,0.0,-0.7843,-0.9468,-1.0052,-0.9167,0.0,0.0,-0.9379,-1.0027,-1.1128,-1.1876,-1.251,-1.3135,-1.4034,-1.4763,-1.5129,-1.5332,-1.5352,-1.5177,-1.4586,-1.4078,-1.3961,-1.4499,-1.4932,-1.4844,-1.5118,-1.5323,-1.4932,-1.3114,-1.205,-1.2358,-1.2795,-1.2856,-1.2489,-1.1694,-1.1178,-1.1178,-1.1178,-1.1445,-1.2212,-1.1483,-1.0649,-1.0586,-1.0472,-1.0385,-1.0378,-1.0037,-0.9675,-2.0867,-2.0577,-2.0918,-2.0528,-1.9648,-1.9453,-1.9368,-1.9344,-1.9344,-1.9216,-1.8984,-1.8447,-1.8318,-1.8544,-1.8544,-1.8669,-1.8858,-1.8499,-1.777,-1.6826,-1.6415,-1.5664,-1.466,-1.4512,-1.4387,-1.4414,-1.4202,-1.3907,-1.3548,-1.3296,-1.2778,-1.1993,-1.1893,-1.119,-0.9991,-0.9673,-0.9484,-0.9335,-0.9237,-0.9185,-0.923,-0.8956,-0.8824,-0.8877,-0.8956,-0.9008,-0.9061,-0.9427,-0.9358,-0.8803,-0.9104,-0.9218,-0.905,-0.894,-0.8774,0.0,0.0,0.0,0.0,0.0,0.0,0.0,0.0,0.0,0.0,0.0,-0.7489,-0.7632,-0.9804,-1.1541,-1.2469,-1.1407,-1.0767,-1.1052,-1.1012,-1.1283,-1.2058,-1.2889,-1.3558,-1.3915,-1.4808,-1.542,-1.5391,-1.5004,-1.4736,-1.4736,-1.456,-1.4527,-1.487,-1.5196,-1.542,-1.542,-1.542,-1.542,-1.542,-1.3927,-1.3023,-1.3846,-1.4055,-1.3846,-1.313,-1.2305,-1.1663,-1.1663,-1.1663,-1.167,-1.188,-1.1272,-1.0624,-1.0586,-1.0586,-1.0586,-1.0586,-1.0338,-1.0104,-2.1543,-2.1521,-2.1568,-2.1556,-2.1418,-2.0426,-2.0012,-2.0012,-2.0012,-1.9761,-1.9296,-1.882,-1.8894,-1.9309,-1.9309,-1.9547,-1.9911,-1.9795,-1.8999,-1.7633,-1.7495,-1.6715,-1.5391,-1.5039,-1.4863,-1.4844,-1.4445,-1.427,-1.427,-1.4211,-1.3886,-1.3277,-1.325,-1.26,-1.1399,-1.0866,-1.0397,-0.9993,-0.9688,-0.964,-0.9865,-0.9263,-0.9008,-0.9133,-0.9237,-0.9361,-0.9484,-1.0156,-1.0312,-0.9834,-0.9859,-0.9752,-0.9405,-0.9951,-1.0352,0.0,-0.9644,0.0,0.0,0.0,0.0,0.0,0.0,0.0,0.0,-0.8712,-0.8836,-0.9997,-1.1797,-1.3223,-1.4009,-1.3266,-1.2821,-1.2985,-1.2789,-1.2686,-1.2877,-1.3608,-1.4146,-1.4235,-1.4923,-1.542,-1.5381,-1.4702,-1.4263,-1.4255,-1.4386,-1.4597,-1.5014,-1.5263,-1.542,-1.5527,-1.5449,-1.542,-1.542,-1.5352,-1.5283,-1.5449,-1.5371,-1.4903,-1.3614,-1.3334,-1.3252,-1.3017,-1.2962,-1.2616,-1.1174,-1.0989,-1.1059,-1.1382,-1.1507,-1.1257,-1.0744,-1.0566,-1.0586,-2.1895,-2.1543,-2.197,-2.1907,-2.1468,-2.1255,-2.1167,-2.1167,-2.1179,-2.1117,-2.1016,-2.0916,-2.0916,-2.1029,-2.1016,-2.0855,-2.0501,-1.9912,-1.8885,-1.7567,-1.6978,-1.6255,-1.54,-1.5332,-1.5293,-1.5283,-1.5176,-1.5137,-1.5156,-1.4834,-1.4492,-1.4175,-1.3979,-1.3542,-1.2848,0.0,0.0,0.0,-1.0462,-1.0236,-1.0261,-0.9961,-0.9788,-0.9814,-0.984,0.0,-0.9891,-1.0149,-1.0119,-0.9836,-0.992,0.0,0.0,0.0,0.0,0.0,0.0,0.0,0.0,0.0,0.0,0.0,-1.1217,-1.1129,-1.0576,-1.0409,-1.0902,-1.2161,-1.2671,-1.3223,-1.399,-1.3405,-1.2738,-1.2252,-1.3111,-1.3493,-1.2746,-1.1947,-1.2262,-1.4859,-1.5284,-1.5391,-1.5321,-1.5825,-1.5778,-1.5076,-1.5644,-1.5579,-1.4371,-1.4952,-1.5644,-1.6239,-1.5907,-1.5459,-1.542,-1.5488,-1.579,-1.6141,-1.58,-1.5342,-1.4971,-1.4874,-1.4362,-1.326,-1.3393,-1.3509,-1.2701,-1.2551,-1.282,-1.4174,-1.4353,-1.3717,-1.117,-1.0586,-1.0586,-2.2531,-2.2305,-2.2569,-2.2531,0.0,-2.2309,-2.2297,-2.223,-2.1719,-2.1481,-2.1481,-2.1481,-2.1285,-2.0852,-2.0864,-2.0479,-1.9807,-1.9425,-1.8683,-1.7698,-1.7096,-1.6553,-1.6015,-1.5625,-1.5527,-1.5743,-1.5488,-1.542,-1.54,-1.5195,-1.5031,-1.4888,-1.4773,-1.4373,-1.3713,-1.3607,-1.3045,-1.2061,-1.1514,-1.1191,-1.1074,-1.0644,-1.044,-1.0491,-1.0558,0.0,0.0,0.0,0.0,0.0,0.0,0.0,0.0,0.0,0.0,-1.117,-1.1864,-1.1766,-1.077,-1.1129,-1.1515,-1.1727,-1.2132,-1.2191,-1.1729,-1.1813,-1.2158,-1.2852,-1.3649,-1.4297,-1.4679,-1.4402,-1.3868,-1.3188,-1.3352,-1.3241,-1.2556,-1.2317,-1.241,-1.2897,-1.3747,-1.4153,-1.3901,-1.4212,-1.476,-1.5081,-1.4753,-1.4636,-1.4654,-1.5401,-1.6325,-1.7145,-1.659,-1.621,-1.6602,-1.6699,-1.6714,-1.7155,-1.696,-1.6367,-1.5547,-1.542,-1.4658,-1.2567,-1.302,-1.4069,-1.4166,-1.3798,-1.3367,-1.3091,-1.3014,-1.2626,-1.0863,-1.0586,-1.0586,-2.3095,-2.3095,-2.3095,-2.3095,-2.3108,-2.2944,-2.2793,-2.2597,-2.1911,0.0,0.0,-2.133,-2.0943,-2.0276,-2.0264,-1.9821,-1.9074,-1.9044,-1.8577,-1.7811,-1.7445,-1.7093,-1.6689,-1.5986,-1.5781,-1.6065,-1.5693,-1.5478,-1.542,-1.542,-1.542,-1.542,-1.542,-1.5079,-1.4423,-1.4101,-1.3691,-1.3237,-1.2669,-1.2287,-1.2016,-1.1445,-1.1167,-1.12,-1.1317,-1.1435,-1.1594,-1.1728,-1.1852,-1.1952,-1.1678,-1.1628,-1.1807,-1.1164,-1.0894,-1.1204,-1.2024,-1.2029,-1.0921,-1.1751,-1.232,-1.232,-1.2493,-1.2596,-1.2563,-1.2783,-1.3042,-1.3326,-1.46,-1.5284,-1.5021,-1.5255,-1.5049,-1.4174,-1.3186,-1.2508,-1.2586,-1.3091,-1.2892,-1.166,-1.2547,-1.3324,-1.3527,-1.2903,-1.2835,-1.4163,-1.4017,-1.344,-1.4841,-1.5392,-1.5785,-1.6323,-1.6163,-1.6482,-1.6745,-1.6667,-1.7123,-1.7167,-1.7634,-1.7471,-1.6309,-1.5712,-1.4626,-1.2965,-1.3517,-1.4206,-1.4471,-1.4227,-1.3629,-1.2171,-1.1309,-1.0894,-1.0888,-1.0727,-1.06,-2.3095,-2.3095,-2.3095,-2.3095,-2.3047,-2.2353,-2.1647,-2.1014,-2.1587,-2.1424,-2.0725,-2.0737,-2.0662,-2.0536,-2.0547,-2.0194,-1.9605,-1.9594,-1.8964,-1.7801,-1.7738,-1.7348,-1.6728,-1.657,-1.6377,-1.6105,-1.6036,-1.5801,-1.5449,-1.542,-1.542,-1.542,-1.542,-1.5352,-1.5225,-1.5177,-1.4935,-1.4526,-1.3887,-1.3365,-1.2924,-1.2597,-1.2279,-1.1961,-1.1943,-1.1993,-1.2002,-1.216,-1.2224,-1.2249,-1.2338,-1.2412,-1.2387,-1.2474,-1.2555,-1.254,-1.1667,-1.124,-1.1612,-1.2362,-1.2807,-1.2754,-1.2028,-1.1903,-1.2763,-1.2881,-1.3477,-1.4863,-1.5177,-1.4815,-1.3666,-1.4508,-1.4805,-1.3772,-1.2077,-1.1684,-1.3442,-1.2998,-1.277,-1.314,-1.3803,-1.4867,-1.5947,-1.4119,-1.2378,-1.2981,-1.4299,-1.572,-1.504,-1.3879,-1.3064,-1.3317,-1.4443,-1.4632,-1.4311,-1.323,-1.4299,-1.5367,-1.6941,-1.7741,-1.7529,-1.6943,-1.6491,-1.6778,-1.5601,-1.4072,-1.2202,-1.3418,-1.4812,-1.5546,-1.3812,-1.2051,-1.1897,-1.1263,-1.062,-2.3095,-2.3095,-2.3095,-2.2854,-2.2414,-2.2063,-2.1396,-2.0655,-2.1005,-2.0974,-2.0623,-2.059,-2.0344,-1.9911,-1.9879,-1.9478,-1.8788,-1.8778,-1.8447,-1.7906,-1.7684,-1.7511,-1.7363,-1.6931,-1.6748,-1.6789,-1.6533,-1.6201,-1.5831,-1.5762,-1.5644,-1.543,-1.542,-1.542,-1.542,-1.542,-1.5322,-1.5117,-1.4596,-1.4125,-1.3638,-1.3303,-1.3052,-1.2862,-1.2662,-1.2529,-1.2554,-1.2578,-1.2637,-1.2627,-1.2715,-1.2749,-1.2725,-1.2832,-1.2915,-1.2881,-1.2314,-1.1733,-1.1266,-1.1753,-1.2029,-1.2022,-1.1724,-1.1697,-1.2211,-1.3056,-1.4046,-1.5187,-1.3897,-1.2632,-1.2168,-1.2811,-1.3196,-1.3143,-1.3493,-1.3615,-1.2968,-1.2592,-1.2513,-1.2961,-1.3149,-1.364,-1.4751,-1.3375,-1.2305,-1.2519,-1.4406,-1.5579,-1.5199,-1.3557,-1.2305,-1.2452,-1.3918,-1.5226,-1.5226,-1.5403,-1.5403,-1.534,-1.5877,-1.6872,-1.7647,-1.7574,-1.7603,-1.7687,-1.5685,-1.3378,-1.162,-1.3491,-1.4912,-1.4442,-1.3766,-1.2378,-1.2171,-1.141,-1.0667,-2.3208,-2.3108,-2.2978,-2.2553,-2.1925,-2.1586,-2.1138,-2.0654,-2.0282,-2.0162,-2.0129,-2.0064,-1.9617,-1.9044,-1.9011,-1.862,-1.8076,-1.8008,-1.8008,-1.7978,-1.7676,-1.7695,-1.792,-1.7282,-1.7148,-1.7334,-1.7031,-1.665,-1.6281,-1.6153,-1.587,-1.5459,-1.542,-1.542,-1.542,-1.542,-1.542,-1.5391,-1.5088,-1.4717,-1.426,-1.3938,-1.375,-1.3633,-1.334,-1.3164,-1.3164,-1.3164,-1.3125,-1.3027,-1.3052,-1.3003,-1.2915,-1.2915,-1.2783,-1.2505,-1.2566,-1.2172,-1.1129,-1.0918,-1.1085,-1.1382,-1.1348,-1.1458,-1.1752,-1.2649,-1.3584,-1.3909,-1.2081,-1.0885,-1.1364,-1.1619,-1.1943,-1.2847,-1.4699,-1.4853,-1.2784,-1.231,-1.2305,-1.2305,-1.2305,-1.2328,-1.2305,-1.2305,-1.2415,-1.2842,-1.3766,-1.4593,-1.4835,-1.3557,-1.2415,-1.2586,-1.3629,-1.4736,-1.6472,-1.6428,-1.5799,-1.4692,-1.4514,-1.5332,-1.6576,-1.7295,-1.7001,-1.6402,-1.4371,-1.2661,-1.2432,-1.3361,-1.3803,-1.2945,-1.2445,-1.2305,-1.2265,-1.1677,-1.0888,-2.3584,-2.3087,-2.2769,-2.2339,-2.1902,-2.0679,-2.0379,-2.0582,-1.9399,-1.8774,-1.8884,-1.8414,-1.8279,-1.8144,-1.8134,-1.81,-1.8008,-1.8008,-1.8008,-1.8008,-1.7969,-1.7978,-1.8008,-1.791,-1.7715,-1.7432,-1.7334,-1.709,-1.6629,-1.631,-1.5889,-1.5459,-1.542,-1.542,-1.542,-1.542,-1.542,-1.542,-1.5371,-1.5146,-1.4756,-1.4697,-1.4482,-1.4055,-1.4007,-1.3997,-1.3938,-1.3987,-1.3812,-1.3486,-1.3422,-1.3271,-1.2964,-1.2905,-1.2338,-1.1141,-1.1512,-1.174,-1.1538,-1.0507,-1.0386,-1.1431,-1.0785,-1.0718,-1.1522,-1.1219,-1.0937,-1.1108,-1.0863,-1.0847,-1.1376,-1.1884,-1.2411,-1.2993,-1.3757,-1.395,-1.3444,-1.2792,-1.2305,-1.2305,-1.2305,-1.2305,-1.2305,-1.2305,-1.2629,-1.3208,-1.2989,-1.3382,-1.4442,-1.3477,-1.2305,-1.2305,-1.2592,-1.2696,-1.3193,-1.2908,-1.3557,-1.3055,-1.2659,-1.3585,-1.4871,-1.5446,-1.5057,-1.4091,-1.2981,-1.2378,-1.2305,-1.2519,-1.2592,-1.2519,-1.2305,-1.2305,-1.2298,-1.2138,-1.1732,-2.4324,-2.4079,-2.3942,-2.3442,-2.2581,-2.101,-2.046,-2.0571,-2.0062,-1.9504,-1.904,-1.8838,-1.8486,-1.8018,-1.8008,-1.8008,-1.8008,-1.8008,-1.8008,-1.8008,-1.8008,-1.8008,-1.8008,-1.8008,-1.791,-1.7764,-1.7754,-1.7529,-1.7109,-1.668,-1.623,-1.587,-1.5821,-1.5664,-1.5439,-1.542,-1.542,-1.542,-1.542,-1.5322,-1.5156,-1.4912,-1.4707,-1.4512,-1.425,-1.4114,-1.4114,-1.4114,-1.3803,-1.3216,-1.3127,-1.3075,-1.2895,-1.2132,-1.1208,-1.0277,-1.0748,-1.1097,-1.1097,-1.0377,-1.0164,-1.0733,-1.0536,-1.0616,-1.0984,-1.0757,-1.0586,-1.0586,-1.0593,-1.0955,-1.1797,-1.2164,-1.2435,-1.2661,-1.2856,-1.2963,-1.2866,-1.2556,-1.2305,-1.2305,-1.2305,-1.2305,-1.2305,-1.2305,-1.2445,-1.2806,-1.2482,-1.2769,-1.3339,-1.2762,-1.2415,-1.2305,-1.2305,-1.2305,-1.2445,-1.4406,-1.4799,-1.4127,-1.3018,-1.2842,-1.331,-1.4629,-1.4557,-1.2629,-1.2378,-1.2305,-1.2305,-1.2305,-1.2305,-1.2305,-1.2305,-1.2305,-1.2305,-1.2305,-1.2031,-2.4946,-2.4768,-2.4549,-2.4014,-2.3201,-2.1534,-2.09,-2.0912,-2.0602,-2.0054,-1.948,-1.9336,-1.8955,-1.8408,-1.8208,-1.8125,-1.8018,-1.8008,-1.8008,-1.8008,-1.8008,-1.8008,-1.8008,-1.8008,-1.8008,-1.8008,-1.7998,-1.7783,-1.7393,-1.708,-1.668,-1.6299,-1.6163,-1.5928,-1.5615,-1.5488,-1.542,-1.542,-1.542,-1.542,-1.5371,-1.5117,-1.4951,-1.4932,-1.4648,-1.4455,-1.4455,-1.4455,-1.4141,-1.3442,-1.3231,-1.2914,-1.2554,-1.1593,-1.0721,-1.0091,-1.0296,-1.0603,-1.0653,-1.0409,-1.0241,-1.0254,-1.0486,-1.0586,-1.0586,-1.0586,-1.0754,-1.1095,-1.1075,-1.1504,-1.2111,-1.2305,-1.2305,-1.2305,-1.2305,-1.2305,-1.2305,-1.2305,-1.2305,-1.2305,-1.2305,-1.2305,-1.2305,-1.2305,-1.2342,-1.2342,-1.2342,-1.2305,-1.2351,-1.2476,-1.2572,-1.2538,-1.2438,-1.2305,-1.2519,-1.3939,-1.5473,-1.4879,-1.2989,-1.2342,-1.2305,-1.3658,-1.4271,-1.2445,-1.2342,-1.2305,-1.2305,-1.2305,-1.2305,-1.2305,-1.2305,-1.2305,-1.2305,-1.2305,-1.2305,-2.5272,-2.4696,-2.3935,-2.3537,-2.3366,-2.1906,-2.1528,-2.1661,-2.0519,-1.992,-1.9834,-1.9502,-1.9277,-1.918,-1.8773,-1.8364,-1.8057,-1.8018,-1.8008,-1.8008,-1.8008,-1.8008,-1.8008,-1.8008,-1.8008,-1.8008,-1.8008,-1.7812,-1.7422,-1.7373,-1.7129,-1.6687,-1.6338,-1.6114,-1.6016,-1.5644,-1.543,-1.5508,-1.5449,-1.543,-1.543,-1.5391,-1.5352,-1.5342,-1.5342,-1.5293,-1.5312,-1.5332,-1.5099,-1.4682,-1.3893,-1.3007,-1.1922,-1.1651,-1.1235,-1.0629,-1.0309,-1.0275,-1.0559,-1.0564,-1.0546,-1.0559,-1.0566,-1.0586,-1.0586,-1.0586,-1.1042,-1.2078,-1.2078,-1.2184,-1.2271,-1.2305,-1.2305,-1.2305,-1.2305,-1.2305,-1.2305,-1.2305,-1.2305,-1.2305,-1.2305,-1.2305,-1.2305,-1.2305,-1.2318,-1.2325,-1.2318,-1.2305,-1.2392,-1.2772,-1.312,-1.3053,-1.2746,-1.2318,-1.2355,-1.3091,-1.3018,-1.2776,-1.2776,-1.2305,-1.2298,-1.2372,-1.2372,-1.2415,-1.2342,-1.2305,-1.2305,-1.2305,-1.2305,-1.2305,-1.2305,-1.2305,-1.2305,-1.2305,-1.2305,-2.5685,-2.4838,-2.3898,-2.3128,-2.2446,-2.1353,-2.0976,-2.1068,-2.0593,-2.0332,-2.0303,-2.0204,-1.9951,-1.9678,-1.9485,-1.9036,-1.8383,-1.8144,-1.8008,-1.8008,-1.8008,-1.8008,-1.8008,-1.8008,-1.8008,-1.8008,-1.8008,-1.7939,-1.7812,-1.7783,-1.7568,-1.7197,-1.7034,-1.6777,-1.6465,-1.6055,-1.5957,-1.6172,-1.5693,-1.5547,-1.5771,-1.5557,-1.542,-1.542,-1.542,-1.542,-1.542,-1.542,-1.4857,-1.3711,-1.3377,-1.2544,-1.1209,-1.0982,-1.0892,-1.064,-1.0492,-1.0479,-1.0573,-1.0586,-1.0586,-1.0586,-1.0586,-1.0593,-1.0586,-1.062,-1.1075,-1.2004,-1.2305,-1.2305,-1.2305,-1.2305,-1.2305,-1.2305,-1.2305,-1.2305,-1.2305,-1.2305,-1.2305,-1.2305,-1.2305,-1.2305,-1.2305,-1.2311,-1.2378,-1.2563,-1.2432,-1.2345,-1.2472,-1.312,-1.3734,-1.3674,-1.328,-1.2879,-1.2886,-1.2512,-1.2342,-1.2342,-1.2305,-1.2305,-1.2305,-1.2305,-1.2342,-1.2342,-1.2305,-1.2305,-1.2305,-1.2305,-1.2305,-1.2305,-1.2305,-1.2305,-1.2305,-1.2305,-1.2305,-2.5441,-2.448,-2.3781,-2.2925,-2.1962,-2.1336,-2.0867,-2.0644,-2.0615,-2.0615,-2.0615,-2.0605,-2.0439,-2.0127,-1.998,-1.9592,-1.8978,-1.8451,-1.8144,-1.8018,-1.8008,-1.8008,-1.8008,-1.8008,-1.8008,-1.8008,-1.8008,-1.8008,-1.8008,-1.8008,-1.7852,-1.7598,-1.7494,-1.7246,-1.6904,-1.6504,-1.6445,-1.6521,-1.6093,-1.5947,-1.6075,-1.5918,-1.5684,-1.5459,-1.5547,-1.5547,-1.543,-1.5167,-1.4569,-1.3515,-1.2909,-1.1996,-1.0776,-1.0586,-1.0586,-1.0586,-1.0586,-1.0586,-1.0586,-1.0586,-1.0633,-1.072,-1.0734,-1.0707,-1.062,-1.0754,-1.1323,-1.2037,-1.2305,-1.2305,-1.2305,-1.2305,-1.2305,-1.2305,-1.2305,-1.2305,-1.2305,-1.2305,-1.2305,-1.2305,-1.2305,-1.2305,-1.2338,-1.2498,-1.2645,-1.2844,-1.2665,-1.2605,-1.2732,-1.3394,-1.4088,-1.4055,-1.3754,-1.3527,-1.3487,-1.324,-1.2625,-1.2512,-1.2318,-1.2305,-1.2305,-1.2305,-1.2305,-1.2305,-1.2305,-1.2305,-1.2305,-1.2305,-1.2305,-1.2305,-1.2305,-1.2305,-1.2305,-1.2305,-1.2305,-2.4456,-2.3624,-2.3478,-2.2813,-2.1914,-2.1773,-2.1375,-2.0683,-2.0615,-2.0615,-2.0615,-2.0615,-2.0586,-2.0498,-2.0146,-1.9912,-1.9678,-1.8997,-1.8471,-1.8174,-1.8086,-1.8057,-1.8066,-1.8027,-1.8008,-1.8008,-1.8008,-1.8008,-1.8008,-1.8008,-1.7978,-1.792,-1.7607,-1.7441,-1.7383,-1.6973,-1.6716,-1.6755,-1.6658,-1.6475,-1.6212,-1.6445,-1.6229,-1.5644,-1.587,-1.587,-1.5439,-1.4677,-1.4174,-1.3837,-1.2618,-1.1469,-1.0744,-1.0586,-1.0586,-1.0586,-1.0586,-1.0586,-1.0586,-1.0613,-1.0754,-1.0895,-1.1015,-1.0909,-1.0861,-1.1096,-1.1575,-1.2151,-1.2305,-1.2305,-1.2305,-1.2371,-1.2365,-1.2305,-1.2305,-1.2305,-1.2305,-1.2305,-1.2305,-1.2325,-1.2405,-1.2358,-1.2472,-1.2872,-1.316,-1.3039,-1.3039,-1.314,-1.3213,-1.3728,-1.4028,-1.4088,-1.3988,-1.3881,-1.3975,-1.3995,-1.3307,-1.2732,-1.2458,-1.2305,-1.2305,-1.2305,-1.2305,-1.2305,-1.2305,-1.2305,-1.2305,-1.2305,-1.2305,-1.2305,-1.2305,-1.2311,-1.2305,-1.2305,-1.2305,-2.4409,-2.3441,-2.2728,-2.1886,-2.1088,-2.1039,-2.0828,-2.0605,-2.0615,-2.0615,-2.0615,-2.0615,-2.0615,-2.0586,-2.0449,-2.0195,-1.9912,-1.9572,-1.9287,-1.8896,-1.8594,-1.8412,-1.8354,-1.8144,-1.8008,-1.8008,-1.8008,-1.8008,-1.8008,-1.8008,-1.8008,-1.7969,-1.7871,-1.7812,-1.7773,-1.7412,-1.7295,-1.751,-1.6989,-1.6787,-1.6946,-1.6775,-1.6551,-1.6317,-1.6202,-1.6016,-1.582,-1.4786,-1.3696,-1.2687,-1.2074,-1.1437,-1.0769,-1.0586,-1.0586,-1.0586,-1.0586,-1.0586,-1.062,-1.0774,-1.0914,-1.1015,-1.1176,-1.1316,-1.1336,-1.139,-1.171,-1.2204,-1.2305,-1.2305,-1.2365,-1.2699,-1.2719,-1.2314,-1.2305,-1.2325,-1.2338,-1.2331,-1.2305,-1.2418,-1.3019,-1.3474,-1.3527,-1.3754,-1.3627,-1.3367,-1.3287,-1.334,-1.3734,-1.3921,-1.4082,-1.4088,-1.4088,-1.4088,-1.4088,-1.4088,-1.3741,-1.3247,-1.2919,-1.2565,-1.2492,-1.2305,-1.2305,-1.2305,-1.2305,-1.2305,-1.2305,-1.2305,-1.2311,-1.2325,-1.2338,-1.2331,-1.2311,-1.2305,-1.2311,-2.3854,-2.285,-2.1897,-2.1155,-2.0605,-2.0615,-2.0615,-2.0615,-2.0615,-2.0615,-2.0615,-2.0615,-2.0615,-2.0615,-2.0615,-2.0458,-2.0166,-2.0156,-2.0019,-1.9687,-1.9121,-1.8851,-1.8818,-1.8412,-1.8208,-1.8203,-1.8086,-1.8008,-1.8008,-1.8008,-1.8008,-1.8008,-1.8008,-1.7998,-1.7998,-1.7773,-1.7773,-1.7891,-1.7467,-1.7233,-1.7344,-1.7266,-1.7019,-1.6704,-1.6268,-1.5811,-1.5348,-1.4244,-1.3211,-1.2298,-1.1717,-1.1108,-1.0649,-1.0586,-1.0586,-1.0586,-1.06,-1.0633,-1.0747,-1.0921,-1.1116,-1.1296,-1.149,-1.169,-1.185,-1.1804,-1.1964,-1.2225,-1.2305,-1.2305,-1.2385,-1.2846,-1.2939,-1.2569,-1.2516,-1.2509,-1.2478,-1.2579,-1.2645,-1.2852,-1.3474,-1.3968,-1.4088,-1.4075,-1.4001,-1.3748,-1.3621,-1.3594,-1.3988,-1.4068,-1.4088,-1.4088,-1.4088,-1.4088,-1.4088,-1.4088,-1.4088,-1.3794,-1.3494,-1.312,-1.2879,-1.2485,-1.2305,-1.2305,-1.2305,-1.2305,-1.2305,-1.2311,-1.2318,-1.2338,-1.2525,-1.2412,-1.2405,-1.2331,-1.2318,-2.2888,-2.1924,-2.1001,-2.0644,-2.0615,-2.0615,-2.0615,-2.0615,-2.0615,-2.0615,-2.0615,-2.0615,-2.0615,-2.0615,-2.0615,-2.0576,-2.0595,-2.0546,-2.0527,-2.0302,-1.9766,-1.9375,-1.917,-1.8724,-1.852,-1.8481,-1.8159,-1.8018,-1.8008,-1.8008,-1.8008,-1.8008,-1.8008,-1.8008,-1.7998,-1.7988,-1.7969,-1.7978,-1.7959,-1.7764,-1.749,-1.7764,-1.7637,-1.685,-1.6225,-1.5497,-1.4609,-1.3497,-1.2829,-1.2663,-1.1456,-1.0789,-1.0613,-1.0586,-1.0593,-1.068,-1.0646,-1.0801,-1.0981,-1.1142,-1.1309,-1.1759,-1.1879,-1.2033,-1.2184,-1.2204,-1.2211,-1.2298,-1.2305,-1.2338,-1.2485,-1.2872,-1.3039,-1.2911,-1.2837,-1.2831,-1.2864,-1.3033,-1.312,-1.3307,-1.3748,-1.4088,-1.4088,-1.4088,-1.4068,-1.4041,-1.4001,-1.4021,-1.4048,-1.4088,-1.4088,-1.4088,-1.4088,-1.4088,-1.4088,-1.4088,-1.4088,-1.4008,-1.3781,-1.3534,-1.3213,-1.2812,-1.2679,-1.2632,-1.2405,-1.2378,-1.2418,-1.2505,-1.2766,-1.3086,-1.3019,-1.2692,-1.2538,-1.2518,-1.2418,-2.2253,-2.1886,-2.0972,-2.0615,-2.0615,-2.0615,-2.0615,-2.0615,-2.0615,-2.0615,-2.0615,-2.0615,-2.0615,-2.0615,-2.0615,-2.0615,-2.0615,-2.0615,-2.0615,-2.0576,-2.041,-1.9881,-1.9307,-1.8822,-1.8627,-1.8578,-1.8247,-1.8008,-1.8008,-1.8008,-1.8008,-1.8008,-1.8008,-1.8008,-1.8008,-1.8008,-1.8008,-1.8008,-1.8008,-1.7969,-1.7881,-1.792,-1.791,-1.7614,-1.6492,-1.5735,-1.5217,-1.3662,-1.2393,-1.1852,-1.149,-1.0982,-1.0707,-1.0667,-1.0854,-1.1116,-1.1042,-1.1042,-1.1303,-1.1503,-1.1739,-1.1893,-1.2094,-1.2218,-1.2285,-1.2305,-1.2305,-1.2305,-1.2311,-1.2492,-1.2866,-1.3113,-1.324,-1.3373,-1.3233,-1.3173,-1.33,-1.3287,-1.336,-1.3781,-1.3995,-1.4068,-1.4088,-1.4088,-1.4088,-1.4088,-1.4088,-1.4088,-1.4088,-1.4088,-1.4088,-1.4088,-1.4088,-1.4088,-1.4088,-1.4088,-1.4088,-1.4088,-1.3968,-1.3854,-1.3561,-1.3247,-1.336,-1.3527,-1.2886,-1.2692,-1.2832,-1.2959,-1.336,-1.3707,-1.3647,-1.338,-1.3026,-1.2872,-1.2679,-2.2,-2.1924,-2.0972,-2.0615,-2.0615,-2.0615,-2.0615,-2.0615,-2.0615,-2.0615,-2.0615,-2.0615,-2.0615,-2.0615,-2.0615,-2.0615,-2.0615,-2.0615,-2.0615,-2.0615,-2.0586,-2.0312,-1.9842,-1.9385,-1.9134,-1.9056,-1.8555,-1.8276,-1.8242,-1.8096,-1.8018,-1.8008,-1.8008,-1.8008,-1.8008,-1.8008,-1.8008,-1.8008,-1.8008,-1.8008,-1.8008,-1.8008,-1.8008,-1.7687,-1.6469,-1.5351,-1.4348,-1.3134,-1.2235,-1.1721,-1.1496,-1.1335,-1.1363,-1.1323,-1.1456,-1.1777,-1.1648,-1.1608,-1.1623,-1.1819,-1.196,-1.208,-1.2231,-1.2285,-1.2305,-1.2305,-1.2305,-1.2305,-1.2305,-1.2612,-1.308,-1.3313,-1.348,-1.3693,-1.3674,-1.3601,-1.3613,-1.3607,-1.3728,-1.3981,-1.4088,-1.4088,-1.4088,-1.4088,-1.4088,-1.4088,-1.4088,-1.4088,-1.4088,-1.4088,-1.4088,-1.4088,-1.4088,-1.4088,-1.4088,-1.4088,-1.4088,-1.4088,-1.4068,-1.3981,-1.3854,-1.3614,-1.3748,-1.3781,-1.3313,-1.3053,-1.318,-1.3373,-1.3721,-1.3975,-1.4075,-1.3975,-1.3574,-1.3213,-1.3013,-2.1876,-2.1783,-2.0934,-2.0615,-2.0615,-2.0615,-2.0615,-2.0615,-2.0615,-2.0615,-2.0615,-2.0615,-2.0615,-2.0615,-2.0615,-2.0615,-2.0615,-2.0615,-2.0615,-2.0615,-2.0615,-2.0517,-2.0429,-1.9951,-1.9775,-1.9658,-1.8987,-1.8627,-1.8432,-1.8193,-1.8018,-1.8008,-1.8008,-1.8008,-1.8008,-1.8008,-1.8008,-1.8008,-1.8008,-1.8008,-1.8008,-1.8008,-1.7906,-1.7423,-1.5887,-1.4209,-1.3048,-1.2311,-1.2151,-1.196,-1.1657,-1.179,-1.2184,-1.2265,-1.2258,-1.2225,-1.2184,-1.2104,-1.1964,-1.1973,-1.206,-1.2225,-1.2285,-1.2305,-1.2305,-1.2305,-1.2305,-1.2305,-1.2305,-1.2659,-1.3273,-1.3567,-1.3768,-1.3981,-1.4041,-1.3941,-1.3773,-1.3921,-1.4088,-1.4088,-1.4088,-1.4088,-1.4088,-1.4088,-1.4088,-1.4088,-1.4088,-1.4088,-1.4088,-1.4088,-1.4088,-1.4088,-1.4088,-1.4088,-1.4088,-1.4088,-1.4088,-1.4088,-1.4088,-1.4048,-1.4048,-1.3941,-1.4001,-1.3908,-1.3627,-1.346,-1.344,-1.3707,-1.4008,-1.4088,-1.4088,-1.4088,-1.3988,-1.3654,-1.3394,-2.0895,-2.0857,-2.0673,-2.0615,-2.0615,-2.0615,-2.0615,-2.0615,-2.0615,-2.0615,-2.0615,-2.0615,-2.0615,-2.0615,-2.0615,-2.0615,-2.0615,-2.0615,-2.0615,-2.0615,-2.0615,-2.0615,-2.0527,-2.0137,-1.9941,-1.9746,-1.9017,-1.8637,-1.852,-1.8271,-1.8008,-1.8008,-1.8008,-1.8008,-1.8008,-1.8008,-1.8008,-1.8008,-1.8008,-1.8008,-1.8008,-1.7974,-1.7647,-1.6819,-1.5084,-1.3557,-1.2592,-1.2305,-1.2271,-1.2204,-1.2144,-1.2138,-1.2271,-1.2305,-1.2305,-1.2305,-1.2305,-1.2271,-1.2218,-1.2191,-1.2218,-1.2278,-1.2305,-1.2305,-1.2305,-1.2305,-1.2305,-1.2305,-1.2331,-1.2866,-1.3661,-1.3935,-1.4001,-1.4068,-1.4082,-1.4062,-1.4015,-1.4041,-1.4082,-1.4088,-1.4088,-1.4088,-1.4088,-1.4088,-1.4088,-1.4088,-1.4088,-1.4088,-1.4088,-1.4088,-1.4088,-1.4088,-1.4088,-1.4088,-1.4088,-1.4088,-1.4088,-1.4088,-1.4088,-1.4088,-1.4088,-1.4088,-1.4088,-1.4088,-1.4041,-1.3901,-1.3734,-1.3828,-1.4088,-1.4088,-1.4088,-1.4088,-1.4035,-1.3848,-1.3788,-2.0615,-2.0615,-2.0615,-2.0615,-2.0615,-2.0615,-2.0615,-2.0615,-2.0615,-2.0615,-2.0615,-2.0615,-2.0615,-2.0615,-2.0615,-2.0615,-2.0615,-2.0615,-2.0615,-2.0615,-2.0615,-2.0615,-2.0595,-2.0361,-2.0205,-2.0078,-1.9355,-1.8984,-1.8799,-1.8359,-1.8008,-1.8008,-1.8008,-1.8008,-1.8008,-1.8008,-1.8008,-1.8008,-1.8008,-1.8008,-1.8008,-1.7974,-1.7251,-1.6,-1.4486,-1.3237,-1.2415,-1.2305,-1.2305,-1.2305,-1.2305,-1.2305,-1.2305,-1.2305,-1.2305,-1.2305,-1.2305,-1.2305,-1.2305,-1.2305,-1.2298,-1.2305,-1.2305,-1.2305,-1.2305,-1.2305,-1.2305,-1.2438,-1.2819,-1.3467,-1.4001,-1.4082,-1.4088,-1.4088,-1.4088,-1.4088,-1.4088,-1.4088,-1.4088,-1.4088,-1.4088,-1.4088,-1.4088,-1.4088,-1.4088,-1.4088,-1.4088,-1.4088,-1.4088,-1.4088,-1.4088,-1.4088,-1.4088,-1.4088,-1.4088,-1.4088,-1.4088,-1.4088,-1.4088,-1.4088,-1.4088,-1.4088,-1.4088,-1.4088,-1.4088,-1.4088,-1.3975,-1.4082,-1.4088,-1.4088,-1.4088,-1.4088,-1.4055,-1.3968,-1.3955,-2.0615,-2.0615,-2.0615,-2.0615,-2.0615,-2.0615,-2.0615,-2.0615,-2.0615,-2.0615,-2.0615,-2.0615,-2.0615,-2.0615,-2.0615,-2.0615,-2.0615,-2.0615,-2.0615,-2.0615,-2.0615,-2.0615,-2.0595,-2.0566,-2.0527,-2.0498,-1.9766,-1.9394,-1.9062,-1.8535,-1.8135,-1.8037,-1.8008,-1.8008,-1.8008,-1.8018,-1.8076,-1.8154,-1.8066,-1.7915,-1.7777,-1.768,-1.6759,-1.5128,-1.3947,-1.3062,-1.2452,-1.2305,-1.2305,-1.2305,-1.2305,-1.2305,-1.2305,-1.2305,-1.2305,-1.2305,-1.2305,-1.2305,-1.2305,-1.2305,-1.2305,-1.2305,-1.2371,-1.2385,-1.2398,-1.2365,-1.2405,-1.2792,-1.328,-1.3948,-1.4088,-1.4088,-1.4088,-1.4088,-1.4088,-1.4088,-1.4088,-1.4088,-1.4088,-1.4088,-1.4088,-1.4088,-1.4088,-1.4088,-1.4088,-1.4088,-1.4088,-1.4088,-1.4088,-1.4088,-1.4088,-1.4088,-1.4088,-1.4088,-1.4088,-1.4088,-1.4088,-1.4088,-1.4088,-1.4088,-1.4088,-1.4088,-1.4088,-1.4088,-1.4088,-1.4088,-1.4088,-1.4088,-1.4088,-1.4088,-1.4088,-1.4088,-1.4088,-1.4088,-1.4088,-2.0615,-2.0615,-2.0615,-2.0615,-2.0615,-2.0615,-2.0615,-2.0615,-2.0615,-2.0615,-2.0615,-2.0615,-2.0615,-2.0615,-2.0615,-2.0615,-2.0615,-2.0615,-2.0615,-2.0615,-2.0615,-2.0615,-2.0615,-2.0615,-2.0615,-2.0488,-2.0039,-1.9678,-1.9287,-1.8754,-1.8383,-1.8115,-1.8086,-1.8096,-1.8115,-1.8037,-1.8173,-1.8218,-1.8045,-1.7719,-1.7422,-1.6913,-1.6009,-1.4243,-1.32,-1.2592,-1.2415,-1.2305,-1.2305,-1.2305,-1.2305,-1.2305,-1.2305,-1.2305,-1.2305,-1.2305,-1.2305,-1.2305,-1.2305,-1.2305,-1.2305,-1.2358,-1.2543,-1.2697,-1.2656,-1.2549,-1.2645,-1.3106,-1.3601,-1.4088,-1.4088,-1.4088,-1.4088,-1.4088,-1.4088,-1.4088,-1.4088,-1.4088,-1.4088,-1.4088,-1.4088,-1.4088,-1.4088,-1.4088,-1.4088,-1.4088,-1.4088,-1.4088,-1.4088,-1.4088,-1.4088,-1.4088,-1.4088,-1.4088,-1.4088,-1.4088,-1.4088,-1.4088,-1.4088,-1.4088,-1.4088,-1.4088,-1.4088,-1.4088,-1.4088,-1.4088,-1.4088,-1.4088,-1.4088,-1.4088,-1.4088,-1.4088,-1.4088,-1.4088,-1.4088,-2.0615,-2.0615,-2.0615,-2.0615,-2.0615,-2.0615,-2.0615,-2.0615,-2.0615,-2.0615,-2.0615,-2.0615,-2.0615,-2.0615,-2.0615,-2.0615,-2.0615,-2.0615,-2.0615,-2.0615,-2.0615,-2.0615,-2.0615,-2.0615,-2.0615,-2.0556,-2.0332,-2.0019,-1.9609,-1.9189,-1.8857,-1.875,-1.8672,-1.8672,-1.8603,-1.8477,-1.8241,-1.8154,-1.7743,-1.7363,-1.6982,-1.6316,-1.5046,-1.3882,-1.2842,-1.2342,-1.2305,-1.2305,-1.2305,-1.2305,-1.2305,-1.2305,-1.2305,-1.2305,-1.2311,-1.2325,-1.2311,-1.2311,-1.2311,-1.2311,-1.2371,-1.2569,-1.273,-1.2871,-1.2913,-1.2926,-1.3039,-1.3534,-1.3808,-1.4088,-1.4088,-1.4088,-1.4088,-1.4088,-1.4088,-1.4088,-1.4088,-1.4088,-1.3955,-1.3913,-1.4088,-1.4088,-1.4088,-1.4088,-1.4088,-1.4088,-1.4088,-1.4088,-1.4088,-1.4088,-1.4088,-1.4088,-1.4088,-1.4088,-1.4088,-1.4088,-1.4088,-1.4088,-1.4088,-1.4088,-1.4088,-1.4088,-1.4088,-1.4088,-1.4088,-1.4088,-1.4088,-1.4088,-1.4088,-1.4088,-1.4088,-1.4088,-1.4088,-1.4088,-1.4088,-2.0615,-2.0615,-2.0615,-2.0615,-2.0615,-2.0615,-2.0615,-2.0615,-2.0615,-2.0615,-2.0615,-2.0615,-2.0615,-2.0615,-2.0615,-2.0615,-2.0615,-2.0615,-2.0615,-2.0615,-2.0615,-2.0615,-2.0615,-2.0615,-2.0615,-2.0605,-2.0566,-2.0342,-1.9883,-1.9561,-1.9385,-1.9199,-1.9238,-1.9277,-1.915,-1.8896,-1.8392,-1.7852,-1.7305,-1.6964,-1.6194,-1.522,-1.4279,-1.3491,-1.2703,-1.2305,-1.2305,-1.2305,-1.2305,-1.2305,-1.2305,-1.2305,-1.2305,-1.2305,-1.2358,-1.2438,-1.2378,-1.2338,-1.2398,-1.2418,-1.2525,-1.2723,-1.2898,-1.306,-1.3233,-1.338,-1.3567,-1.3981,-1.4088,-1.4088,-1.4088,-1.4088,-1.4088,-1.4088,-1.4088,-1.3997,-1.3646,-1.3343,-1.2912,-1.313,-1.3779,-1.3955,-1.3779,-1.4088,-1.4088,-1.4088,-1.4088,-1.4088,-1.4088,-1.4088,-1.4088,-1.4088,-1.4088,-1.4088,-1.4088,-1.4088,-1.4088,-1.4088,-1.4088,-1.4088,-1.4088,-1.4088,-1.4088,-1.4088,-1.4088,-1.4088,-1.4088,-1.4088,-1.4088,-1.4088,-1.4088,-1.4088,-1.4088,-1.4088,-1.4088,-2.0615,-2.0615,-2.0615,-2.0615,-2.0615,-2.0615,-2.0615,-2.0615,-2.0615,-2.0615,-2.0615,-2.0615,-2.0615,-2.0615,-2.0615,-2.0615,-2.0615,-2.0615,-2.0615,-2.0615,-2.0615,-2.0615,-2.0615,-2.0615,-2.0615,-2.0615,-2.0615,-2.0312,-2.0049,-1.9893,-1.9668,-1.9453,-1.9434,-1.928,-1.9222,-1.9031,-1.8861,-1.8176,-1.7439,-1.6171,-1.448,-1.3418,-1.2949,-1.261,-1.2476,-1.2392,-1.2418,-1.2425,-1.2398,-1.2365,-1.2325,-1.2305,-1.2305,-1.2305,-1.2619,-1.2759,-1.2685,-1.2418,-1.2697,-1.2737,-1.2784,-1.2971,-1.32,-1.344,-1.358,-1.3774,-1.3935,-1.4035,-1.4088,-1.4088,-1.4088,-1.4088,-1.4088,-1.4039,-1.3997,-1.3913,-1.361,-1.2035,-1.1649,-1.2431,-1.3045,-1.3258,-1.3258,-1.3737,-1.4088,-1.4088,-1.4088,-1.4088,-1.4088,-1.4088,-1.4088,-1.4088,-1.4088,-1.4088,-1.4088,-1.4088,-1.4088,-1.4088,-1.4088,-1.4088,-1.4088,-1.4088,-1.4088,-1.4088,-1.4088,-1.4088,-1.4088,-1.4088,-1.4088,-1.4088,-1.4088,-1.4088,-1.4088,-1.4088,-1.4088,-2.0615,-2.0615,-2.0615,-2.0615,-2.0615,-2.0615,-2.0615,-2.0615,-2.0615,-2.0615,-2.0615,-2.0615,-2.0615,-2.0615,-2.0615,-2.0615,-2.0615,-2.0615,-2.0615,-2.0615,-2.0615,-2.0615,-2.0615,-2.0615,-2.0615,-2.0615,-2.0605,-2.0556,-2.0341,-2.0264,-2.0156,-2.0067,-1.9952,-1.9659,-1.9155,-1.8863,-1.7967,-1.7004,-1.6187,-1.5204,-1.4043,-1.3578,-1.3328,-1.2844,-1.2799,-1.2792,-1.2792,-1.2819,-1.2812,-1.2746,-1.2552,-1.2305,-1.2305,-1.2378,-1.2672,-1.3601,-1.3494,-1.3253,-1.3066,-1.3026,-1.308,-1.3227,-1.346,-1.364,-1.382,-1.3995,-1.4088,-1.4088,-1.4088,-1.4088,-1.4088,-1.4088,-1.3639,-1.3506,-1.3555,-1.2912,-1.2388,-1.1128,-1.0394,-1.1391,-1.2046,-1.174,-1.1826,-1.2565,-1.3258,-1.4088,-1.4046,-1.3997,-1.4046,-1.4088,-1.4088,-1.4088,-1.4088,-1.4088,-1.4088,-1.4088,-1.4088,-1.4088,-1.4088,-1.4088,-1.4088,-1.4088,-1.4088,-1.4088,-1.4088,-1.4088,-1.4088,-1.4088,-1.4088,-1.4088,-1.4088,-1.4088,-1.4088,-1.4088,-1.4088,-2.0615,-2.0615,-2.0615,-2.0615,-2.0615,-2.0615,-2.0615,-2.0615,-2.0615,-2.0615,-2.0615,-2.0615,-2.0615,-2.0615,-2.0615,-2.0615,-2.0615,-2.0615,-2.0615,-2.0615,-2.0615,-2.0615,-2.0615,-2.0615,-2.0615,-2.0615,-2.0615,-2.0576,-2.0586,-2.0576,-2.0556,-2.0566,-2.0033,-1.973,-1.9055,-1.8315,-1.7307,-1.5865,-1.5116,-1.4321,-1.3695,-1.3912,-1.3685,-1.337,-1.3206,-1.3206,-1.3206,-1.318,-1.3173,-1.308,-1.2826,-1.2625,-1.2612,-1.2859,-1.32,-1.3868,-1.3908,-1.3788,-1.3527,-1.3414,-1.342,-1.354,-1.3706,-1.3833,-1.4015,-1.4088,-1.4088,-1.4088,-1.4088,-1.4088,-1.3997,-1.3786,-1.3118,-1.2772,-1.2729,-1.1821,-1.0869,-0.9744,-0.944,-1.0481,-1.0524,-0.9096,-0.9527,-1.0875,-1.2174,-1.361,-1.4004,-1.387,-1.387,-1.3955,-1.4088,-1.4088,-1.4088,-1.4088,-1.4088,-1.4088,-1.4088,-1.4088,-1.4088,-1.4088,-1.4088,-1.4088,-1.4088,-1.4088,-1.4088,-1.4088,-1.4088,-1.4088,-1.4088,-1.4088,-1.4088,-1.4088,-1.4088,-1.4088,-1.4088,-2.0615,-2.0615,-2.0615,-2.0615,-2.0615,-2.0615,-2.0615,-2.0615,-2.0615,-2.0615,-2.0615,-2.0615,-2.0615,-2.0615,-2.0615,-2.0615,-2.0615,-2.0615,-2.0615,-2.0615,-2.0615,-2.0615,-2.0615,-2.0615,-2.0615,-2.0615,-2.0615,-2.0615,-2.0615,-2.0615,-2.0615,-2.0489,-1.9717,-1.9234,-1.8452,-1.7413,-1.6492,-1.5212,-1.4444,-1.3858,-1.3481,-1.3473,-1.3413,-1.3346,-1.324,-1.3213,-1.322,-1.3287,-1.332,-1.3327,-1.3213,-1.3146,-1.32,-1.3474,-1.3861,-1.3995,-1.4088,-1.4001,-1.3874,-1.368,-1.36,-1.368,-1.3813,-1.4015,-1.4075,-1.4088,-1.4088,-1.4088,-1.4088,-1.3864,-1.3519,-1.3003,-1.2339,-1.1778,-1.1429,-1.0864,-0.9788,-0.8488,-0.844,-0.9566,-0.9266,-0.8009,-0.7573,-0.9052,-1.0091,-1.1477,-1.3561,-1.3561,-1.3519,-1.361,-1.3955,-1.4088,-1.4088,-1.4088,-1.4088,-1.4088,-1.4088,-1.4088,-1.4088,-1.4088,-1.4088,-1.4088,-1.4088,-1.4088,-1.4088,-1.4088,-1.4088,-1.4088,-1.4088,-1.4088,-1.4088,-1.4088,-1.4088,-1.4088,-1.4088,-2.0615,-2.0615,-2.0615,-2.0615,-2.0615,-2.0615,-2.0615,-2.0615,-2.0615,-2.0615,-2.0615,-2.0615,-2.0615,-2.0615,-2.0615,-2.0615,-2.0615,-2.0615,-2.0615,-2.0615,-2.0615,-2.0615,-2.0615,-2.0615,-2.0615,-2.0615,-2.0615,-2.0615,-2.0615,-2.0615,-2.0089,-1.9638,-1.9076,-1.8012,-1.7163,-1.6157,-1.5216,-1.4766,-1.4192,-1.3834,-1.3801,-1.3754,-1.3754,-1.3754,-1.3754,-1.3748,-1.3761,-1.3754,-1.3754,-1.3734,-1.3721,-1.3701,-1.3681,-1.3975,-1.4062,-1.4088,-1.4088,-1.4088,-1.4088,-1.3975,-1.3928,-1.3935,-1.4028,-1.4088,-1.4088,-1.4088,-1.4088,-1.4088,-1.4088,-1.3822,-1.1949,-1.1783,-1.1606,-1.0745,-1.0091,-0.9657,-0.8877,-0.7661,-0.7445,-0.8571,-0.8269,-0.7356,-0.7228,-0.7312,-0.8269,-0.9353,-1.1472,-1.3167,-1.3039,-1.3434,-1.387,-1.4088,-1.4088,-1.4088,-1.4088,-1.4088,-1.4088,-1.4155,-1.4182,-1.4088,-1.4088,-1.4088,-1.4088,-1.4088,-1.4088,-1.4088,-1.4088,-1.4088,-1.4088,-1.4088,-1.4088,-1.4088,-1.4088,-1.4088,-1.4088,-2.0615,-2.0615,-2.0615,-2.0615,-2.0615,-2.0615,-2.0615,-2.0615,-2.0615,-2.0615,-2.0615,-2.0615,-2.0615,-2.0615,-2.0615,-2.0615,-2.0615,-2.0615,-2.0615,-2.0615,-2.0615,-2.0615,-2.0615,-2.0615,-2.0615,-2.0615,-2.0615,-2.0615,-2.0615,-2.0615,-1.9717,-1.8917,-1.8399,-1.7326,-1.6026,-1.4699,-1.413,-1.4088,-1.4088,-1.4088,-1.4068,-1.4062,-1.4055,-1.4041,-1.4028,-1.4028,-1.4015,-1.4001,-1.4015,-1.4021,-1.4035,-1.4062,-1.4075,-1.4088,-1.4088,-1.4088,-1.4088,-1.4088,-1.4088,-1.4088,-1.4088,-1.4055,-1.4068,-1.4088,-1.4088,-1.4088,-1.4088,-1.4088,-1.4004,-1.3088,-1.0788,-1.0394,-1.0183,-0.9318,-0.9008,-0.8571,-0.8053,-0.7183,-0.7139,-0.7489,-0.7095,-0.7095,-0.7095,-0.7183,-0.7848,-0.8842,-1.0481,-1.1863,-1.1912,-1.2607,-1.3955,-1.4088,-1.4088,-1.4088,-1.4088,-1.4088,-1.4182,-1.4736,-1.4643,-1.4168,-1.4088,-1.4108,-1.4102,-1.4088,-1.4088,-1.4088,-1.4088,-1.4088,-1.4088,-1.4088,-1.4088,-1.4088,-1.4088,-1.4088,-1.4088,-2.0615,-2.0615,-2.0615,-2.0615,-2.0615,-2.0615,-2.0615,-2.0615,-2.0615,-2.0615,-2.0615,-2.0615,-2.0615,-2.0615,-2.0615,-2.0615,-2.0615,-2.0615,-2.0615,-2.0615,-2.0615,-2.0615,-2.0615,-2.0615,-2.0615,-2.0615,-2.0566,-2.0566,-2.045,-2.0323,-1.9234,-1.7779,-1.709,-1.6601,-1.5621,-1.4657,-1.413,-1.4088,-1.4088,-1.4088,-1.4088,-1.4088,-1.4088,-1.4088,-1.4088,-1.4088,-1.4088,-1.4088,-1.4088,-1.4088,-1.4088,-1.4088,-1.4088,-1.4088,-1.4088,-1.4088,-1.4088,-1.4088,-1.4088,-1.4088,-1.4088,-1.4088,-1.4088,-1.4088,-1.4088,-1.4088,-1.4088,-1.4088,-1.3392,-1.2418,-1.0582,-0.8886,-0.8544,-0.834,-0.8037,-0.7779,-0.7347,-0.7244,-0.7265,-0.7125,-0.7095,-0.7095,-0.7095,-0.7231,-0.7768,-0.8636,-0.9836,-1.0438,-1.0481,-1.1814,-1.3311,-1.4182,-1.4188,-1.4175,-1.4175,-1.4108,-1.4309,-1.4943,-1.5104,-1.4629,-1.4289,-1.4249,-1.4215,-1.4128,-1.4088,-1.4088,-1.4088,-1.4088,-1.4088,-1.4088,-1.4088,-1.4088,-1.4088,-1.4088,-1.4088,-2.0615,-2.0615,-2.0615,-2.0615,-2.0615,-2.0615,-2.0615,-2.0615,-2.0615,-2.0615,-2.0615,-2.0615,-2.0615,-2.0615,-2.0615,-2.0615,-2.0615,-2.0615,-2.0615,-2.0615,-2.0615,-2.0615,-2.0615,-2.0615,-2.0615,-2.0615,-2.0566,-2.0167,-1.9481,-1.9638,-1.8292,-1.6675,-1.5752,-1.5019,-1.4657,-1.4208,-1.4088,-1.4088,-1.4088,-1.4088,-1.4088,-1.4088,-1.4088,-1.4088,-1.4088,-1.4088,-1.4088,-1.4088,-1.4088,-1.4088,-1.4088,-1.4088,-1.4088,-1.4088,-1.4088,-1.4088,-1.4088,-1.4088,-1.4088,-1.4088,-1.4088,-1.4088,-1.4088,-1.4088,-1.4088,-1.4088,-1.4088,-1.3124,-1.1214,-0.989,-0.8291,-0.7849,-0.7615,-0.7773,-0.7601,-0.7496,-0.7272,-0.74,-0.7441,-0.7238,-0.7095,-0.7102,-0.7105,-0.7179,-0.7647,-0.7771,-0.8694,-0.8608,-0.8584,-1.0672,-1.2477,-1.3846,-1.4335,-1.4309,-1.4295,-1.4422,-1.4716,-1.5324,-1.5411,-1.5097,-1.481,-1.4556,-1.4302,-1.4195,-1.4135,-1.4088,-1.4088,-1.4088,-1.4088,-1.4088,-1.4088,-1.4088,-1.4088,-1.4088,-1.4088,-2.0615,-2.0615,-2.0615,-2.0615,-2.0615,-2.0615,-2.0615,-2.0615,-2.0615,-2.0615,-2.0615,-2.0615,-2.0615,-2.0615,-2.0615,-2.0615,-2.0615,-2.0615,-2.0615,-2.0615,-2.0615,-2.0615,-2.0615,-2.0615,-2.0615,-2.0615,-2.0489,-2.0089,-1.9155,-1.9045,-1.7819,-1.6067,-1.4657,-1.437,-1.4173,-1.413,-1.4088,-1.4088,-1.4088,-1.4088,-1.4088,-1.4088,-1.4088,-1.4088,-1.4088,-1.4088,-1.4088,-1.4088,-1.4088,-1.4088,-1.4088,-1.4088,-1.4088,-1.4088,-1.4088,-1.4088,-1.4088,-1.4088,-1.4088,-1.4088,-1.4088,-1.4088,-1.4088,-1.4088,-1.4088,-1.4088,-1.265,-1.1128,-0.8659,-0.7997,-0.7581,-0.7267,-0.7402,-0.7604,-0.7461,-0.7363,-0.737,-0.7492,-0.7556,-0.7346,-0.7244,-0.7179,-0.7152,-0.724,-0.7451,-0.744,-0.7427,-0.7261,-0.7403,-0.9813,-1.2264,-1.3873,-1.4649,-1.4589,-1.473,-1.495,-1.5297,-1.5745,-1.5631,-1.5404,-1.5224,-1.495,-1.4609,-1.4329,-1.4422,-1.4459,-1.4162,-1.4088,-1.4088,-1.4088,-1.4088,-1.4088,-1.4088,-1.4088,-1.4088,-2.0615,-2.0615,-2.0615,-2.0615,-2.0615,-2.0615,-2.0615,-2.0615,-2.0615,-2.0615,-2.0615,-2.0615,-2.0615,-2.0615,-2.0615,-2.0615,-2.0615,-2.0615,-2.0615,-2.0615,-2.0615,-2.0615,-2.0615,-2.0615,-2.0615,-2.0615,-2.045,-1.9923,-1.9006,-1.8029,-1.6927,-1.5794,-1.4538,-1.4208,-1.4088,-1.4088,-1.4088,-1.4088,-1.4088,-1.4088,-1.4088,-1.4088,-1.4088,-1.4088,-1.4088,-1.4088,-1.4088,-1.4088,-1.4088,-1.4088,-1.4088,-1.4088,-1.4088,-1.4088,-1.4088,-1.4088,-1.4088,-1.4088,-1.4088,-1.4088,-1.4088,-1.4088,-1.3913,-1.3997,-1.3955,-1.3561,-1.1649,-0.9614,-0.7499,-0.7598,-0.7536,-0.7658,-0.7735,-0.7695,-0.7522,-0.7472,-0.7461,-0.7529,-0.7604,-0.7539,-0.7465,-0.7411,-0.7277,-0.7324,-0.7489,-0.7499,-0.7499,-0.7489,-0.8005,-1.0068,-1.2483,-1.4742,-1.5211,-1.4943,-1.509,-1.5291,-1.5498,-1.5825,-1.5825,-1.5651,-1.5491,-1.5344,-1.5077,-1.489,-1.4934,-1.4767,-1.4275,-1.4102,-1.4088,-1.4088,-1.4102,-1.4088,-1.4088,-1.4088,-1.4088,-2.0615,-2.0615,-2.0615,-2.0615,-2.0615,-2.0615,-2.0615,-2.0615,-2.0615,-2.0615,-2.0615,-2.0615,-2.0615,-2.0615,-2.0615,-2.0615,-2.0615,-2.0615,-2.0615,-2.0615,-2.0615,-2.0615,-2.0615,-2.0615,-2.0615,-2.0566,-2.0362,-1.9559,-1.7787,-1.669,-1.5636,-1.4496,-1.4292,-1.413,-1.4088,-1.4088,-1.4088,-1.4088,-1.4088,-1.4088,-1.4088,-1.4088,-1.4088,-1.4088,-1.4088,-1.4088,-1.4088,-1.4088,-1.4088,-1.4088,-1.4088,-1.4088,-1.4088,-1.4088,-1.4088,-1.4088,-1.4088,-1.4088,-1.4088,-1.4088,-1.4039,-1.3773,-1.3336,-1.3476,-1.3343,-1.2388,-1.0389,-0.84,-0.7255,-0.7495,-0.7719,-0.7826,-0.7877,-0.7811,-0.7645,-0.7553,-0.7577,-0.7716,-0.7773,-0.7675,-0.7604,-0.7563,-0.7429,-0.7473,-0.7628,-0.7648,-0.7665,-0.7668,-0.8141,-1.0035,-1.2657,-1.4902,-1.5651,-1.5344,-1.5431,-1.5658,-1.5732,-1.5825,-1.5825,-1.5825,-1.5718,-1.5578,-1.5478,-1.5404,-1.5344,-1.4856,-1.4215,-1.4215,-1.4462,-1.4175,-1.4135,-1.4108,-1.4088,-1.4108,-1.4102,-2.0615,-2.0615,-2.0615,-2.0615,-2.0615,-2.0615,-2.0615,-2.0615,-2.0615,-2.0615,-2.0615,-2.0615,-2.0615,-2.0615,-2.0615,-2.0615,-2.0615,-2.0615,-2.0615,-2.0615,-2.0615,-2.0615,-2.0615,-2.0615,-2.0615,-2.0527,-1.9962,-1.8997,-1.7098,-1.5311,-1.413,-1.4173,-1.4088,-1.4088,-1.4088,-1.4088,-1.4088,-1.4088,-1.4088,-1.4088,-1.4088,-1.4088,-1.4088,-1.4088,-1.4088,-1.4088,-1.4088,-1.4088,-1.4088,-1.4088,-1.4088,-1.4088,-1.4088,-1.4088,-1.4088,-1.4088,-1.4088,-1.4088,-1.4088,-1.4088,-1.3864,-1.3379,-1.2717,-1.251,-1.2126,-1.1305,-0.9483,-0.7727,-0.7626,-0.7591,-0.7806,-0.7982,-0.7938,-0.7936,-0.7784,-0.7584,-0.7715,-0.788,-0.7843,-0.7787,-0.7733,-0.7706,-0.7699,-0.774,-0.776,-0.7767,-0.7814,-0.782,-0.7979,-0.8841,-1.2012,-1.5061,-1.5602,-1.5718,-1.5825,-1.5825,-1.5825,-1.5825,-1.5825,-1.5825,-1.5825,-1.5785,-1.5658,-1.5691,-1.5758,-1.5251,-1.4756,-1.4836,-1.4963,-1.4689,-1.4489,-1.4446,-1.4372,-1.4208,-1.4175,-2.0615,-2.0615,-2.0615,-2.0615,-2.0615,-2.0615,-2.0615,-2.0615,-2.0615,-2.0615,-2.0615,-2.0615,-2.0615,-2.0615,-2.0615,-2.0615,-2.0615,-2.0615,-2.0615,-2.0615,-2.0615,-2.0615,-2.0615,-2.0566,-2.0411,-2.0118,-1.9481,-1.851,-1.6927,-1.5269,-1.4088,-1.4088,-1.4088,-1.4088,-1.4088,-1.4088,-1.4088,-1.4088,-1.4088,-1.4088,-1.4088,-1.4088,-1.4088,-1.4088,-1.4088,-1.4088,-1.4088,-1.4088,-1.4088,-1.4088,-1.4088,-1.4088,-1.4088,-1.4088,-1.4088,-1.4088,-1.4088,-1.4088,-1.4088,-1.4088,-1.3428,-1.2857,-1.2194,-1.1729,-1.1214,-1.0956,-0.9444,-0.8002,-0.7733,-0.7756,-0.7938,-0.7985,-0.7955,-0.7934,-0.7847,-0.7762,-0.7823,-0.7938,-0.7928,-0.7853,-0.7847,-0.782,-0.7826,-0.7857,-0.7833,-0.7885,-0.7913,-0.7944,-0.8696,-0.8966,-1.1448,-1.4997,-1.5391,-1.5683,-1.5825,-1.5825,-1.5825,-1.5825,-1.5825,-1.5825,-1.5825,-1.5825,-1.5825,-1.5825,-1.5825,-1.5825,-1.5585,-1.5511,-1.5424,-1.5424,-1.5185,-1.4953,-1.469,-1.4093,-1.4127,-2.0615,-2.0615,-2.0615,-2.0615,-2.0615,-2.0615,-2.0615,-2.0615,-2.0615,-2.0615,-2.0615,-2.0615,-2.0615,-2.0615,-2.0615,-2.0615,-2.0615,-2.0615,-2.0615,-2.0615,-2.0615,-2.0615,-2.0566,-2.044,-2.0118,-1.952,-1.8829,-1.7811,-1.6116,-1.4817,-1.4088,-1.4088,-1.4088,-1.4088,-1.4088,-1.4088,-1.4088,-1.4088,-1.4088,-1.4088,-1.4088,-1.4088,-1.4088,-1.4088,-1.4088,-1.4088,-1.4088,-1.4088,-1.4088,-1.4088,-1.4088,-1.4088,-1.4088,-1.4088,-1.4088,-1.4088,-1.4088,-1.4088,-1.4039,-1.3906,-1.3252,-1.2291,-1.1595,-1.1037,-1.0692,-1.0611,-0.9932,-0.8553,-0.7853,-0.7938,-0.7988,-0.7982,-0.7978,-0.7968,-0.7958,-0.7941,-0.7924,-0.7955,-0.7985,-0.7988,-0.7988,-0.7988,-0.7988,-0.7982,-0.7968,-0.7958,-0.7955,-0.8372,-0.978,-1.0574,-1.1789,-1.4513,-1.5146,-1.5486,-1.5683,-1.5825,-1.5825,-1.5825,-1.5825,-1.5825,-1.5825,-1.5825,-1.5825,-1.5825,-1.5825,-1.5825,-1.5825,-1.5785,-1.5752,-1.5778,-1.5044,-1.4431,-1.3721,-1.3134,-1.3573,-2.0615,-2.0615,-2.0615,-2.0615,-2.0615,-2.0615,-2.0615,-2.0615,-2.0615,-2.0615,-2.0615,-2.0615,-2.0615,-2.0615,-2.0615,-2.0615,-2.0615,-2.0615,-2.0615,-2.0615,-2.0615,-2.0615,-2.0489,-2.0157,-1.9638,-1.8997,-1.777,-1.6511,-1.5137,-1.4573,-1.4088,-1.4088,-1.4088,-1.4088,-1.4088,-1.4088,-1.4088,-1.4088,-1.4088,-1.4088,-1.4088,-1.4088,-1.4088,-1.4088,-1.4088,-1.4088,-1.4088,-1.4088,-1.4088,-1.4088,-1.4088,-1.4088,-1.4088,-1.4088,-1.4088,-1.4088,-1.4088,-1.4088,-1.3955,-1.3555,-1.2863,-1.1686,-1.0519,-0.9836,-0.8834,-0.87,-0.8869,-0.7756,-0.7891,-0.7988,-0.7988,-0.7985,-0.7985,-0.7978,-0.7975,-0.7968,-0.7961,-0.7975,-0.7988,-0.7988,-0.7988,-0.7988,-0.7988,-0.7988,-0.7978,-0.7978,-0.7988,-0.7988,-0.955,-1.1741,-1.3102,-1.4172,-1.4854,-1.5391,-1.573,-1.5825,-1.5825,-1.5825,-1.5825,-1.5825,-1.5825,-1.5825,-1.5825,-1.5825,-1.5825,-1.5825,-1.5825,-1.5825,-1.5825,-1.5812,-1.4775,-1.3605,-1.2961,-1.2325,-1.2344,-2.0615,-2.0615,-2.0615,-2.0615,-2.0615,-2.0615,-2.0615,-2.0615,-2.0615,-2.0615,-2.0615,-2.0615,-2.0615,-2.0615,-2.0615,-2.0615,-2.0615,-2.0615,-2.0615,-2.0615,-2.0615,-2.0615,-2.0206,-1.9648,-1.8917,-1.7819,-1.6478,-1.5421,-1.4328,-1.4088,-1.4088,-1.4088,-1.4088,-1.4088,-1.4088,-1.4088,-1.4088,-1.4088,-1.4088,-1.4088,-1.4088,-1.4088,-1.4088,-1.4088,-1.4088,-1.4088,-1.4088,-1.4088,-1.4088,-1.4088,-1.4088,-1.4088,-1.4088,-1.4088,-1.4088,-1.4088,-1.4088,-1.3955,-1.3646,-1.2942,-1.1772,-1.0567,-0.9449,-0.8508,-0.7595,-0.7413,-0.7617,-0.7787,-0.7921,-0.7988,-0.7988,-0.7988,-0.7988,-0.7988,-0.7988,-0.7988,-0.7988,-0.7988,-0.7988,-0.7988,-0.7988,-0.7988,-0.7988,-0.7988,-0.7988,-0.7988,-0.7988,-0.7988,-0.8772,-1.1351,-1.3445,-1.422,-1.4806,-1.5296,-1.573,-1.5825,-1.5825,-1.5825,-1.5825,-1.5825,-1.5825,-1.5825,-1.5825,-1.5825,-1.5825,-1.5825,-1.5825,-1.5825,-1.5825,-1.5683,-1.4166,-1.2893,-1.2533,-1.1877,-1.1104,-2.0615,-2.0615,-2.0615,-2.0615,-2.0615,-2.0615,-2.0615,-2.0615,-2.0615,-2.0615,-2.0615,-2.0615,-2.0615,-2.0615,-2.0615,-2.0615,-2.0615,-2.0615,-2.0615,-2.0615,-2.0411,-2.0489,-2.0079,-1.8948,-1.7851,-1.6519,-1.5262,-1.4496,-1.4088,-1.4088,-1.4088,-1.4088,-1.4088,-1.4088,-1.4088,-1.4088,-1.4088,-1.4088,-1.4088,-1.4088,-1.4088,-1.4088,-1.4088,-1.4088,-1.4088,-1.4088,-1.4088,-1.4088,-1.4088,-1.4088,-1.4088,-1.4088,-1.4088,-1.4088,-1.4088,-1.3913,-1.3913,-1.3385,-1.2857,-1.2157,-1.0999,-0.9662,-0.878,-0.8323,-0.7687,-0.7438,-0.7678,-0.7906,-0.7988,-0.7988,-0.7988,-0.7988,-0.7988,-0.7988,-0.7988,-0.7988,-0.7988,-0.7988,-0.7988,-0.7988,-0.7988,-0.7988,-0.7988,-0.7988,-0.7988,-0.7988,-0.7988,-0.8038,-0.8137,-1.0769,-1.3397,-1.4322,-1.4854,-1.5343,-1.5825,-1.5825,-1.5825,-1.5825,-1.5825,-1.5825,-1.5825,-1.5825,-1.5825,-1.5825,-1.5825,-1.5825,-1.5825,-1.5825,-1.5439,-1.5003,-1.3301,-1.2134,-1.1799,-1.1165,-1.019]}]]